[[{"header":{"parameterUnit":"m.s-1","parameterCategory":1,"la1":31.0,"la2":29.5877,"lo1":-88.7671,"lo2":-86.6584,"dy":0.0162,"dx":0.0185,"nx":115,"ny":88,"refTime":"2023-05-19T18:00:00:Z","depth":0,"parameterNumber":2,"parameterNumberName":"U-component_of_WINDS"},"data":[0.0,0.0,0.0,0.0,0.0,0.0,0.0,0.0,0.0,0.0,0.0,0.0,0.0,0.0,0.0,0.0,0.0,0.0,0.0,0.0,0.0,0.0,0.0,0.0,0.0,0.0,0.0,0.0,0.0,0.0,0.0,0.0,0.0,0.0,0.0,0.0,0.0,0.0,0.0,0.0,0.0,0.0,0.0,0.0,0.0,0.0,0.0,0.0,0.0,0.0,0.0,0.0,0.0,0.0,0.0,0.0,0.0,0.0,0.0,0.0,0.0,0.0,0.0,0.0,0.0,0.0,0.0,0.0,0.0,0.0,0.0,0.0,0.0,0.0,0.0,0.0,0.0,0.0,0.0,0.0,0.0,0.0,0.0,0.0,0.0,0.0,0.0,0.0,0.0,0.0,0.0,0.0,0.0,0.0,0.0,0.0,0.0,0.0,0.0,0.0,0.0,0.0,0.0,0.0,0.0,0.0,0.0,0.0,0.0,0.0,0.0,0.0,0.0,0.0,0.0,0.0,0.0,0.0,0.0,0.0,0.0,0.0,0.0,0.0,0.0,0.0,0.0,0.0,0.0,0.0,0.0,0.0,0.0,0.0,0.0,0.0,0.0,0.0,0.0,0.0,0.0,0.0,0.0,0.0,0.0,0.0,0.0,0.0,0.0,0.0,0.0,0.0,0.0,0.0,0.0,0.0,0.0,0.0,0.0,0.0,0.0,0.0,0.0,0.0,0.0,0.0,0.0,0.0,0.0,0.0,0.0,0.0,0.0,0.0,0.0,0.0,0.0,0.0,0.0,0.0,0.0,0.0,0.0,0.0,0.0,0.0,0.0,0.0,0.0,0.0,0.0,0.0,0.0,0.0,0.0,0.0,0.0,0.0,0.0,0.0,0.0,0.0,0.0,0.0,0.0,0.0,0.0,0.0,0.0,0.0,0.0,0.0,0.0,0.0,0.0,0.0,0.0,0.0,0.0,0.0,0.0,0.0,0.0,0.0,0.0,0.0,0.0,0.0,0.0,0.0,0.0,0.0,0.0,0.0,0.0,0.0,0.0,0.0,0.0,0.0,0.0,0.0,0.0,0.0,0.0,0.0,0.0,0.0,0.0,0.0,0.0,0.0,0.0,0.0,0.0,0.0,0.0,0.0,0.0,0.0,0.0,0.0,0.0,0.0,0.0,0.0,0.0,0.0,0.0,0.0,0.0,0.0,0.0,0.0,0.0,0.0,0.0,0.0,0.0,0.0,0.0,0.0,0.0,0.0,0.0,0.0,0.0,0.0,0.0,0.0,0.0,0.0,0.0,0.0,0.0,0.0,0.0,0.0,0.0,0.0,0.0,0.0,0.0,0.0,0.0,0.0,0.0,0.0,0.0,0.0,0.0,0.0,0.0,0.0,0.0,0.0,0.0,0.0,0.0,0.0,0.0,0.0,0.0,0.0,0.0,0.0,0.0,0.0,0.0,0.0,0.0,0.0,0.0,0.0,0.0,0.0,0.0,0.0,0.0,0.0,0.0,0.0,0.0,0.0,0.0,0.0,0.0,0.0,0.0,0.0,0.0,0.0,0.0,0.0,0.0,0.0,0.0,0.0,0.0,0.0,0.0,0.0,0.0,0.0,0.0,0.0,0.0,0.0,0.0,0.0,0.0,0.0,0.0,0.0,0.0,0.0,0.0,0.0,0.0,0.0,0.0,0.0,0.0,0.0,0.0,0.0,0.0,0.0,0.0,0.0,0.0,0.0,0.0,0.0,0.0,0.0,0.0,0.0,0.0,0.0,0.0,0.0,0.0,0.0,0.0,0.0,0.0,0.0,0.0,0.0,0.0,0.0,0.0,0.0,0.0,0.0,0.0,0.0,0.0,0.0,0.0,0.0,0.0,0.0,0.0,0.0,0.0,0.0,0.0,0.0,0.0,0.0,0.0,0.0,0.0,0.0,0.0,0.0,0.0,0.0,0.0,0.0,0.0,0.0,0.0,0.0,0.0,0.0,0.0,0.0,0.0,0.0,0.0,0.0,0.0,0.0,0.0,0.0,0.0,0.0,0.0,0.0,0.0,0.0,0.0,0.0,0.0,0.0,0.0,0.0,0.0,0.0,0.0,0.0,0.0,0.0,0.0,0.0,0.0,0.0,0.0,0.0,0.0,0.0,0.0,0.0,0.0,0.0,0.0,0.0,0.0,0.0,0.0,0.0,0.0,0.0,0.0,0.0,0.0,0.0,0.0,0.0,0.0,0.0,0.0,0.0,0.0,0.0,0.0,0.0,0.0,0.0,0.0,0.0,0.0,0.0,0.0,0.0,0.0,0.0,0.0,0.0,0.0,0.0,0.0,0.0,0.0,0.0,0.0,0.0,0.0,0.0,0.0,0.0,0.0,0.0,0.0,0.0,0.0,0.0,0.0,0.0,0.0,0.0,0.0,0.0,0.0,0.0,0.0,0.0,0.0,0.0,0.0,0.0,0.0,0.0,0.0,0.0,0.0,0.0,0.0,0.0,0.0,0.0,0.0,0.0,0.0,0.0,0.0,0.0,0.0,0.0,0.0,0.0,0.0,0.0,0.0,0.0,0.0,0.0,0.0,0.0,0.0,0.0,0.0,0.0,0.0,0.0,0.0,0.0,0.0,0.0,0.0,0.0,0.0,0.0,0.0,0.0,0.0,0.0,0.0,0.0,0.0,0.0,0.0,0.0,0.0,0.0,0.0,0.0,0.0,0.0,0.0,0.0,0.0,0.0,0.0,0.0,0.0,0.0,0.0,0.0,0.0,0.0,0.0,0.0,0.0,0.0,0.0,0.0,0.0,0.0,0.0,0.0,0.0,0.0,0.0,0.0,0.0,0.0,0.0,0.0,0.0,0.0,0.0,0.0,0.0,0.0,0.0,0.0,0.0,0.0,0.0,0.0,0.0,0.0,0.0,0.0,0.0,0.0,0.0,0.0,0.0,0.0,0.0,0.0,0.0,0.0,0.0,0.0,0.0,0.0,0.0,0.0,0.0,0.0,0.0,0.0,0.0,0.0,0.0,0.0,0.0,0.0,0.0,0.0,0.0,0.0,0.0,0.0,0.0,0.0,0.0,0.0,0.0,0.0,0.0,0.0,0.0,0.0,0.0,0.0,0.0,0.0,0.0,0.0,0.0,0.0,0.0,0.0,0.0,0.0,0.0,0.0,0.0,0.0,0.0,0.0,0.0,0.0,0.0,0.0,0.0,0.0,0.0,0.0,0.0,0.0,0.0,0.0,0.0,0.0,0.0,0.0,0.0,0.0,0.0,0.0,0.0,0.0,0.0,0.0,0.0,0.0,0.0,0.0,0.0,0.0,0.0,0.0,0.0,0.0,0.0,0.0,0.0,0.0,0.0,0.0,0.0,0.0,0.0,0.0,0.0,0.0,0.0,0.0,0.0,0.0,0.0,0.0,0.0,0.0,0.0,0.0,0.0,0.0,0.0,0.0,0.0,0.0,0.0,0.0,0.0,0.0,0.0,0.0,0.0,0.0,0.0,0.0,0.0,0.0,0.0,0.0,0.0,0.0,0.0,0.0,0.0,0.0,0.0,0.0,0.0,0.0,0.0,0.0,0.0,0.0,0.0,0.0,0.0,0.0,0.0,0.0,0.0,0.0,0.0,0.0,0.0,0.0,0.0,0.0,0.0,0.0,0.0,0.0,0.0,0.0,0.0,0.0,0.0,0.0,0.0,0.0,0.0,0.0,0.0,0.0,0.0,0.0,0.0,0.0,0.0,0.0,0.0,0.0,0.0,0.0,0.0,0.0,0.0,0.0,0.0,0.0,0.0,0.0,0.0,0.0,0.0,0.0,0.0,0.0,0.0,0.0,0.0,0.0,0.0,0.0,0.0,0.0,0.0,0.0,0.0,0.0,0.0,0.0,0.0,0.0,0.0,0.0,0.0,0.0,0.0,0.0,0.0,0.0,0.0,0.0,0.0,0.0,0.0,0.0,0.0,0.0,0.0,0.0,0.0,0.0,0.0,0.0,0.0,0.0,0.0,0.0,0.0,0.0,0.0,0.0,0.0,0.0,0.0,0.0,0.0,0.0,0.0,0.0,0.0,0.0,0.0,0.0,0.0,0.0,0.0,0.0,0.0,0.0,0.0,0.0,0.0,0.0,0.0,0.0,0.0,0.0,0.0,0.0,0.0,0.0,0.0,0.0,0.0,0.0,0.0,0.0,0.0,0.0,0.0,0.0,0.0,0.0,0.0,0.0,0.0,0.0,0.0,0.0,0.0,0.0,0.0,0.0,0.0,0.0,0.0,0.0,0.0,0.0,-0.6838,0.0,0.0,0.0,0.0,0.0,0.0,0.0,0.0,0.0,0.0,0.0,0.0,0.0,0.0,0.0,0.0,0.0,0.0,0.0,0.0,0.0,0.0,0.0,0.0,0.0,0.0,0.0,0.0,0.0,0.0,0.0,0.0,0.0,0.0,0.0,0.0,0.0,0.0,0.0,0.0,0.0,0.0,0.0,0.0,0.0,0.0,0.0,0.0,0.0,0.0,0.0,0.0,0.0,0.0,0.0,0.0,0.0,0.0,0.0,0.0,0.0,0.0,0.0,0.0,0.0,0.0,0.0,0.0,0.0,0.0,0.0,0.0,0.0,0.0,0.0,0.0,0.0,0.0,0.0,0.0,0.0,0.0,0.0,0.0,0.0,0.0,0.0,0.0,0.0,0.0,0.0,0.0,0.0,0.0,0.0,0.0,0.0,0.0,0.0,0.0,0.0,0.0,0.0,0.0,0.0,0.0,0.0,0.0,0.0,0.0,-0.9637,-0.949,-0.9561,-0.9094,-0.799,0.0,0.0,0.0,0.0,0.0,0.0,0.0,0.0,0.0,0.0,0.0,0.0,0.0,0.0,0.0,0.0,0.0,0.0,0.0,0.0,0.0,0.0,0.0,0.0,0.0,0.0,0.0,0.0,0.0,0.0,0.0,0.0,0.0,0.0,0.0,0.0,0.0,0.0,0.0,0.0,0.0,0.0,0.0,0.0,0.0,0.0,0.0,0.0,0.0,0.0,0.0,0.0,0.0,0.0,0.0,0.0,0.0,0.0,0.0,0.0,0.0,0.0,0.0,0.0,0.0,0.0,0.0,0.0,0.0,0.0,0.0,0.0,0.0,0.0,0.0,0.0,0.0,0.0,0.0,0.0,0.0,0.0,0.0,0.0,0.0,0.0,0.0,0.0,0.0,0.0,0.0,0.0,0.0,0.0,0.0,0.0,0.0,0.0,0.0,0.0,0.0,0.0,0.0,0.0,0.0,0.0,0.0,0.0,0.0,0.0,0.0,0.0,-1.0424,-0.984,-0.8741,0.0,0.0,0.0,0.0,0.0,0.0,0.0,0.0,0.0,0.0,0.0,0.0,0.0,0.0,0.0,0.0,0.0,0.0,0.0,0.0,0.0,0.0,0.0,0.0,0.0,0.0,0.0,0.0,0.0,0.0,0.0,0.0,0.0,0.0,0.0,0.0,0.0,0.0,0.0,0.0,0.0,0.0,0.0,0.0,0.0,0.0,0.0,0.0,0.0,0.0,0.0,0.0,0.0,0.0,0.0,0.0,0.0,0.0,0.0,0.0,0.0,0.0,0.0,0.0,0.0,0.0,0.0,0.0,0.0,0.0,0.0,0.0,0.0,0.0,0.0,0.0,0.0,0.0,0.0,0.0,0.0,0.0,0.0,0.0,0.0,0.0,0.0,0.0,0.0,0.0,0.0,0.0,0.0,0.0,0.0,0.0,0.0,0.0,0.0,0.0,0.0,0.0,0.0,0.0,0.0,0.0,0.0,0.0,0.0,0.0,-1.1692,-1.09,-1.1002,0.0,-0.8551,0.0,0.0,0.0,0.0,0.0,0.0,0.0,0.0,0.0,0.0,0.0,0.0,0.0,0.0,0.0,0.0,0.0,0.0,0.0,0.0,0.0,0.0,0.0,0.0,0.0,0.0,0.0,0.0,0.0,0.0,0.0,0.0,0.0,0.0,0.0,0.0,0.0,0.0,0.0,0.0,0.0,0.0,0.0,0.0,0.0,0.0,0.0,0.0,0.0,0.0,0.0,0.0,0.0,0.0,0.0,0.0,0.0,0.0,0.0,0.0,0.0,0.0,0.0,0.0,0.0,0.0,0.0,0.0,0.0,0.0,0.0,0.0,0.0,0.0,0.0,0.0,0.0,0.0,0.0,0.0,0.0,0.0,0.0,0.0,0.0,0.0,0.0,0.0,0.0,0.0,0.0,0.0,0.0,0.0,0.0,0.0,0.0,0.0,0.0,0.0,0.0,0.0,0.0,0.0,0.0,0.0,0.0,0.0,0.0,0.0,-1.1926,-1.2272,-1.108,-0.9946,0.0,0.0,0.0,0.0,0.0,0.0,0.0,0.0,0.0,0.0,0.0,0.0,0.0,0.0,0.0,0.0,0.0,0.0,0.0,0.0,0.0,0.0,0.0,0.0,0.0,0.0,0.0,0.0,0.0,0.0,0.0,0.0,0.0,0.0,0.0,0.0,0.0,0.0,0.0,0.0,0.0,0.0,0.0,0.0,0.0,0.0,0.0,0.0,0.0,0.0,0.0,0.0,0.0,0.0,0.0,0.0,0.0,0.0,0.0,0.0,0.0,0.0,0.0,0.0,0.0,0.0,0.0,0.0,0.0,0.0,0.0,0.0,0.0,0.0,0.0,0.0,0.0,0.0,0.0,0.0,0.0,0.0,0.0,0.0,0.0,0.0,0.0,0.0,0.0,0.0,0.0,0.0,0.0,0.0,0.0,0.0,0.0,0.0,0.0,0.0,0.0,0.0,0.0,0.0,0.0,0.0,0.0,0.0,0.0,0.0,-1.144,-1.1878,-1.2623,-1.0964,-0.9725,-0.9241,0.0,0.0,0.0,0.0,0.0,0.0,0.0,0.0,0.0,0.0,0.0,0.0,0.0,0.0,0.0,0.0,0.0,0.0,0.0,0.0,0.0,0.0,0.0,0.0,0.0,0.0,0.0,0.0,0.0,0.0,0.0,0.0,0.0,0.0,0.0,0.0,0.0,0.0,0.0,0.0,0.0,0.0,0.0,0.0,0.0,0.0,0.0,0.0,0.0,0.0,0.0,0.0,0.0,0.0,0.0,0.0,0.0,0.0,0.0,0.0,0.0,0.0,0.0,0.0,0.0,0.0,0.0,0.0,0.0,0.0,0.0,0.0,0.0,0.0,0.0,0.0,0.0,0.0,0.0,0.0,0.0,0.0,0.0,0.0,0.0,0.0,0.0,0.0,0.0,0.0,0.0,0.0,0.0,0.0,0.0,0.0,0.0,0.0,0.0,0.0,0.0,0.0,0.0,0.0,0.0,0.0,0.0,0.0,-1.0779,-1.1292,-1.162,-1.1657,-1.0629,-0.9841,0.0,0.0,0.0,0.0,0.0,0.0,0.0,0.0,0.0,0.0,0.0,0.0,0.0,0.0,0.0,0.0,0.0,0.0,0.0,0.0,0.0,0.0,0.0,0.0,0.0,0.0,0.0,0.0,0.0,0.0,0.0,0.0,0.0,0.0,0.0,0.0,0.0,0.0,0.0,0.0,0.0,0.0,0.0,0.0,0.0,0.0,0.0,0.0,0.0,0.0,0.0,0.0,0.0,0.0,0.0,0.0,0.0,0.0,0.0,0.0,0.0,0.0,0.0,0.0,0.0,0.0,0.0,0.0,0.0,0.0,0.0,0.0,0.0,0.0,0.0,0.0,0.0,0.0,0.0,0.0,0.0,0.0,0.0,0.0,0.0,0.0,0.0,0.0,0.0,0.0,0.0,0.0,0.0,0.0,0.0,0.0,0.0,0.0,0.0,0.0,0.0,0.0,0.0,0.0,0.0,0.0,0.0,0.0,0.0,-1.0813,-1.1341,-1.1451,-1.1134,-1.0127,-0.9435,0.0,0.0,0.0,0.0,0.0,0.0,0.0,0.0,0.0,0.0,0.0,0.0,0.0,0.0,0.0,0.0,0.0,0.0,0.0,0.0,0.0,0.0,0.0,0.0,0.0,0.0,0.0,0.0,0.0,0.0,0.0,0.0,0.0,0.0,0.0,0.0,0.0,0.0,0.0,0.0,0.0,0.0,0.0,0.0,0.0,0.0,0.0,0.0,0.0,0.0,0.0,0.0,0.0,0.0,0.0,0.0,0.0,0.0,0.0,0.0,0.0,0.0,0.0,0.0,0.0,0.0,0.0,0.0,0.0,0.0,0.0,0.0,0.0,0.0,0.0,0.0,0.0,0.0,0.0,0.0,0.0,0.0,0.0,0.0,0.0,0.0,0.0,0.0,0.0,0.0,0.0,0.0,0.0,0.0,0.0,0.0,0.0,0.0,0.0,0.0,0.0,0.0,0.0,0.0,0.0,0.0,0.0,0.0,0.0,-1.0506,0.0,-1.1106,-1.067,-0.9886,-0.9307,0.0,0.0,0.0,0.0,0.0,0.0,0.0,0.0,0.0,0.0,0.0,0.0,0.0,0.0,0.0,0.0,0.0,0.0,0.0,0.0,0.0,0.0,0.0,0.0,0.0,0.0,0.0,0.0,0.0,0.0,0.0,0.0,0.0,0.0,0.0,0.0,0.0,0.0,0.0,0.0,0.0,0.0,0.0,0.0,0.0,0.0,0.0,0.0,0.0,0.0,0.0,0.0,0.0,0.0,0.0,0.0,0.0,0.0,0.0,0.0,0.0,0.0,0.0,0.0,0.0,0.0,0.0,0.0,0.0,0.0,0.0,0.0,0.0,0.0,0.0,0.0,0.0,0.0,0.0,0.0,0.0,0.0,0.0,0.0,0.0,0.0,0.0,0.0,0.0,0.0,0.0,0.0,0.0,0.0,0.0,0.0,0.0,0.0,0.0,0.0,0.0,0.0,0.0,0.0,0.0,0.0,0.0,0.0,-0.9781,-0.9728,-1.0355,-1.0534,-1.0198,-0.9915,-0.9523,0.0,0.0,0.0,0.0,0.0,0.0,0.0,0.0,0.0,0.0,0.0,0.0,0.0,0.0,0.0,0.0,0.0,0.0,0.0,0.0,0.0,0.0,0.0,0.0,0.0,0.0,0.0,0.0,0.0,0.0,0.0,0.0,0.0,0.0,0.0,0.0,0.0,0.0,0.0,0.0,0.0,0.0,0.0,0.0,0.0,0.0,0.0,0.0,0.0,0.0,0.0,0.0,0.0,0.0,0.0,0.0,0.0,0.0,0.0,0.0,0.0,0.0,0.0,0.0,0.0,0.0,0.0,0.0,0.0,0.0,0.0,0.0,0.0,0.0,0.0,0.0,0.0,0.0,0.0,0.0,0.0,0.0,0.0,0.0,0.0,0.0,0.0,0.0,0.0,0.0,0.0,0.0,0.0,0.0,0.0,0.0,0.0,0.0,0.0,0.0,0.0,0.0,0.0,0.0,0.0,0.0,0.0,0.0,0.0,-0.9843,-1.0038,-1.0043,-0.9789,-0.9479,-0.9117,0.0,0.0,0.0,0.0,0.0,0.0,0.0,0.0,0.0,0.0,0.0,0.0,0.0,0.0,0.0,0.0,0.0,0.0,0.0,0.0,0.0,0.0,0.0,0.0,0.0,0.0,0.0,0.0,0.0,0.0,0.0,0.0,0.0,0.0,0.0,0.0,0.0,0.0,0.0,0.0,0.0,0.0,0.0,0.0,0.0,0.0,0.0,0.0,0.0,0.0,0.0,0.0,0.0,0.0,0.0,0.0,0.0,0.0,0.0,0.0,0.0,0.0,0.0,0.0,0.0,0.0,0.0,0.0,0.0,0.0,0.0,0.0,0.0,0.0,0.0,0.0,0.0,0.0,0.0,0.0,0.0,0.0,0.0,0.0,0.0,0.0,0.0,0.0,0.0,0.0,0.0,0.0,0.0,0.0,0.0,0.0,0.0,0.0,0.0,0.0,0.0,0.0,0.0,0.0,0.0,0.0,0.0,0.0,0.0,-1.0013,-0.9982,-0.9895,-0.971,-0.939,-0.9157,-0.9067,0.0,0.0,0.0,0.0,0.0,0.0,0.0,0.0,0.0,0.0,0.0,0.0,0.0,0.0,0.0,0.0,0.0,0.0,0.0,0.0,0.0,0.0,0.0,0.0,0.0,0.0,0.0,0.0,0.0,0.0,0.0,0.0,0.0,0.0,0.0,0.0,0.0,0.0,0.0,0.0,0.0,0.0,0.0,0.0,0.0,0.0,0.0,0.0,0.0,0.0,0.0,0.0,0.0,0.0,0.0,0.0,0.0,0.0,0.0,0.0,0.0,0.0,0.0,0.0,0.0,0.0,0.0,0.0,0.0,0.0,0.0,0.0,0.0,0.0,0.0,0.0,0.0,0.0,0.0,0.0,0.0,0.0,0.0,0.0,0.0,0.0,0.0,0.0,0.0,0.0,0.0,0.0,0.0,0.0,0.0,0.0,0.0,0.0,0.0,0.0,0.0,0.0,0.0,0.0,0.0,0.0,0.0,0.0,-1.019,-1.0147,-1.004,-0.9917,-0.958,-0.9591,0.0,0.0,0.0,0.0,0.0,0.0,0.0,0.0,0.0,0.0,0.0,0.0,0.0,0.0,0.0,0.0,0.0,0.0,0.0,0.0,0.0,0.0,0.0,0.0,0.0,0.0,0.0,0.0,0.0,0.0,0.0,0.0,0.0,0.0,0.0,0.0,0.0,0.0,0.0,0.0,0.0,0.0,0.0,0.0,0.0,0.0,0.0,0.0,0.0,0.0,0.0,0.0,0.0,0.0,0.0,0.0,0.0,0.0,0.0,0.0,0.0,0.0,0.0,0.0,0.0,0.0,0.0,0.0,0.0,0.0,0.0,0.0,0.0,0.0,0.0,0.0,0.0,0.0,0.0,0.0,0.0,0.0,0.0,0.0,0.0,0.0,0.0,0.0,0.0,0.0,0.0,0.0,0.0,0.0,0.0,0.0,0.0,0.0,0.0,0.0,0.0,0.0,0.0,0.0,0.0,0.0,0.0,0.0,0.0,-1.0192,-1.0173,-1.0107,-0.9985,-0.9738,-0.9778,0.0,0.0,0.0,0.0,0.0,0.0,0.0,0.0,0.0,0.0,0.0,0.0,0.0,0.0,0.0,0.0,0.0,0.0,0.0,0.0,0.0,0.0,0.0,0.0,0.0,0.0,0.0,0.0,0.0,0.0,0.0,0.0,0.0,0.0,0.0,0.0,0.0,0.0,0.0,0.0,0.0,0.0,0.0,0.0,0.0,0.0,0.0,0.0,0.0,0.0,0.0,0.0,0.0,0.0,0.0,0.0,0.0,0.0,0.0,0.0,0.0,0.0,0.0,0.0,0.0,0.0,0.0,0.0,0.0,0.0,0.0,0.0,0.0,0.0,0.0,0.0,0.0,0.0,0.0,0.0,0.0,0.0,0.0,0.0,0.0,0.0,0.0,0.0,0.0,0.0,0.0,0.0,0.0,0.0,0.0,0.0,0.0,0.0,0.0,0.0,0.0,0.0,0.0,0.0,0.0,0.0,0.0,0.0,-1.0166,-1.0201,-1.0189,-1.0151,-1.0036,-0.9853,-1.0055,0.0,0.0,0.0,0.0,0.0,0.0,0.0,0.0,0.0,0.0,0.0,0.0,0.0,0.0,0.0,0.0,0.0,0.0,0.0,0.0,0.0,0.0,0.0,0.0,0.0,0.0,0.0,0.0,0.0,0.0,0.0,0.0,0.0,0.0,0.0,0.0,0.0,0.0,0.0,0.0,0.0,0.0,0.0,0.0,0.0,0.0,0.0,0.0,0.0,0.0,0.0,0.0,0.0,0.0,0.0,0.0,0.0,0.0,0.0,0.0,0.0,0.0,0.0,0.0,0.0,0.0,0.0,0.0,0.0,0.0,0.0,0.0,0.0,0.0,0.0,0.0,0.0,0.0,0.0,0.0,0.0,0.0,0.0,0.0,0.0,0.0,0.0,0.0,0.0,0.0,0.0,0.0,0.0,0.0,0.0,0.0,0.0,0.0,0.0,0.0,0.0,0.0,0.0,0.0,0.0,0.0,0.0,0.0,-1.0135,-1.0188,-1.0187,-1.0175,-1.01,-0.9917,-1.0309,0.0,0.0,0.0,0.0,0.0,0.0,0.0,0.0,0.0,0.0,0.0,0.0,0.0,0.0,0.0,0.0,0.0,0.0,0.0,0.0,0.0,0.0,0.0,0.0,0.0,0.0,0.0,0.0,0.0,0.0,0.0,0.0,0.0,0.0,0.0,0.0,0.0,0.0,0.0,0.0,0.0,0.0,0.0,0.0,0.0,0.0,0.0,0.0,0.0,0.0,0.0,0.0,0.0,0.0,0.0,0.0,0.0,0.0,0.0,0.0,0.0,0.0,0.0,0.0,0.0,0.0,0.0,0.0,0.0,0.0,0.0,0.0,0.0,0.0,0.0,0.0,0.0,0.0,0.0,0.0,0.0,0.0,0.0,0.0,0.0,0.0,0.0,0.0,0.0,0.0,0.0,0.0,0.0,0.0,0.0,0.0,0.0,0.0,0.0,0.0,0.0,0.0,0.0,0.0,0.0,0.0,0.0,0.0,-1.0094,-1.0138,-1.0185,-1.0189,-1.0186,-0.9986,-1.0143,0.0,0.0,0.0,0.0,0.0,0.0,0.0,0.0,0.0,0.0,0.0,0.0,0.0,0.0,0.0,0.0,0.0,0.0,0.0,0.0,0.0,0.0,0.0,0.0,0.0,0.0,0.0,0.0,0.0,0.0,0.0,0.0,0.0,0.0,0.0,0.0,0.0,0.0,0.0,0.0,0.0,0.0,0.0,0.0,0.0,0.0,0.0,0.0,0.8549,0.0,0.0,0.0,0.0,0.0,0.0,0.0,0.0,0.0,0.0,0.0,0.0,0.0,0.0,0.0,0.0,0.0,0.0,0.0,0.0,0.0,0.0,0.0,0.0,0.0,0.0,0.0,0.0,0.0,0.0,0.0,0.0,0.0,0.0,0.0,0.0,0.0,0.0,0.0,0.0,0.0,0.0,0.0,0.0,0.0,0.0,0.0,0.0,0.0,0.0,0.0,0.0,0.0,0.0,0.0,0.0,0.0,0.0,0.0,-1.0077,-1.0098,-0.977,-0.9793,-1.0169,-0.9639,-0.9719,0.0,0.0,0.0,0.0,0.0,0.0,0.0,0.0,0.0,0.0,0.0,0.0,0.0,0.0,0.0,0.0,0.0,0.0,0.0,0.0,0.0,0.0,0.0,0.0,0.0,0.0,0.0,0.0,0.0,0.0,0.0,0.0,0.0,0.0,0.0,0.0,0.0,0.0,0.0,0.0,0.0,0.0,0.0,0.0,0.0,0.0,0.0,0.0,0.0,0.0,0.0,0.0,0.0,0.0,0.0,0.0,0.0,0.0,0.0,0.0,0.0,0.0,0.0,0.0,0.0,0.0,0.0,0.0,0.0,0.0,0.0,0.0,0.0,0.0,0.0,0.0,0.0,0.0,0.0,0.0,0.0,0.0,0.0,0.0,0.0,0.0,0.0,0.0,0.0,0.0,0.0,0.0,0.0,0.0,0.0,0.0,0.0,0.0,0.0,0.0,0.0,0.0,0.0,0.0,0.0,0.0,0.0,-0.9927,-0.9972,-0.9889,-0.9245,-0.9204,-0.9778,-0.9085,-0.9177,-1.0203,0.0,0.0,0.0,0.0,0.0,0.0,0.0,0.0,0.0,0.0,0.0,0.0,0.0,0.0,0.0,0.0,0.0,0.0,0.0,0.0,0.0,0.0,0.0,0.0,0.0,0.0,0.0,0.0,0.0,0.0,0.0,0.0,0.0,0.0,0.0,0.0,0.0,0.0,0.2909,0.4229,0.0,0.0,0.0,0.0,0.0,0.0,0.0,0.0,0.8174,0.0,0.0,0.0,0.0,0.0,0.0,0.0,0.0,0.0,0.0,0.0,0.0,0.0,0.0,0.0,0.0,0.0,0.0,0.0,0.0,0.0,0.0,0.0,0.0,0.0,0.0,0.0,0.0,0.0,0.0,0.0,0.0,0.0,0.0,0.0,0.0,0.0,0.0,0.0,0.0,0.0,0.0,0.0,0.0,0.0,0.0,0.0,0.0,0.0,0.0,0.0,0.0,0.0,0.0,0.0,0.0,-0.98,-0.9946,-0.9682,-0.9049,-0.8934,-0.8621,-0.8077,-0.8463,-0.8716,-0.8818,0.0,0.0,0.0,0.0,0.0,0.0,0.0,0.0,0.0,0.0,0.0,0.0,0.0,0.0,0.0,0.0,0.0,0.0,0.0,0.0,0.0,0.0,0.0,0.0,0.0,0.0,0.0,0.0,0.0,0.0,0.0,0.0,0.0,0.0,0.0,0.0,0.0,0.0,0.0,0.4165,0.4928,0.0,0.0,0.0,0.0,0.0,0.0,0.0,0.0,0.7753,0.0,0.0,0.0,0.0,0.0,0.0,0.0,0.0,0.0,0.0,0.0,0.0,0.0,0.0,0.0,0.0,0.0,0.0,0.0,0.0,0.0,0.0,0.0,0.0,0.0,0.0,0.0,0.0,0.0,0.0,0.0,0.0,0.0,0.0,0.0,0.0,0.0,0.0,0.0,0.0,0.0,0.0,0.0,0.0,0.0,0.0,0.0,0.0,0.0,0.0,0.0,0.0,0.0,0.0,0.0,-0.9731,-0.9457,-0.9153,-0.8781,-0.8017,-0.7594,-0.7601,-0.7877,-0.8139,0.0,0.0,0.0,0.0,0.0,0.0,0.0,0.0,0.0,0.0,0.0,0.0,0.0,0.0,0.0,0.0,0.0,0.0,0.0,0.0,0.0,0.0,0.0,0.0,0.0,0.0,0.0,0.0,0.0,0.0,0.0,0.0,0.0,0.0,0.0,0.0,0.0,0.0,0.0,0.0,0.3703,0.4188,0.4623,0.0,0.0,0.0,0.0,0.0,0.0,0.6813,0.6898,0.0,0.0,0.0,0.0,0.0,0.0,0.0,0.0,0.0,0.0,0.0,0.0,0.0,0.0,0.0,0.0,0.0,0.0,0.0,0.0,0.0,0.0,0.0,0.0,0.0,0.0,0.0,0.0,0.0,0.0,0.0,0.0,0.0,0.0,0.0,0.0,0.0,0.0,0.0,0.0,0.0,0.0,0.0,0.0,0.0,0.0,0.0,0.0,0.0,0.0,0.0,0.0,0.0,0.0,0.0,-0.9642,-0.9214,-0.8932,-0.8777,-0.7561,-0.7128,-0.7595,-0.7627,-0.7908,0.0,0.0,0.0,0.0,0.0,0.0,0.0,0.0,0.0,0.0,0.0,0.0,0.0,0.0,0.0,0.0,0.0,0.0,0.0,0.0,0.0,0.0,0.0,0.0,0.0,0.0,0.0,0.0,0.0,0.0,0.0,0.0,0.0,0.0,0.0,0.0,0.0,0.0,0.0,0.0,0.0,0.3489,0.398,0.4196,0.0,0.0,0.0,0.0,0.5561,0.5887,0.0,0.0,0.0,0.0,0.0,0.0,0.0,0.0,0.0,0.0,0.0,0.0,0.0,0.0,0.0,0.0,0.0,0.0,0.0,0.0,0.0,0.0,0.0,0.0,0.0,0.0,0.0,0.0,0.0,0.0,0.0,0.0,0.0,0.0,0.0,0.0,0.0,0.0,0.0,0.0,0.0,0.0,0.0,0.0,0.0,0.0,0.0,0.0,0.0,0.0,0.0,0.0,0.0,0.0,0.0,0.0,-0.9601,-0.9778,-0.9546,-0.8927,-0.87,-0.8281,-0.7633,-0.8213,-0.8528,0.0,0.0,0.0,0.0,0.0,0.0,0.0,0.0,0.0,0.0,0.0,0.0,0.0,0.0,0.0,0.0,0.0,0.0,0.0,0.0,0.0,0.0,0.0,0.0,0.0,0.0,0.0,0.0,0.0,0.0,0.0,0.0,0.0,0.0,0.0,0.0,0.0,0.0,0.0,0.0,0.0,0.2926,0.29,0.3348,0.3798,0.0,0.0,0.5294,0.5406,0.5714,0.0,0.0,0.0,0.0,0.0,0.0,0.0,0.0,0.0,0.0,0.0,0.0,0.0,0.0,0.0,0.0,0.0,0.0,0.0,0.0,0.0,0.0,0.0,0.0,0.0,0.0,0.0,0.0,0.0,0.0,0.0,0.0,0.0,0.0,0.0,0.0,0.0,0.0,0.0,0.0,0.0,0.0,0.0,0.0,0.0,0.0,0.0,0.0,0.0,0.0,0.0,0.0,0.0,0.0,0.0,-0.9614,-0.9533,-0.9348,-0.9164,-0.8908,-0.8467,-0.8026,-0.7606,-0.8353,-0.8699,0.0,0.0,0.0,0.0,0.0,0.0,0.0,0.0,0.0,0.0,0.0,0.0,0.0,0.0,0.0,0.0,0.0,0.0,0.0,0.0,0.0,0.0,0.0,0.0,0.0,0.0,0.0,0.0,0.0,0.0,0.0,0.0,0.0,0.0,0.0,0.0,0.0,0.0,0.0,0.0,0.0,0.0,0.1949,0.2063,0.0,0.0,0.0,0.3998,0.4342,0.0,0.0,0.0,0.0,0.0,0.0,0.0,0.0,0.0,0.0,0.0,0.0,0.0,0.0,0.0,0.0,0.0,0.0,0.0,0.0,0.0,0.0,0.0,0.0,0.0,0.0,0.0,0.0,0.0,0.0,0.0,0.0,0.0,0.0,0.0,0.0,0.0,0.0,0.0,0.0,0.0,0.0,0.0,0.0,0.0,0.0,0.0,0.0,0.0,0.0,0.0,0.0,0.0,0.0,0.0,0.0,0.0,-0.9484,-0.917,-0.9062,-0.916,-0.8622,-0.8292,-0.826,-0.883,0.0,0.0,0.0,0.0,0.0,0.0,0.0,0.0,0.0,0.0,0.0,0.0,0.0,0.0,0.0,0.0,0.0,0.0,0.0,0.0,0.0,0.0,0.0,0.0,0.0,0.0,0.0,-0.3418,0.0,0.0,0.0,0.0,0.0,0.0,0.0,0.0,0.0,0.0,0.0,0.0,0.0,0.0,0.1476,0.1002,0.0725,0.0897,0.0,0.0,0.2909,0.3565,0.4011,0.4374,0.0,0.0,0.0,0.0,0.0,0.0,0.0,0.0,0.0,0.0,0.0,0.0,0.0,0.0,0.0,0.0,0.0,0.0,0.0,0.0,0.0,0.0,0.0,0.0,0.0,0.0,0.0,0.0,0.0,0.0,0.0,0.0,0.0,0.0,0.0,0.0,0.0,0.0,0.0,0.0,0.0,0.0,0.0,0.0,0.0,0.0,0.0,0.0,0.0,0.0,0.0,0.0,0.0,0.0,0.0,-0.9419,-0.9679,-0.987,-1.002,-0.9971,-0.9975,-1.0015,-1.0016,-0.9973,0.0,0.0,0.0,0.0,0.0,0.0,0.0,0.0,0.0,0.0,0.0,0.0,0.0,0.0,0.0,0.0,0.0,0.0,0.0,0.0,0.0,0.0,0.0,0.0,0.0,0.0,0.0,0.0,0.0,0.0,0.0,0.0,0.0,0.0,0.0,0.0,0.0,0.0,0.0,0.0,0.0,0.0696,0.0,-0.0543,-0.0175,0.0,0.0,0.2483,0.3685,0.4216,0.4586,0.4846,0.0,0.0,0.0,0.0,0.0,0.0,0.0,0.0,0.0,0.0,0.0,0.0,0.0,0.0,0.0,0.0,0.0,0.0,0.0,0.0,0.0,0.0,0.0,0.0,0.0,0.0,0.0,0.0,0.0,0.0,0.0,0.0,0.0,0.0,0.0,0.0,0.0,0.0,0.0,0.0,0.0,0.0,0.0,0.0,0.0,0.0,0.0,0.0,0.0,0.0,0.0,0.0,0.0,-0.9958,-0.9341,-0.9661,-0.9897,-1.0044,-1.0075,-1.0105,-1.0139,-1.0172,-1.0132,0.0,0.0,0.0,0.0,0.0,0.0,0.0,0.0,0.0,0.0,0.0,0.0,0.0,0.0,0.0,0.0,0.0,0.0,0.0,0.0,0.0,0.0,0.0,0.0,0.0,0.0,0.0,0.0,-0.1723,0.001,0.1511,0.0,0.0,0.0,0.0,0.0,0.0,0.0,0.0,0.0,0.0,-0.1059,-0.1659,-0.1947,0.0,0.0,0.1146,0.2029,0.3533,0.4008,0.4444,0.5095,0.5383,0.0,0.0,0.0,0.0,0.0,0.0,0.0,0.0,0.0,0.0,0.0,0.0,0.0,0.0,0.0,0.0,0.0,0.0,0.0,0.0,0.0,0.0,0.0,0.0,0.0,0.0,0.0,0.0,0.0,0.0,0.0,0.0,0.0,0.0,0.0,0.0,0.0,0.0,0.0,0.0,0.0,0.0,0.0,0.0,0.0,0.0,0.0,0.0,0.0,0.0,0.0,0.0,-1.0199,-0.9574,-0.9691,-0.9832,-0.9974,-1.0039,-1.0067,-1.0099,-1.0137,-1.017,0.0,0.0,0.0,0.0,0.0,0.0,0.0,0.0,0.0,0.0,0.0,0.0,0.0,0.0,0.0,0.0,0.0,0.0,0.0,0.0,0.0,0.0,0.0,0.0,0.0,0.0,0.0,0.0,-0.2488,-0.0589,0.1193,0.0,0.0,0.0,0.0,0.0,0.0,0.0,0.0,0.0,0.0,-0.2408,-0.3206,-0.3294,-0.2521,-0.0469,0.0449,0.1536,0.3298,0.3859,0.4349,0.5141,0.0,0.0,0.0,0.0,0.0,0.0,0.0,0.0,0.0,0.0,0.0,0.0,0.0,0.0,0.0,0.0,0.0,0.0,0.0,0.0,0.0,0.0,0.0,0.0,0.0,0.0,0.0,-1.0626,0.0,0.0,-1.1631,0.0,0.0,0.0,0.0,0.0,0.0,0.0,0.0,0.0,0.0,0.0,0.0,0.0,0.0,0.0,0.0,0.0,0.0,0.0,0.0,0.0,0.0,-1.0319,-1.018,-0.985,-0.9766,-0.9906,-0.9961,-1.0043,-1.0097,-1.0106,-1.0131,-1.0191,0.0,0.0,0.0,0.0,0.0,0.0,0.0,0.0,0.0,0.0,0.0,0.0,0.0,0.0,0.0,0.0,0.0,0.0,0.0,0.0,0.0,0.0,0.0,0.0,0.0,0.0,-0.4934,-0.2856,-0.1023,0.0,0.0,0.0,0.0,0.0,0.0,0.0,0.0,0.0,0.0,-0.2222,-0.3123,-0.4529,-0.4467,-0.3321,-0.0703,0.0047,0.1017,0.2988,0.3806,0.4381,0.0,0.0,0.0,0.0,0.0,0.0,0.0,0.0,0.0,0.0,0.0,0.0,0.0,0.0,0.0,0.0,0.0,0.0,0.0,0.0,0.0,0.0,0.0,0.0,0.0,0.0,0.0,-1.1715,-1.2175,0.0,0.0,0.0,0.0,0.0,0.0,0.0,0.0,0.0,0.0,0.0,-1.1637,-1.1601,0.0,0.0,0.0,0.0,0.0,0.0,0.0,0.0,0.0,0.0,0.0,0.0,-1.0371,-1.0204,-0.9816,-0.9688,-0.9842,-0.9906,-0.9971,-1.0034,-1.0063,-1.0127,-1.0193,0.0,0.0,0.0,0.0,0.0,0.0,0.0,0.0,0.0,0.0,0.0,0.0,0.0,0.0,0.0,0.0,0.0,0.0,0.0,0.0,0.0,0.0,0.0,0.0,0.0,-0.578,0.0,0.0,0.0,0.0,0.0,0.0,0.0,0.0,0.0,0.0,0.0,-0.0956,-0.1989,-0.3172,-0.416,-0.4782,-0.4727,-0.3902,0.0,0.0,0.0,0.0,0.0,0.0,0.0,0.0,0.0,0.0,0.0,0.0,0.0,0.0,1.0983,1.2262,1.2396,1.2143,1.1679,0.0,0.0,0.0,0.0,0.0,0.0,0.0,0.0,0.0,0.0,0.0,0.0,0.0,0.0,-1.2598,0.0,-1.3586,0.0,0.0,0.0,0.0,0.0,0.0,0.0,0.0,-1.1638,-1.1601,-1.1593,-1.1601,-1.1608,0.0,-1.1652,-1.1534,0.0,0.0,0.0,0.0,0.0,0.0,0.0,0.0,-1.0562,-1.0526,-1.0172,-0.9916,-0.9784,-1.0117,-1.0188,-0.9984,-1.0044,-1.0124,-1.0186,-1.0155,-1.01,0.0,0.0,0.0,0.0,0.0,0.0,0.0,0.0,0.0,0.0,0.0,0.0,0.0,0.0,0.0,0.0,0.0,0.0,0.0,0.0,0.0,0.0,0.0,-0.5376,0.0,0.0,0.0,0.0,0.0,0.0,0.0,0.0,0.0,0.0437,-0.0903,-0.225,-0.2894,-0.3916,-0.4674,-0.4838,0.0,0.0,0.0,0.0,0.0,0.0,0.0,0.4265,0.5982,0.659,0.7359,0.8959,0.9376,0.9709,1.0329,0.0,0.0,1.1549,1.1638,1.1358,1.0915,1.0851,1.0694,1.0148,1.003,1.002,0.0,0.0,0.0,0.0,0.0,0.0,0.0,0.0,-1.2471,-1.2788,0.0,-1.3909,0.0,0.0,0.0,0.0,0.0,-1.2769,0.0,0.0,-1.1652,-1.1622,-1.1637,-1.1623,-1.1637,-1.1703,-1.1747,-1.1768,-1.1768,-1.1541,0.0,0.0,0.0,0.0,0.0,0.0,-1.0912,-1.1229,-1.0897,-1.0413,-0.9856,-1.0624,-1.0688,-0.9987,-1.003,-1.0135,-1.0202,-1.0187,-1.0171,-1.0103,-1.004,0.0,0.0,0.0,0.0,0.0,0.0,0.0,0.0,0.0,0.0,0.0,0.0,0.0,0.0,0.0,0.0,0.0,0.0,0.0,0.0,-0.524,0.0,0.0,0.0,0.0,0.0,0.0,0.0,0.0,0.0,0.0,-0.2598,-0.2354,-0.2789,-0.4124,0.0,0.0,0.0,0.0,-0.4468,-0.3544,-0.2354,-0.0917,0.0849,0.2345,0.3871,0.5495,0.0,0.0,0.9295,0.9505,0.947,0.9566,0.965,1.0,1.0957,1.0586,1.011,1.0128,1.0154,1.0115,1.0103,1.0113,1.0101,-0.9109,0.0,0.0,0.0,0.0,-1.1117,-1.1726,-1.2354,-1.2875,-1.3306,-1.3722,-1.4132,0.0,0.0,0.0,0.0,0.0,0.0,-1.3349,-1.2675,-1.2279,-1.2125,-1.2158,-1.1776,-1.163,-1.1681,-1.1725,-1.1747,-1.1826,-1.182,-1.182,-1.1762,0.0,0.0,0.0,0.0,-1.1709,-1.2015,-1.1682,-1.1409,-1.1267,-1.1654,-1.1538,-1.0841,-1.0304,-1.0046,-1.0141,-1.0172,-1.0191,-1.0166,-1.0103,0.0,0.0,0.0,0.0,0.0,0.0,0.0,0.0,0.0,0.0,0.0,0.0,0.0,0.0,0.0,0.0,0.0,0.0,0.0,-0.5445,-0.5453,-0.5743,0.0,0.0,0.0,0.0,0.0,0.0,0.0,0.0,0.0,-0.5177,-0.4389,-0.4109,0.0,0.0,-0.4786,-0.4846,-0.4877,-0.4647,-0.3974,-0.307,0.0,-0.0579,0.1696,0.3708,0.4892,0.6797,0.8303,0.8684,0.8812,0.8905,0.9066,0.9273,0.9564,1.001,1.0137,1.0098,1.0149,1.0176,1.0183,1.0176,1.0183,1.0163,-1.013,-0.9874,-0.9793,-1.0144,-1.0743,-1.1509,-1.2042,-1.2464,-1.325,-1.3629,-1.3741,-1.4145,-1.4378,-1.4543,-1.4732,0.0,0.0,0.0,-1.3643,-1.3047,-1.273,-1.2635,-1.2722,-1.2434,-1.2341,-1.242,-1.2467,-1.2528,-1.2598,-1.2735,-1.2651,-1.2436,0.0,0.0,-1.2594,-1.2163,-1.209,-1.2376,-1.2275,-1.2103,-1.1873,-1.2076,-1.2025,-1.1643,-1.0892,-1.0491,-1.0558,-1.0299,-1.0167,-1.0195,-1.0154,-1.0096,0.0,0.0,0.0,0.0,0.0,0.0,0.0,0.0,0.0,0.0,0.0,-0.9472,-0.9591,0.0,0.0,0.0,-0.718,-0.6216,-0.547,-0.582,0.0,0.0,0.0,0.0,0.0,0.0,0.0,-0.8234,-0.7835,-0.7226,-0.6367,-0.567,-0.5146,-0.4921,-0.4864,-0.4855,-0.493,0.0,-0.4801,-0.4392,-0.3698,-0.2823,-0.1753,0.0083,0.1983,0.3743,0.5901,0.7419,0.7527,0.771,0.7926,0.8251,0.8594,0.899,0.9375,0.9701,0.9966,1.0114,1.0175,1.0209,1.0221,1.0248,1.0254,-1.1444,-1.1501,-1.069,-1.0669,-1.1195,-1.2181,-1.2677,-1.2858,-1.3593,-1.3826,-1.3679,-1.4013,-1.423,-1.4332,-1.4543,0.0,-1.3758,-1.3835,-1.3585,-1.3121,-1.312,-1.3187,-1.3351,-1.3318,-1.3382,-1.3498,-1.3642,-1.3734,-1.3769,-1.3905,-1.3733,-1.3281,-1.2806,-1.2653,-1.2759,-1.2322,-1.2223,-1.251,-1.2759,-1.2618,-1.2023,-1.2195,-1.2343,-1.2378,-1.1681,-1.1301,-1.1261,-1.0599,-1.019,-1.0198,-1.0194,-1.0158,-1.0108,0.0,0.0,0.0,0.0,0.0,0.0,0.0,0.0,0.0,0.0,0.0,0.0,0.0,0.0,0.0,-0.6141,0.0,-0.6236,-0.6375,0.0,0.0,0.0,-0.9117,-0.9828,-0.9984,-0.9699,-0.8883,0.0,0.0,-0.6702,-0.6307,-0.5934,-0.5197,-0.4994,-0.4941,-0.501,-0.5005,-0.4919,-0.473,-0.4243,-0.3629,-0.2921,-0.1959,-0.0368,0.232,0.4294,0.5537,0.5893,0.6251,0.6648,0.7157,0.7698,0.8307,0.8916,0.9299,0.968,0.9989,1.0131,1.0228,1.0254,1.029,1.0301,-1.1746,-1.1981,-1.1941,-1.1931,-1.1957,-1.2583,-1.3092,-1.3574,-1.3839,-1.4053,-1.413,-1.4079,-1.4124,-1.43,-1.4351,-1.4347,-1.4241,-1.4294,-1.4318,-1.427,-1.3939,-1.3799,-1.3884,-1.3494,-1.3371,-1.3472,-1.3539,-1.3616,-1.3719,-1.3795,-1.3894,-1.3944,-1.3945,-1.359,-1.2897,-1.2917,-1.3009,-1.3235,-1.3497,-1.3681,-1.3756,-1.3288,-1.3094,-1.3197,-1.2507,-1.1834,-1.1245,-1.1096,-1.0749,-1.0159,-1.0167,-1.0173,-1.0109,-1.0075,0.0,0.0,0.0,0.0,0.0,0.0,0.0,0.0,0.0,-0.985,-0.9861,0.0,-0.9568,0.0,-0.7518,-0.7007,-0.7232,-0.7854,0.0,0.0,-0.9421,-0.9925,-1.0096,-1.0151,-1.004,-0.9797,-0.9206,-0.8627,-0.8178,-0.7006,-0.6132,-0.5939,-0.5379,-0.4972,-0.4997,-0.5014,-0.499,-0.4902,-0.4731,-0.4596,-0.4549,-0.3184,-0.1184,0.1511,0.2565,0.3231,0.3797,0.4401,0.5064,0.5887,0.6731,0.7514,0.8274,0.888,0.9393,0.9729,1.0005,1.0201,1.0224,1.0272,1.0312,-1.2144,-1.237,-1.2666,-1.2907,-1.3022,-1.3441,-1.3811,-1.4193,-1.456,-1.4588,-1.4287,-1.4098,-1.4098,-1.43,-1.43,-1.4319,-1.4365,-1.4401,-1.4529,-1.461,-1.4412,-1.4363,-1.4438,-1.417,-1.4126,-1.4267,-1.4335,-1.4391,-1.45,-1.4624,-1.4675,-1.4652,-1.4834,-1.4565,-1.39,-1.375,-1.3801,-1.4023,-1.3994,-1.4105,-1.4338,-1.3977,-1.3856,-1.3967,-1.3281,-1.2705,-1.2283,-1.1623,-1.1058,-1.0656,-1.0358,-1.0168,-1.0095,-1.0123,-1.0119,0.0,0.0,0.0,0.0,0.0,0.0,0.0,0.0,0.0,0.0,0.0,-0.9729,-0.8925,-0.8086,-0.7743,-0.8148,-0.8632,-0.9099,-0.9447,-0.9901,-1.0194,-1.0198,-1.0187,-1.0154,-1.0097,-0.9643,-0.9168,-0.8749,-0.7862,-0.7116,-0.6733,-0.5993,-0.5373,-0.5073,-0.4998,-0.5003,-0.5003,-0.5237,-0.5598,-0.6052,-0.4594,-0.2826,-0.1174,-0.0018,0.0912,0.18,0.2678,0.3629,0.4763,0.5809,0.6801,0.7711,0.8504,0.9134,0.9566,0.991,1.0112,1.018,1.0262,1.0311,-1.2529,-1.2764,-1.3132,-1.3563,-1.4057,-1.4408,-1.4654,-1.4787,-1.5401,-1.5233,-1.4475,-1.4238,-1.4218,-1.4409,-1.4327,-1.43,-1.4332,-1.4383,-1.4465,-1.4547,-1.4655,-1.4777,-1.4887,-1.4966,-1.5058,-1.5222,-1.5314,-1.5433,-1.5507,-1.5668,-1.5626,-1.536,-1.551,-1.5535,-1.5343,-1.4841,-1.4697,-1.4882,-1.4559,-1.4432,-1.4456,-1.452,-1.4561,-1.4571,-1.3967,-1.3617,-1.3549,-1.2237,-1.1458,-1.1402,-1.0718,-1.0307,-1.0254,-1.021,-1.0156,0.0,-1.0159,0.0,0.0,0.0,0.0,0.0,0.0,0.0,0.0,-1.0108,-0.9825,-0.9118,-0.8438,-0.8317,-0.9007,-0.9134,-0.9451,-1.0117,-1.0192,-1.0197,-1.0193,-1.0197,-1.0147,-1.01,-1.0039,-0.9679,-0.8988,-0.8714,-0.8282,-0.756,-0.6743,-0.6054,-0.5445,-0.527,-0.5244,-0.5256,-0.5946,-0.664,-0.6825,-0.5994,-0.496,-0.4185,-0.2699,-0.1241,-0.0021,0.1124,0.2377,0.3769,0.5016,0.6186,0.7257,0.8184,0.8922,0.9471,0.98,1.0027,1.0161,1.0248,1.0287,-1.2861,-1.2977,-1.3467,-1.3952,-1.4384,-1.4789,-1.5129,-1.5448,-1.5612,-1.5636,-1.5475,-1.4963,-1.4835,-1.4979,-1.4504,-1.4332,-1.4397,-1.4465,-1.4547,-1.4669,-1.4732,-1.4808,-1.4902,-1.4951,-1.5072,-1.5178,-1.5268,-1.5388,-1.5507,-1.561,-1.5752,-1.601,-1.6222,-1.6447,-1.6694,0.0,0.0,0.0,-1.5965,-1.5741,-1.5289,-1.5327,-1.5087,-1.4533,-1.4444,0.0,-1.3457,-1.3187,-1.2777,-1.2126,-1.1407,0.0,0.0,0.0,0.0,0.0,0.0,0.0,0.0,0.0,0.0,0.0,-1.0253,-1.0259,-1.019,-1.0183,-1.0118,-0.9976,-0.9867,-0.9875,-1.0018,-1.0059,-1.0116,-1.0247,-1.0235,-1.0191,-1.0202,-1.0141,-1.0086,-1.003,-0.9955,-0.9861,-0.9643,-0.9071,-0.8545,-0.8273,-0.7529,-0.6978,-0.682,-0.6274,-0.6168,-0.6752,-0.7316,-0.7632,-0.7348,-0.7113,-0.648,-0.5601,-0.4345,-0.2913,-0.1494,-0.0086,0.1349,0.291,0.4401,0.5809,0.7031,0.7994,0.8825,0.9389,0.9732,0.9968,1.016,1.0213,1.024,-1.3194,-1.3218,-1.3716,-1.415,0.0,-1.5108,-1.5457,-1.5812,-1.6015,-1.6109,-1.6153,-1.5594,-1.5452,-1.5616,-1.5006,-1.4801,-1.482,-1.4589,-1.4578,-1.4714,-1.4763,-1.4839,-1.4871,-1.4932,-1.5025,-1.5102,-1.5208,-1.5343,-1.5522,-1.5566,-1.5812,-1.6194,-1.6409,-1.6701,-1.7092,-1.7192,-1.6881,-1.6151,-1.6321,-1.627,-1.5998,-1.5669,-1.5337,-1.5019,-1.4659,0.0,0.0,0.0,0.0,0.0,0.0,0.0,0.0,-1.0884,0.0,-1.019,-1.018,-1.0218,-1.0249,-1.0253,-1.0254,-1.0293,-1.0312,-1.0289,-1.0254,-1.0258,-1.0264,-1.0249,-1.0292,-1.0312,-1.0311,-1.0287,-1.0257,-1.0259,-1.0222,-1.0197,-1.0161,-1.0117,-1.0086,-1.001,-0.9952,-0.9894,-0.9863,-0.9493,-0.918,-0.9065,-0.8339,-0.7908,-0.8137,-0.736,-0.6925,-0.7615,-0.7858,-0.8048,-0.7989,-0.7688,-0.7239,-0.6218,-0.5065,-0.3779,-0.2436,-0.0838,0.0881,0.2761,0.4263,0.5598,0.6875,0.7934,0.8782,0.9321,0.9681,0.9949,1.0141,1.0185,1.0215,-1.3601,-1.3628,-1.3958,-1.4326,-1.4789,-1.5334,-1.5736,-1.612,0.0,0.0,0.0,-1.6182,-1.6056,-1.6227,-1.5616,-1.5414,-1.5442,-1.5048,-1.4856,-1.4882,-1.4914,-1.4903,-1.4808,-1.4868,-1.4916,-1.4996,-1.5147,-1.5284,-1.5492,-1.5595,-1.5812,-1.6179,-1.6394,-1.6753,-1.7175,-1.771,-1.748,-1.655,-1.6677,-1.6758,-1.6677,-1.5983,-1.5554,-1.5506,-1.4774,-1.4387,-1.4362,-1.3875,-1.3571,-1.3538,-1.2881,-1.2202,-1.1638,-1.1408,-1.0971,-1.0371,-1.0212,-1.0195,-1.0201,-1.0191,-1.0219,-1.0285,-1.0287,-1.0291,-1.0291,-1.0312,-1.0293,-1.0273,-1.0289,-1.0283,-1.0276,-1.0245,-1.0187,-1.02,-1.0199,-1.0173,-1.0109,-1.0091,-1.0044,-0.9987,-0.9923,-0.985,-0.981,-0.9743,-0.9754,-0.9599,-0.9023,-0.877,-0.9158,-0.8373,-0.7806,-0.8245,-0.8276,-0.8217,-0.8354,-0.7984,-0.731,-0.6466,-0.5375,-0.4191,-0.2814,-0.1183,0.0749,0.2819,0.426,0.5569,0.6872,0.7947,0.8765,0.9312,0.9681,0.9968,1.0154,1.02,1.0212,-1.4033,-1.4338,-1.437,-1.4558,-1.4903,-1.5435,-1.6013,-1.659,-1.6748,-1.705,-1.733,-1.6757,-1.6621,-1.6837,-1.6254,-1.6005,-1.6072,-1.6123,-1.591,-1.551,-1.5547,-1.5301,-1.4822,-1.4868,-1.4913,-1.493,-1.51,-1.5254,-1.5433,-1.5654,-1.5913,-1.6194,-1.6463,-1.685,-1.7415,-1.7749,-1.7915,-1.7904,-1.8148,-1.8002,-1.7449,-1.6729,-1.6052,-1.5506,-1.4741,-1.4319,-1.4319,-1.4265,-1.4259,-1.424,-1.3566,-1.313,-1.3068,-1.1854,-1.1093,-1.1016,-1.0458,-1.0154,-1.0197,-1.0195,-1.0189,-1.022,-1.0203,-1.0233,-1.0309,-1.0308,-1.0287,-1.0223,-1.0217,-1.0208,-1.0207,-1.0215,-1.02,-1.019,-1.0143,-1.0109,-1.0105,-1.0044,-0.9979,-0.9923,-0.985,-0.9818,-0.9768,-0.9703,-0.9623,-0.9593,-0.9354,-0.9304,-0.9269,-0.9162,-0.8983,-0.8947,-0.8801,-0.8604,-0.8345,-0.7879,-0.7201,-0.6427,-0.5394,-0.4155,-0.2756,-0.1052,0.0748,0.2501,0.4138,0.5659,0.703,0.8036,0.8767,0.9344,0.975,1.0025,1.0161,1.02,1.0229,-1.4563,-1.4513,-1.472,-1.4849,-1.5062,-1.5703,-1.6287,-1.6803,-1.6876,-1.7115,-1.7435,-1.7223,-1.725,-1.7434,-1.6851,-1.6631,-1.6678,-1.6409,-1.6178,-1.5993,-1.6009,-1.573,-1.5268,-1.5272,-1.5165,-1.493,-1.5056,-1.5179,-1.5418,-1.5683,-1.5957,-1.6222,-1.6623,-1.7018,-1.7432,-1.7676,-1.7932,-1.8151,-1.8403,-1.8404,-1.8055,-1.6973,-1.6255,-1.5929,-1.4795,-1.4163,-1.419,-1.426,-1.4312,-1.4349,-1.407,-1.3717,-1.3293,-1.227,-1.1536,-1.1163,-1.0453,-1.0065,-1.0152,-1.0196,-1.02,-1.0193,-1.0193,-1.0219,-1.0258,-1.0245,-1.0226,-1.0199,-1.0189,-1.0195,-1.0191,-1.0199,-1.0183,-1.0144,-1.0125,-1.0095,-1.0049,-0.9979,-0.9929,-0.9857,-0.9811,-0.9775,-0.9703,-0.9641,-0.9577,-0.9553,-0.9457,-0.9284,-0.9222,-0.9106,-0.9036,-0.899,-0.8779,-0.8489,-0.8185,-0.7665,-0.698,-0.6205,-0.516,-0.3932,-0.2505,-0.0812,0.0976,0.264,0.4088,0.5539,0.7083,0.7828,0.8516,0.9385,0.9794,1.002,1.0145,1.0226,1.0259,-1.5106,-1.494,-1.5213,-1.537,-1.5463,-1.5973,-1.6448,-1.6888,-1.6888,-1.7128,-1.7447,-1.7475,-1.7652,-1.7828,-1.7394,-1.7229,-1.7213,-1.6801,-1.6537,-1.6481,-1.6525,-1.6255,-1.5777,-1.5645,-1.5381,-1.5065,-1.4989,-1.5088,-1.5374,-1.5624,-1.5926,-1.6274,-1.6738,-1.7117,-1.7401,-1.7602,-1.7822,-1.807,-1.8322,-1.8445,-1.845,-1.7188,-1.6464,-1.6198,-1.4973,-1.4218,-1.4104,-1.4119,-1.419,-1.4247,-1.4319,-1.4083,-1.3472,-1.2796,-1.2121,-1.1379,-1.0646,-1.02,-1.0095,-1.0152,-1.0164,-1.0177,-1.0196,-1.0157,-1.0199,-1.0175,-1.0185,-1.02,-1.0191,-1.0196,-1.0177,-1.0159,-1.016,-1.01,-1.0082,-1.0059,-1.0009,-0.9941,-0.9888,-0.9806,-0.9808,-0.9725,-0.9631,-0.9585,-0.9518,-0.9421,-0.9292,-0.9146,-0.9022,-0.8863,-0.8795,-0.8715,-0.8571,-0.8306,-0.794,-0.7381,-0.6704,-0.5929,-0.4829,-0.3576,-0.2126,-0.0464,0.1173,0.2755,0.3948,0.5202,0.6781,0.7389,0.7996,0.8968,0.9459,0.9797,1.0153,1.0259,1.0285,-1.5662,-1.6095,-1.5975,-1.6109,-1.6405,-1.6276,-1.6461,-1.6876,-1.6888,-1.7099,-1.7391,-1.7447,-1.7652,-1.7882,-1.7854,-1.78,-1.7814,-1.7825,-1.7536,-1.7088,-1.7161,-1.6853,-1.6213,-1.5711,-1.5459,-1.5432,-1.5067,-1.4992,-1.5193,-1.5463,-1.5839,-1.6432,-1.6773,-1.7084,-1.7378,-1.7589,-1.7811,-1.8012,-1.8147,-1.8298,-1.8371,-1.7622,-1.6888,-1.6219,-1.5422,-1.4674,-1.4051,-1.4009,-1.405,-1.4127,-1.419,-1.4232,-1.4126,-1.3497,-1.2814,-1.214,-1.1397,-1.0753,-1.0177,-1.0104,-1.0116,-1.0098,-1.0121,-1.0125,-1.0125,-1.0106,-1.0136,-1.017,-1.0192,-1.0159,-1.0129,-1.0112,-1.0123,-1.0091,-1.0049,-1.0009,-0.9987,-0.9942,-0.9869,-0.9805,-0.9757,-0.9673,-0.9599,-0.9535,-0.9421,-0.9271,-0.9154,-0.9022,-0.8874,-0.8755,-0.8604,-0.8425,-0.8269,-0.8037,-0.7621,-0.7103,-0.6418,-0.5566,-0.452,-0.3252,-0.1779,-0.0319,0.1132,0.2703,0.3781,0.487,0.5796,0.6412,0.7225,0.8446,0.9002,0.9285,1.0008,1.029,1.0305,-1.6019,-1.631,-1.6464,-1.6627,-1.6676,-1.6663,-1.6748,-1.6901,-1.6888,-1.7099,-1.735,-1.7432,-1.7556,-1.776,-1.7882,-1.7922,-1.7922,-1.7909,-1.7826,-1.7582,-1.7651,-1.7327,-1.6794,-1.6549,-1.6118,-1.5531,-1.5384,-1.5241,-1.5176,-1.5566,-1.6024,-1.6436,-1.6712,-1.6984,-1.7265,-1.7472,-1.7681,-1.789,-1.8022,-1.813,-1.8153,-1.7574,-1.6884,-1.6116,-1.5381,-1.4676,-1.4035,-1.3944,-1.3955,-1.4044,-1.4096,-1.4177,-1.4219,-1.3586,-1.3102,-1.2798,-1.174,-1.0791,-1.0086,-1.0035,-1.0054,-1.0095,-1.01,-1.01,-1.0104,-1.01,-1.0104,-1.0085,-1.0129,-1.0129,-1.01,-1.0105,-1.0096,-1.003,-1.0019,-0.9993,-0.9941,-0.9906,-0.9875,-0.9803,-0.9739,-0.9654,-0.956,-0.9421,-0.9282,-0.9143,-0.905,-0.8913,-0.8755,-0.8616,-0.8412,-0.816,-0.7954,-0.7695,-0.7365,-0.6796,-0.6071,-0.5198,-0.4368,-0.3265,-0.1483,-0.0055,0.1326,0.2766,0.3578,0.4572,0.5823,0.6103,0.6646,0.7954,0.9248,0.9809,1.0219,1.0295,1.0307,-1.6325,-1.6569,-1.7006,-1.7186,-1.7229,-1.7076,-1.7048,-1.7119,-1.694,-1.7044,-1.7363,-1.7363,-1.7487,-1.7597,-1.772,-1.7801,-1.7788,-1.7788,-1.7788,-1.7788,-1.7774,-1.7571,-1.7232,-1.7062,-1.659,-1.5907,-1.566,-1.5417,-1.5176,-1.5653,-1.6095,-1.6355,-1.6633,-1.6908,-1.7183,-1.7408,-1.7595,-1.7789,-1.79,-1.7988,-1.8005,-1.7662,-1.7084,-1.6322,-1.5593,-1.4878,-1.4208,-1.3996,-1.3886,-1.3973,-1.4012,-1.4082,-1.4159,-1.372,-1.3329,-1.2906,-1.1791,-1.0759,-1.0027,-0.9974,-1.0,-1.0068,-1.0078,-1.0059,-1.0059,-1.0063,-1.0039,-1.0016,-1.0044,-1.0072,-1.0073,-1.0092,-1.0054,-1.0014,-1.0009,-0.9968,-0.9923,-0.9894,-0.9888,-0.9815,-0.9743,-0.9633,-0.9492,-0.932,-0.9191,-0.905,-0.8942,-0.8806,-0.8628,-0.8454,-0.8243,-0.7954,-0.768,-0.7394,-0.7114,-0.6516,-0.5726,-0.477,-0.3966,-0.2807,-0.1172,0.0214,0.1364,0.2583,0.3255,0.397,0.4952,0.5466,0.6217,0.7841,0.9096,0.9911,1.0222,1.0279,1.0309,-1.6616,-1.7203,-1.7617,-1.7977,-1.8224,-1.7431,-1.726,-1.7593,-1.7132,-1.7028,-1.7212,-1.735,-1.7404,-1.7404,-1.7502,-1.7516,-1.7529,-1.7516,-1.7557,-1.7516,-1.753,-1.7504,-1.7436,-1.7034,-1.6815,-1.661,-1.5921,-1.5478,-1.5325,-1.5624,-1.5983,-1.6301,-1.6565,-1.6866,-1.7175,-1.7384,-1.7595,-1.7772,-1.7878,-1.7944,-1.8005,-1.8018,-1.769,-1.7045,-1.6339,-1.561,-1.4879,-1.4179,-1.3859,-1.3921,-1.3927,-1.3963,-1.4082,-1.4105,-1.3557,-1.2343,-1.1492,-1.0702,-1.0088,-0.9931,-0.9916,-0.9987,-1.0003,-1.0014,-1.0014,-1.001,-1.001,-1.001,-1.0011,-1.002,-1.002,-1.002,-1.0006,-1.0019,-1.0017,-0.9957,-0.9923,-0.9906,-0.9875,-0.9796,-0.9717,-0.9601,-0.9421,-0.9279,-0.912,-0.8964,-0.8857,-0.8722,-0.8467,-0.8298,-0.8066,-0.7767,-0.7428,-0.7103,-0.6796,-0.6167,-0.5297,-0.4336,-0.3285,-0.2141,-0.0802,0.0465,0.1496,0.237,0.3049,0.3652,0.414,0.4907,0.587,0.7167,0.8452,0.9261,1.0149,1.0284,1.0311,-1.6864,-1.7667,-1.8147,-1.8362,-1.8345,-1.8093,-1.7934,-1.7677,-1.7517,-1.7316,-1.7209,-1.7253,-1.7253,-1.7267,-1.7282,-1.7393,-1.7475,-1.7475,-1.7475,-1.7475,-1.7488,-1.7488,-1.7489,-1.733,-1.7102,-1.6804,-1.6498,-1.6132,-1.5751,-1.5698,-1.587,-1.6234,-1.6517,-1.6805,-1.7059,-1.7281,-1.7472,-1.7664,-1.7772,-1.7861,-1.7922,-1.8005,-1.7911,-1.7662,-1.6984,-1.6318,-1.5627,-1.4846,-1.4495,-1.4543,-1.4134,-1.3959,-1.4037,-1.4185,-1.3835,-1.289,-1.2115,-1.137,-1.0684,-1.0106,-0.9863,-0.9923,-0.9941,-0.9946,-0.9995,-1.0006,-1.0012,-1.0003,-1.0005,-1.0001,-1.0011,-1.0016,-1.0006,-1.001,-1.0,-1.0003,-0.9971,-0.9918,-0.9869,-0.9798,-0.9673,-0.9499,-0.9367,-0.9231,-0.9067,-0.8914,-0.8769,-0.8583,-0.8377,-0.8191,-0.7956,-0.7592,-0.7039,-0.6422,-0.6014,-0.5565,-0.4861,-0.386,-0.2812,-0.1665,-0.0397,0.0803,0.1871,0.2423,0.3021,0.3628,0.4201,0.5023,0.5936,0.7086,0.8304,0.9051,1.0112,1.0265,1.0312,-1.7145,-1.7897,-1.8398,-1.8637,-1.8663,-1.8608,-1.8471,-1.8188,-1.7862,-1.7609,-1.7457,-1.7303,-1.7212,-1.7212,-1.7157,-1.7199,-1.731,-1.731,-1.731,-1.7323,-1.735,-1.7295,-1.7323,-1.7378,-1.7262,-1.6943,-1.6748,-1.6429,-1.5984,-1.5696,-1.5799,-1.6151,-1.6409,-1.6701,-1.6984,-1.7183,-1.7361,-1.7532,-1.7681,-1.7749,-1.7839,-1.79,-1.7939,-1.7915,-1.7534,-1.6998,-1.6298,-1.5332,-1.4812,-1.4775,-1.4228,-1.3915,-1.4005,-1.4154,-1.392,-1.3197,-1.245,-1.1746,-1.0991,-1.0212,-0.9799,-0.985,-0.9888,-0.9937,-0.9955,-0.9973,-1.0003,-1.0006,-1.0014,-1.0001,-1.002,-1.0025,-1.0044,-1.003,-1.003,-1.0015,-1.0003,-0.9952,-0.9875,-0.9779,-0.9617,-0.9455,-0.9321,-0.9194,-0.9035,-0.8886,-0.8697,-0.8495,-0.8272,-0.8039,-0.7707,-0.7286,-0.6615,-0.5932,-0.5303,-0.4676,-0.4079,-0.3155,-0.2391,-0.1244,-0.0151,0.1051,0.1959,0.248,0.3065,0.3672,0.4386,0.5191,0.62,0.732,0.7993,0.8647,0.9535,1.0286,1.0312,-1.7468,-1.7952,-1.8387,-1.8815,-1.9052,-1.8818,-1.892,-1.9041,-1.8234,-1.7926,-1.7908,-1.7502,-1.7238,-1.7157,-1.7073,-1.7002,-1.7044,-1.7044,-1.7044,-1.7044,-1.696,-1.696,-1.6973,-1.7128,-1.7199,-1.7137,-1.6596,-1.6194,-1.5994,-1.5693,-1.5711,-1.6067,-1.6316,-1.6612,-1.6998,-1.7125,-1.7264,-1.7408,-1.7542,-1.7618,-1.7704,-1.7772,-1.7816,-1.79,-1.7893,-1.7599,-1.6924,-1.5659,-1.4986,-1.4829,-1.4249,-1.39,-1.3995,-1.4056,-1.3808,-1.3208,-1.2459,-1.1708,-1.1,-1.0242,-0.9854,-0.9798,-0.985,-0.9907,-0.9906,-0.9961,-1.0003,-1.0006,-1.0019,-1.0025,-1.0073,-1.0091,-1.0095,-1.0101,-1.0101,-1.0068,-1.002,-1.0003,-0.9931,-0.9745,-0.9586,-0.9447,-0.9304,-0.9184,-0.9013,-0.8811,-0.862,-0.8415,-0.8144,-0.7821,-0.7314,-0.6687,-0.601,-0.5316,-0.4525,-0.3761,-0.3115,-0.2424,-0.1775,-0.0897,0.0035,0.112,0.1906,0.2507,0.3312,0.3931,0.4372,0.5179,0.6017,0.6993,0.7607,0.8473,0.9517,1.0305,1.0312,-1.7412,-1.781,-1.8344,-1.8774,-1.9069,-1.9108,-1.9208,-1.9249,-1.8971,-1.8564,-1.8011,-1.7734,-1.745,-1.7125,-1.696,-1.6918,-1.6918,-1.6833,-1.6833,-1.6918,-1.6892,-1.6905,-1.6918,-1.6944,-1.7112,-1.7165,-1.6599,-1.6318,-1.6287,-1.5775,-1.5653,-1.5996,-1.6274,-1.6559,-1.6847,-1.7041,-1.7224,-1.7384,-1.7432,-1.7502,-1.7635,-1.7704,-1.7749,-1.7755,-1.7861,-1.7829,-1.7633,-1.6755,-1.6074,-1.5662,-1.4961,-1.4385,-1.404,-1.3991,-1.3949,-1.3741,-1.3095,-1.2387,-1.1689,-1.0894,-1.021,-0.9883,-0.9815,-0.9855,-0.9882,-0.9906,-0.9954,-1.0001,-1.0005,-1.0039,-1.0086,-1.0101,-1.0105,-1.0108,-1.0093,-1.0093,-1.0063,-1.001,-0.9936,-0.9791,-0.9643,-0.9499,-0.9304,-0.9154,-0.8953,-0.8693,-0.8477,-0.8261,-0.8082,-0.7418,-0.6866,-0.6281,-0.5475,-0.4646,-0.3902,-0.3209,-0.2546,-0.1972,-0.1344,-0.0671,0.0247,0.1091,0.1854,0.2695,0.3489,0.4076,0.4531,0.5075,0.5849,0.6797,0.7623,0.8681,0.9905,1.0324,1.0311,-1.7357,-1.7767,-1.8302,-1.8732,-1.904,-1.9291,-1.9419,-1.9482,-1.9346,-1.8991,-1.8487,-1.7974,-1.7631,-1.7256,-1.6978,-1.6846,-1.6803,-1.6675,-1.6633,-1.6705,-1.6765,-1.6765,-1.6748,-1.6859,-1.7083,-1.7233,-1.6738,-1.6514,-1.6613,-1.6042,-1.5787,-1.5972,-1.6207,-1.6463,-1.6727,-1.6965,-1.7141,-1.7273,-1.7386,-1.7441,-1.7519,-1.7589,-1.7658,-1.7687,-1.7777,-1.7861,-1.7932,-1.7517,-1.7033,-1.6336,-1.5435,-1.4572,-1.3982,-1.3923,-1.3995,-1.3899,-1.3385,-1.2753,-1.2314,-1.1339,-1.0603,-1.0184,-0.9887,-0.9796,-0.985,-0.9882,-0.9923,-0.9982,-1.0005,-1.003,-1.0085,-1.014,-1.0133,-1.0117,-1.014,-1.0129,-1.0063,-0.9758,-0.9725,-0.9651,-0.9422,-0.9254,-0.9233,-0.9126,-0.8795,-0.842,-0.8072,-0.78,-0.7533,-0.6812,-0.621,-0.5595,-0.4862,-0.4063,-0.332,-0.2659,-0.2002,-0.1485,-0.098,-0.0326,0.0428,0.1211,0.1976,0.2952,0.3816,0.4199,0.4635,0.4813,0.5401,0.6463,0.7715,0.8658,0.9668,1.0205,1.031,-1.7301,-1.7767,-1.8205,-1.8625,-1.904,-1.9279,-1.9606,-1.9838,-1.9494,-1.932,-1.9083,-1.8228,-1.7734,-1.7505,-1.699,-1.6675,-1.6675,-1.6491,-1.6405,-1.6448,-1.6491,-1.6491,-1.6577,-1.6791,-1.7057,-1.7258,-1.7008,-1.677,-1.655,-1.6246,-1.6078,-1.5887,-1.6067,-1.6316,-1.6586,-1.6837,-1.7023,-1.7133,-1.7298,-1.7362,-1.7401,-1.7455,-1.7566,-1.7664,-1.771,-1.7816,-1.7949,-1.7928,-1.7611,-1.6866,-1.5505,-1.453,-1.3998,-1.3888,-1.3912,-1.3959,-1.3329,-1.3048,-1.2681,-1.1805,-1.092,-1.0667,-1.0184,-0.9754,-0.9803,-0.9857,-0.9912,-0.9971,-0.9986,-1.0011,-1.0089,-1.0167,-1.0199,-1.0186,-1.018,-1.0161,-0.9967,-0.931,-0.914,-0.9343,-0.894,-0.8482,-0.8886,-0.8778,-0.8302,-0.7741,-0.7302,-0.7058,-0.6707,-0.6099,-0.5302,-0.4651,-0.4046,-0.3589,-0.2888,-0.243,-0.1803,-0.1283,-0.0742,-0.0087,0.0666,0.1455,0.2243,0.3216,0.3933,0.4331,0.4621,0.4802,0.5603,0.6957,0.7939,0.8653,0.9354,1.0026,1.0308,-1.7301,-1.7767,-1.8205,-1.8637,-1.8999,-1.9291,-1.9565,-1.985,-1.9798,-1.9583,-1.9158,-1.8532,-1.7938,-1.7479,-1.6872,-1.6534,-1.6491,-1.6392,-1.6318,-1.6275,-1.6256,-1.6343,-1.6473,-1.6761,-1.6973,-1.705,-1.6957,-1.6674,-1.6387,-1.6165,-1.5891,-1.5624,-1.5926,-1.6179,-1.6436,-1.6639,-1.6837,-1.7057,-1.7133,-1.7273,-1.7378,-1.7417,-1.7496,-1.7612,-1.7664,-1.7811,-1.7983,-1.8091,-1.7507,-1.6324,-1.5349,-1.4481,-1.3866,-1.3761,-1.3809,-1.3815,-1.3722,-1.3376,-1.2908,-1.2502,-1.1826,-1.0855,-1.0594,-1.0294,-0.9761,-0.9793,-0.985,-0.9923,-0.9971,-1.003,-1.0074,-1.0163,-1.0202,-1.0188,-1.0202,-0.9973,-0.9382,-0.8983,-0.8669,-0.8136,-0.7766,-0.7657,-0.7642,-0.7545,-0.7264,-0.6824,-0.6545,-0.628,-0.5899,-0.5348,-0.4538,-0.3791,-0.3213,-0.2933,-0.2558,-0.2134,-0.1651,-0.1138,-0.0544,0.0108,0.0942,0.1839,0.267,0.3563,0.3984,0.4375,0.4593,0.4783,0.6092,0.7333,0.7891,0.849,0.9482,1.0256,1.0307,-1.72,-1.7723,-1.8096,-1.8572,-1.8999,-1.9263,-1.9565,-1.9759,-1.9875,-1.9786,-1.9333,-1.8614,-1.8113,-1.7718,-1.6886,-1.6448,-1.6392,-1.6306,-1.6175,-1.6132,-1.6113,-1.6212,-1.6442,-1.6688,-1.6833,-1.7018,-1.7075,-1.6802,-1.6413,-1.631,-1.6045,-1.5654,-1.5826,-1.6108,-1.6371,-1.6517,-1.6743,-1.6965,-1.7057,-1.7199,-1.7346,-1.7386,-1.7448,-1.7566,-1.7658,-1.7766,-1.7983,-1.8108,-1.7472,-1.6217,-1.5471,-1.4795,-1.3839,-1.3715,-1.3731,-1.3763,-1.3809,-1.3657,-1.3327,-1.3037,-1.2502,-1.1711,-1.1237,-1.0647,-1.0242,-1.0008,-0.9825,-0.9893,-0.9965,-1.0025,-1.0089,-1.017,-1.0191,-1.0188,-1.019,-0.9831,-0.9002,-0.8549,-0.808,-0.7498,-0.7003,-0.6784,-0.6882,-0.6776,-0.642,-0.6067,-0.5774,-0.5414,-0.4985,-0.4393,-0.3874,-0.3239,-0.2826,-0.2646,-0.2354,-0.1956,-0.1336,-0.0826,0.0022,0.0599,0.1389,0.2285,0.2876,0.3586,0.402,0.4409,0.4679,0.5127,0.6162,0.7139,0.7686,0.8575,0.9627,1.0233,1.0285,-1.7145,-1.7723,-1.8041,-1.8452,-1.8999,-1.9316,-1.9565,-1.9747,-1.9798,-1.9736,-1.9447,-1.8643,-1.8129,-1.7994,-1.686,-1.6392,-1.6349,-1.612,-1.6032,-1.5988,-1.6001,-1.61,-1.6355,-1.6504,-1.6693,-1.6989,-1.7323,-1.6967,-1.6491,-1.6593,-1.6297,-1.5756,-1.5812,-1.6052,-1.6246,-1.6463,-1.6691,-1.6863,-1.7007,-1.7133,-1.7281,-1.7354,-1.7434,-1.7589,-1.7658,-1.7789,-1.7961,-1.7984,-1.7429,-1.5968,-1.5916,-1.5107,-1.3946,-1.3704,-1.3686,-1.3684,-1.3731,-1.3759,-1.3766,-1.3274,-1.2921,-1.2615,-1.1567,-1.0886,-1.0698,-1.0194,-0.9812,-0.9869,-0.9949,-1.0006,-1.0089,-1.017,-1.0186,-1.02,-1.0185,-0.9795,-0.899,-0.8135,-0.7525,-0.7238,-0.6432,-0.6235,-0.6395,-0.6484,-0.611,-0.5255,-0.4982,-0.4668,-0.4283,-0.3867,-0.3429,-0.2974,-0.2684,-0.251,-0.2166,-0.1792,-0.1097,-0.0422,0.0636,0.1394,0.2051,0.2753,0.3139,0.3594,0.4007,0.4475,0.4938,0.5598,0.6458,0.7353,0.8191,0.9074,0.9926,1.0169,1.0303,-1.7256,-1.7711,-1.815,-1.8572,-1.8987,-1.9263,-1.9565,-1.9798,-1.9798,-1.9522,-1.9082,-1.8509,-1.7902,-1.7389,-1.6741,-1.6318,-1.6132,-1.6032,-1.5957,-1.5836,-1.5836,-1.6013,-1.6244,-1.6405,-1.6663,-1.696,-1.7267,-1.6903,-1.6372,-1.6355,-1.6218,-1.5533,-1.5683,-1.597,-1.6151,-1.6328,-1.6528,-1.6712,-1.6889,-1.7083,-1.7257,-1.7306,-1.741,-1.7589,-1.7749,-1.7878,-1.7966,-1.807,-1.7374,-1.6293,-1.5813,-1.521,-1.397,-1.3626,-1.361,-1.3576,-1.3622,-1.3684,-1.3713,-1.3628,-1.3394,-1.2867,-1.2173,-1.1342,-1.0822,-1.0208,-0.9826,-0.9819,-0.9874,-0.9962,-1.007,-1.0163,-1.019,-1.018,-1.016,-0.9855,-0.8945,-0.8129,-0.7429,-0.6596,-0.5773,-0.5107,-0.5167,-0.5101,-0.48,-0.4407,-0.4182,-0.3931,-0.3647,-0.3366,-0.305,-0.2732,-0.251,-0.2291,-0.1884,-0.1386,-0.0586,0.0165,0.1163,0.2089,0.2743,0.3231,0.3614,0.3823,0.3964,0.4561,0.5401,0.596,0.6785,0.7747,0.8655,0.9359,0.9931,1.0141,1.028,-1.7301,-1.7767,-1.8205,-1.8583,-1.8958,-1.9263,-1.95,-1.9645,-1.9519,-1.9246,-1.8807,-1.8065,-1.7511,-1.7041,-1.6478,-1.612,-1.5988,-1.5913,-1.5836,-1.576,-1.5748,-1.5881,-1.61,-1.6318,-1.6534,-1.685,-1.6829,-1.648,-1.6204,-1.609,-1.5872,-1.537,-1.5566,-1.5841,-1.6083,-1.625,-1.6479,-1.6686,-1.6831,-1.7016,-1.7257,-1.7306,-1.7386,-1.7566,-1.7749,-1.79,-1.7966,-1.8027,-1.7247,-1.6274,-1.581,-1.5174,-1.392,-1.3578,-1.3546,-1.3528,-1.3561,-1.3606,-1.3669,-1.3761,-1.3707,-1.3378,-1.274,-1.2086,-1.1394,-1.0682,-1.0106,-0.9898,-0.9863,-0.9936,-1.0029,-1.0105,-1.0152,-1.0136,-1.0133,-0.9852,-0.9327,-0.8589,-0.7764,-0.6821,-0.5993,-0.5473,-0.5075,-0.4643,-0.4227,-0.4178,-0.3964,-0.3687,-0.348,-0.3191,-0.2885,-0.2587,-0.2334,-0.2032,-0.162,-0.0947,-0.0014,0.0802,0.1712,0.2569,0.3306,0.3731,0.4103,0.437,0.4716,0.5386,0.6164,0.6664,0.7218,0.8122,0.8943,0.9544,0.9953,1.015,1.0253,-1.7301,-1.7767,-1.8205,-1.8583,-1.8851,-1.9198,-1.9426,-1.938,-1.9101,-1.882,-1.841,-1.7557,-1.7115,-1.6732,-1.6264,-1.5957,-1.5869,-1.5792,-1.5671,-1.5671,-1.5715,-1.5792,-1.5969,-1.6188,-1.6448,-1.6769,-1.6567,-1.6217,-1.6005,-1.5827,-1.5645,-1.537,-1.5492,-1.5784,-1.6039,-1.6225,-1.6429,-1.6659,-1.6831,-1.7025,-1.7257,-1.7306,-1.741,-1.7582,-1.7726,-1.7856,-1.7961,-1.7881,-1.7304,-1.5927,-1.5772,-1.4984,-1.399,-1.3512,-1.3462,-1.3479,-1.3528,-1.3593,-1.3639,-1.3715,-1.3818,-1.3966,-1.3333,-1.2675,-1.1973,-1.1178,-1.0473,-1.0038,-0.9857,-0.991,-0.9986,-1.0035,-1.0068,-1.0054,-1.0011,-0.9943,-0.9765,-0.9209,-0.8412,-0.754,-0.6574,-0.591,-0.5368,-0.4872,-0.4372,-0.3921,-0.3695,-0.3479,-0.3264,-0.3031,-0.2724,-0.2435,-0.2182,-0.1548,-0.1065,-0.0387,0.0548,0.1563,0.2408,0.3162,0.3978,0.4684,0.5151,0.5316,0.5732,0.6312,0.6882,0.7426,0.8015,0.8689,0.923,0.9801,1.0045,1.0176,1.0224,-1.7423,-1.7844,-1.8367,-1.8691,-1.8839,-1.921,-1.9125,-1.8806,-1.8765,-1.8215,-1.7353,-1.707,-1.6683,-1.6227,-1.5965,-1.5748,-1.5647,-1.557,-1.5525,-1.557,-1.5626,-1.576,-1.5881,-1.61,-1.6349,-1.6566,-1.6383,-1.6124,-1.5978,-1.5778,-1.5503,-1.5384,-1.5492,-1.5755,-1.6026,-1.6225,-1.6418,-1.6607,-1.6805,-1.7066,-1.7257,-1.733,-1.7434,-1.7612,-1.7726,-1.7833,-1.79,-1.7854,-1.7228,-1.5904,-1.575,-1.486,-1.3837,-1.3429,-1.3429,-1.3446,-1.3479,-1.3545,-1.361,-1.3669,-1.3791,-1.3733,-1.3365,-1.2669,-1.1982,-1.1276,-1.0608,-0.9998,-0.9823,-0.9894,-0.9925,-0.9929,-0.9941,-0.9916,-0.9862,-0.9788,-0.9664,-0.936,-0.8886,-0.8072,-0.716,-0.6284,-0.5697,-0.5048,-0.4402,-0.3879,-0.3514,-0.3272,-0.3044,-0.2833,-0.2588,-0.2305,-0.2028,-0.1231,-0.0456,0.0306,0.1169,0.2343,0.3232,0.3921,0.4779,0.5743,0.6251,0.6261,0.6438,0.6854,0.7449,0.811,0.8646,0.9202,0.9638,1.0034,1.0101,1.0163,1.0236,-1.7434,-1.7844,-1.841,-1.846,-1.8353,-1.8733,-1.8582,-1.8093,-1.7896,-1.7521,-1.6947,-1.654,-1.6195,-1.586,-1.5691,-1.5558,-1.5435,-1.539,-1.539,-1.5435,-1.5525,-1.5659,-1.5792,-1.6057,-1.612,-1.6115,-1.5943,-1.5889,-1.5924,-1.5466,-1.5304,-1.537,-1.5492,-1.5755,-1.5983,-1.6197,-1.6402,-1.6596,-1.6815,-1.7075,-1.7306,-1.7386,-1.7536,-1.7635,-1.7743,-1.7833,-1.79,-1.7922,-1.719,-1.6018,-1.5695,-1.4824,-1.3888,-1.3396,-1.3396,-1.3413,-1.3463,-1.3512,-1.3578,-1.3638,-1.3776,-1.3862,-1.3604,-1.2979,-1.2194,-1.1529,-1.084,-1.0034,-0.9728,-0.9803,-0.9786,-0.9805,-0.9779,-0.9733,-0.9684,-0.9609,-0.9479,-0.9296,-0.8892,-0.8404,-0.765,-0.6765,-0.5941,-0.5253,-0.4462,-0.3891,-0.3387,-0.3082,-0.2828,-0.2619,-0.2402,-0.1952,-0.1564,-0.078,0.0089,0.0874,0.1676,0.2825,0.3842,0.4548,0.5286,0.6139,0.6708,0.6955,0.72,0.7486,0.8117,0.8789,0.9242,0.9601,0.9817,1.002,1.0083,1.0163,1.0205,-1.7313,-1.7632,-1.8139,-1.8061,-1.7729,-1.8037,-1.7885,-1.7436,-1.7087,-1.6846,-1.6517,-1.6044,-1.573,-1.5626,-1.548,-1.5345,-1.5222,-1.5222,-1.521,-1.5244,-1.5435,-1.557,-1.5691,-1.5842,-1.5922,-1.5797,-1.5402,-1.5428,-1.5559,-1.5188,-1.5063,-1.5268,-1.5507,-1.5755,-1.6026,-1.6197,-1.6386,-1.6623,-1.685,-1.7084,-1.7321,-1.7512,-1.7635,-1.771,-1.7749,-1.7816,-1.7861,-1.7878,-1.708,-1.6115,-1.552,-1.4993,-1.3718,-1.3396,-1.3396,-1.3413,-1.3463,-1.3496,-1.3544,-1.3638,-1.3776,-1.3897,-1.4012,-1.3336,-1.2453,-1.1745,-1.1059,-1.0021,-0.9669,-0.9669,-0.9677,-0.9654,-0.9605,-0.9549,-0.9464,-0.9359,-0.92,-0.8991,-0.8734,-0.8292,-0.7867,-0.7082,-0.6054,-0.5401,-0.4625,-0.3629,-0.3103,-0.2917,-0.2659,-0.2411,-0.2106,-0.1545,-0.0984,-0.0228,0.058,0.1391,0.2196,0.3114,0.4071,0.4858,0.5603,0.6367,0.6845,0.7373,0.7867,0.819,0.8838,0.9237,0.9445,0.9654,0.9837,1.0001,1.0086,1.0151,1.0198,-1.6972,-1.6953,-1.7345,-1.738,-1.7149,-1.741,-1.7195,-1.675,-1.668,-1.6359,-1.5915,-1.5652,-1.5516,-1.5435,-1.5255,-1.504,-1.4949,-1.4937,-1.4971,-1.5051,-1.5289,-1.5445,-1.5496,-1.5502,-1.5521,-1.5432,-1.499,-1.491,-1.508,-1.4911,-1.4978,-1.5283,-1.5536,-1.5755,-1.6039,-1.6237,-1.6429,-1.6659,-1.6876,-1.7142,-1.7377,-1.7526,-1.7618,-1.7704,-1.7749,-1.7794,-1.7794,-1.7783,-1.7088,-1.5835,-1.5615,-1.487,-1.3701,-1.3396,-1.3396,-1.3413,-1.3463,-1.3528,-1.3577,-1.3653,-1.3774,-1.3894,-1.4026,-1.3622,-1.2675,-1.1523,-1.0622,-0.9785,-0.9567,-0.9524,-0.9517,-0.9447,-0.9394,-0.9304,-0.9218,-0.9061,-0.888,-0.8653,-0.8386,-0.8042,-0.7589,-0.6783,-0.5849,-0.5338,-0.4742,-0.371,-0.2874,-0.268,-0.2427,-0.2124,-0.1733,-0.1157,-0.0415,0.0348,0.1171,0.1965,0.2678,0.3501,0.4324,0.5174,0.5886,0.6592,0.7134,0.765,0.8182,0.8579,0.8929,0.9218,0.9464,0.9662,0.9825,0.9971,1.008,1.0154,1.0188,-1.6384,-1.683,-1.6968,-1.6831,-1.6524,-1.6693,-1.6479,-1.6075,-1.6016,-1.5851,-1.5572,-1.5347,-1.5211,-1.5131,-1.4949,-1.4914,-1.4822,-1.4811,-1.488,-1.4903,-1.5119,-1.5227,-1.512,-1.5157,-1.5221,-1.4777,-1.4694,-1.4594,-1.4674,-1.48,-1.4963,-1.5298,-1.5551,-1.5841,-1.6095,-1.6316,-1.6517,-1.6722,-1.6977,-1.7264,-1.7496,-1.7612,-1.7704,-1.7749,-1.7789,-1.7789,-1.7789,-1.7755,-1.7045,-1.5896,-1.5539,-1.483,-1.3751,-1.3346,-1.3346,-1.3396,-1.3446,-1.3528,-1.3594,-1.3684,-1.3806,-1.3891,-1.392,-1.3551,-1.2466,-1.1365,-1.0348,-0.9573,-0.9465,-0.943,-0.9367,-0.9284,-0.9177,-0.9075,-0.8962,-0.8739,-0.8538,-0.8284,-0.8019,-0.7665,-0.7248,-0.6446,-0.5686,-0.5086,-0.4485,-0.3606,-0.279,-0.2419,-0.206,-0.1645,-0.1209,-0.0717,0.0084,0.0913,0.1779,0.2612,0.3198,0.3956,0.4652,0.5457,0.6159,0.6805,0.7334,0.781,0.828,0.8632,0.8957,0.9218,0.9446,0.9629,0.9794,0.9944,1.0072,1.0163,1.0205,-1.562,-1.6347,-1.64,-1.6213,-1.5846,-1.5986,-1.5856,-1.5549,-1.5424,-1.5412,-1.5334,-1.5108,-1.4937,-1.4787,-1.4776,-1.4719,-1.4673,-1.473,-1.4811,-1.4869,-1.4902,-1.4838,-1.4759,-1.4802,-1.4504,-1.4012,-1.4269,-1.4364,-1.4463,-1.4637,-1.4963,-1.5298,-1.5624,-1.5898,-1.6123,-1.6355,-1.6581,-1.6882,-1.7134,-1.7377,-1.7566,-1.7658,-1.7726,-1.7789,-1.7789,-1.7789,-1.7789,-1.7789,-1.704,-1.5839,-1.5482,-1.4809,-1.3598,-1.3312,-1.3346,-1.3413,-1.3462,-1.3545,-1.3625,-1.3717,-1.3821,-1.3938,-1.3934,-1.3618,-1.243,-1.1352,-1.055,-0.9868,-0.9419,-0.9354,-0.9251,-0.9143,-0.9011,-0.8869,-0.8731,-0.8481,-0.8235,-0.7964,-0.7636,-0.7258,-0.6819,-0.6232,-0.5501,-0.4832,-0.4138,-0.3398,-0.2782,-0.2211,-0.1694,-0.1191,-0.0646,-0.013,0.0631,0.1455,0.2241,0.305,0.3688,0.4361,0.5078,0.5741,0.6404,0.6969,0.7472,0.7938,0.8374,0.8691,0.8994,0.9229,0.9454,0.9629,0.9794,0.9938,1.0039,1.014,1.0222,-1.4825,-1.5241,-1.5501,-1.5448,-1.5188,-1.5313,-1.5437,-1.5435,-1.5244,-1.5108,-1.5062,-1.4903,-1.473,-1.4638,-1.4545,-1.4534,-1.4419,-1.4581,-1.4628,-1.462,-1.4595,-1.4529,-1.4375,-1.4089,-1.3876,-1.3899,-1.3998,-1.412,-1.4314,-1.4651,-1.4978,-1.5313,-1.5624,-1.5913,-1.6207,-1.6463,-1.6753,-1.7025,-1.7273,-1.7384,-1.7549,-1.7664,-1.7732,-1.7789,-1.7789,-1.7789,-1.7789,-1.7749,-1.7052,-1.5637,-1.5459,-1.4754,-1.3597,-1.3311,-1.3329,-1.3429,-1.3512,-1.3593,-1.3671,-1.3781,-1.3868,-1.3984,-1.3997,-1.3779,-1.2777,-1.209,-1.1323,-1.0369,-0.966,-0.9229,-0.9102,-0.8996,-0.8875,-0.87,-0.853,-0.8253,-0.7965,-0.7621,-0.7287,-0.6881,-0.6379,-0.5831,-0.5138,-0.445,-0.3931,-0.3204,-0.2275,-0.1679,-0.1188,-0.0663,-0.0063,0.0529,0.1231,0.1981,0.265,0.3369,0.4058,0.4709,0.5392,0.6023,0.6655,0.7162,0.7606,0.8049,0.8476,0.8744,0.903,0.9286,0.9506,0.9655,0.9794,0.9925,1.0057,1.0141,1.0212,-1.4131,-1.4478,-1.4704,-1.4887,-1.4914,-1.496,-1.504,-1.504,-1.4949,-1.48,-1.4651,-1.4569,-1.4441,-1.4302,-1.4255,-1.4208,-1.4197,-1.428,-1.4255,-1.418,-1.4138,-1.3987,-1.3732,-1.3602,-1.3495,-1.3574,-1.3684,-1.3974,-1.43,-1.4651,-1.4963,-1.5313,-1.5654,-1.5928,-1.6194,-1.657,-1.6949,-1.7191,-1.737,-1.7479,-1.7589,-1.7704,-1.7772,-1.7789,-1.7789,-1.7789,-1.7789,-1.7749,-1.6833,-1.5899,-1.5466,-1.4532,-1.3529,-1.3311,-1.3329,-1.3446,-1.3562,-1.3641,-1.37,-1.3811,-1.393,-1.4044,-1.4064,-1.3824,-1.3068,-1.224,-1.1363,-1.05,-0.9729,-0.9279,-0.8996,-0.8903,-0.8764,-0.8558,-0.8311,-0.8053,-0.7709,-0.7379,-0.6924,-0.6515,-0.6011,-0.5473,-0.4762,-0.4019,-0.3544,-0.3013,-0.2037,-0.1168,-0.0659,-0.0107,0.0504,0.1128,0.1829,0.25,0.3166,0.3812,0.4441,0.5069,0.5712,0.6282,0.6885,0.7318,0.7753,0.8171,0.8559,0.8846,0.9129,0.9376,0.9557,0.9695,0.9813,0.9936,1.0051,1.0157,1.0219,-1.3716,-1.3962,-1.4197,-1.4488,-1.473,-1.4776,-1.4822,-1.4776,-1.473,-1.4534,-1.4291,-1.4291,-1.4208,-1.402,-1.402,-1.3893,-1.3864,-1.386,-1.3703,-1.3597,-1.3412,-1.3306,-1.3179,-1.3111,-1.3192,-1.3283,-1.3641,-1.4007,-1.4332,-1.4669,-1.5011,-1.5314,-1.5624,-1.5928,-1.6265,-1.6717,-1.7109,-1.7289,-1.7425,-1.7526,-1.7612,-1.7726,-1.7789,-1.7789,-1.7789,-1.7789,-1.7766,-1.762,-1.6886,-1.5938,-1.5245,-1.4577,-1.3762,-1.3244,-1.3346,-1.3462,-1.3577,-1.3639,-1.3715,-1.3853,-1.3973,-1.4086,-1.4114,-1.3783,-1.3223,-1.2499,-1.1777,-1.0884,-1.0052,-0.9353,-0.9038,-0.8811,-0.8645,-0.8415,-0.8193,-0.7927,-0.7501,-0.7098,-0.6609,-0.6147,-0.5616,-0.5049,-0.4131,-0.3359,-0.2632,-0.2154,-0.1496,-0.0655,-0.0084,0.0481,0.1119,0.1742,0.2397,0.3045,0.3668,0.4248,0.4797,0.5363,0.5975,0.6519,0.7064,0.7487,0.7909,0.8345,0.8691,0.8973,0.9218,0.9456,0.9597,0.9728,0.9863,1.0006,1.0067,1.0188,1.0219,-1.3563,-1.3821,-1.3962,-1.4255,-1.4581,-1.473,-1.4776,-1.4695,-1.4477,-1.4233,-1.402,-1.402,-1.3962,-1.3905,-1.3815,-1.3584,-1.3366,-1.3305,-1.3161,-1.2967,-1.2837,-1.2762,-1.2808,-1.2862,-1.302,-1.3257,-1.3628,-1.404,-1.4383,-1.4718,-1.5058,-1.5389,-1.5697,-1.597,-1.6253,-1.6727,-1.7084,-1.7289,-1.7425,-1.7526,-1.7612,-1.7726,-1.7789,-1.7789,-1.7789,-1.7789,-1.7749,-1.7658,-1.6875,-1.5737,-1.5391,-1.4608,-1.3444,-1.3345,-1.3413,-1.3529,-1.3641,-1.3684,-1.3713,-1.388,-1.3998,-1.4068,-1.4096,-1.3961,-1.3778,-1.317,-1.2257,-1.1281,-1.0528,-0.9738,-0.9212,-0.8729,-0.853,-0.8298,-0.8069,-0.7724,-0.7317,-0.6838,-0.6364,-0.5793,-0.5213,-0.4569,-0.3591,-0.263,-0.1751,-0.1164,-0.073,-0.0153,0.0465,0.1084,0.1701,0.2285,0.2917,0.3501,0.4114,0.4629,0.5175,0.572,0.6242,0.6785,0.727,0.7709,0.8118,0.8526,0.8807,0.9095,0.9304,0.9524,0.9688,0.9857,0.9974,1.0085,1.015,1.0191,1.0222,-1.3604,-1.3668,-1.3821,-1.401,-1.4208,-1.4255,-1.4255,-1.4255,-1.4161,-1.401,-1.3773,-1.3716,-1.361,-1.3453,-1.3186,-1.3016,-1.2951,-1.2665,-1.2499,-1.2302,-1.2313,-1.2384,-1.2472,-1.2686,-1.2941,-1.331,-1.3728,-1.4124,-1.4483,-1.4811,-1.5088,-1.5418,-1.5841,-1.6179,-1.649,-1.685,-1.7085,-1.7273,-1.7465,-1.7572,-1.7595,-1.7704,-1.7789,-1.7789,-1.7789,-1.7789,-1.7749,-1.7658,-1.6859,-1.567,-1.5378,-1.4627,-1.3546,-1.3379,-1.3463,-1.3562,-1.3672,-1.3746,-1.3803,-1.3938,-1.403,-1.4068,-1.4082,-1.4054,-1.3924,-1.3245,-1.242,-1.1594,-1.0798,-0.9891,-0.9042,-0.8726,-0.8495,-0.8191,-0.7927,-0.7546,-0.7114,-0.6638,-0.61,-0.5486,-0.4884,-0.3996,-0.3029,-0.1948,-0.1029,-0.0362,0.0087,0.0483,0.1042,0.1676,0.2311,0.2842,0.3418,0.3976,0.4529,0.502,0.5515,0.604,0.6532,0.7029,0.7486,0.791,0.829,0.8672,0.8946,0.9196,0.9429,0.9647,0.9838,0.999,1.0063,1.0133,1.0177,1.0194,1.0222,-1.3402,-1.3467,-1.3563,-1.3621,-1.3763,-1.3915,-1.3973,-1.3868,-1.3821,-1.3658,-1.3484,-1.3324,-1.3175,-1.2902,-1.261,-1.228,-1.2287,-1.2086,-1.186,-1.1694,-1.1943,-1.2059,-1.2213,-1.2508,-1.2985,-1.3387,-1.3828,-1.4222,-1.4592,-1.4904,-1.5269,-1.5639,-1.6011,-1.6305,-1.6596,-1.685,-1.7093,-1.7297,-1.7489,-1.7612,-1.7635,-1.7721,-1.7789,-1.7789,-1.7789,-1.7789,-1.7749,-1.7468,-1.6948,-1.5892,-1.5221,-1.4682,-1.38,-1.3396,-1.3496,-1.3593,-1.3686,-1.3776,-1.388,-1.3906,-1.398,-1.4037,-1.405,-1.404,-1.3949,-1.3503,-1.2604,-1.1725,-1.0911,-0.9935,-0.9052,-0.8755,-0.8419,-0.8123,-0.7768,-0.741,-0.6937,-0.6433,-0.5818,-0.5203,-0.4392,-0.3459,-0.2385,-0.1323,-0.0286,0.0308,0.0885,0.1284,0.1661,0.2263,0.2863,0.3397,0.3894,0.4429,0.4943,0.5392,0.5884,0.6354,0.6832,0.7284,0.7695,0.8104,0.8472,0.8812,0.9085,0.934,0.9568,0.9762,0.9933,1.0044,1.0105,1.0143,1.019,1.0258,1.0345,-1.3016,-1.315,-1.3198,-1.3158,-1.3253,-1.358,-1.3658,-1.3521,-1.3426,-1.3243,-1.3107,-1.2721,-1.2554,-1.2463,-1.2135,-1.1762,-1.1449,-1.1409,-1.1323,-1.1316,-1.1544,-1.1764,-1.2148,-1.2578,-1.3017,-1.345,-1.3888,-1.4332,-1.4714,-1.5072,-1.5477,-1.5827,-1.6151,-1.6386,-1.6612,-1.6866,-1.7101,-1.7305,-1.7489,-1.7589,-1.7635,-1.7721,-1.7789,-1.7789,-1.7789,-1.7789,-1.7715,-1.7485,-1.6706,-1.5929,-1.5358,-1.4559,-1.3904,-1.348,-1.3544,-1.3622,-1.3731,-1.3821,-1.3877,-1.3906,-1.3934,-1.4009,-1.3995,-1.3995,-1.3934,-1.3704,-1.2879,-1.1946,-1.108,-1.0046,-0.9129,-0.8755,-0.8364,-0.8023,-0.7665,-0.7241,-0.6739,-0.6177,-0.555,-0.4817,-0.3953,-0.2921,-0.1583,-0.0487,0.0355,0.1148,0.1698,0.2086,0.2483,0.2821,0.3397,0.3915,0.4409,0.4874,0.5356,0.5793,0.6218,0.6672,0.7098,0.7546,0.7938,0.829,0.8644,0.8957,0.9226,0.9464,0.9694,0.9849,1.0001,1.007,1.014,1.0164,1.0186,1.0487,1.0588,-1.2771,-1.2662,-1.2755,-1.263,-1.2357,-1.2292,-1.2509,-1.2827,-1.2838,-1.2614,-1.2193,-1.2073,-1.1969,-1.1832,-1.1417,-1.1211,-1.1085,-1.0984,-1.1025,-1.113,-1.1384,-1.1734,-1.2126,-1.2578,-1.3039,-1.3504,-1.3954,-1.4397,-1.4808,-1.5224,-1.561,-1.5983,-1.6207,-1.6414,-1.6628,-1.6882,-1.7068,-1.7305,-1.7496,-1.7589,-1.7635,-1.7743,-1.7766,-1.7789,-1.7789,-1.7789,-1.7715,-1.7221,-1.6425,-1.5775,-1.5066,-1.4276,-1.3582,-1.351,-1.3622,-1.3748,-1.3809,-1.39,-1.3891,-1.3888,-1.392,-1.3952,-1.3955,-1.3923,-1.3894,-1.366,-1.3031,-1.2009,-1.1246,-1.0284,-0.9213,-0.8594,-0.8256,-0.7925,-0.7546,-0.7037,-0.6524,-0.5898,-0.525,-0.4296,-0.3432,-0.2134,-0.0795,0.0089,0.0931,0.1858,0.2514,0.2896,0.3235,0.3522,0.3887,0.4389,0.4865,0.5318,0.5738,0.6171,0.6575,0.6988,0.7411,0.7781,0.8153,0.8502,0.8818,0.9119,0.943,0.964,0.9832,0.9952,1.0057,1.014,1.0203,1.0202,1.026,1.0656,1.1063,-1.2204,-1.2018,-1.2088,-1.193,-1.1733,-1.1562,-1.165,-1.1827,-1.2009,-1.1876,-1.1606,-1.143,-1.1266,-1.1155,-1.0787,-1.0635,-1.0655,-1.0714,-1.0784,-1.1023,-1.1362,-1.1734,-1.2138,-1.2613,-1.3085,-1.3517,-1.3986,-1.4415,-1.4856,-1.5374,-1.5812,-1.6011,-1.6219,-1.6425,-1.6654,-1.6857,-1.7093,-1.7288,-1.7472,-1.7566,-1.7658,-1.7743,-1.7766,-1.7789,-1.7789,-1.7789,-1.7687,-1.7024,-1.6319,-1.5632,-1.4903,-1.4177,-1.3632,-1.3606,-1.37,-1.3793,-1.3873,-1.3883,-1.3891,-1.3894,-1.3927,-1.3944,-1.39,-1.3853,-1.3791,-1.3641,-1.2696,-1.1727,-1.1244,-1.0582,-0.9432,-0.8434,-0.8147,-0.7855,-0.7365,-0.6858,-0.6258,-0.5613,-0.4741,-0.3797,-0.2635,-0.1315,-0.0221,0.0621,0.1441,0.2267,0.2975,0.3501,0.3812,0.4126,0.4432,0.4836,0.5298,0.5749,0.6147,0.6536,0.6924,0.7334,0.7695,0.8063,0.8402,0.8711,0.904,0.935,0.9635,0.9812,0.9938,1.0006,1.0098,1.0234,1.0521,1.0797,1.093,1.1097,1.152,-1.1378,-1.1252,-1.1233,-1.1156,-1.1204,-1.1156,-1.0923,-1.0605,-1.098,-1.1151,-1.108,-1.0742,-1.059,-1.0565,-1.0328,-1.0214,-1.0332,-1.0487,-1.0725,-1.0926,-1.1314,-1.1723,-1.2162,-1.2636,-1.3076,-1.3555,-1.4013,-1.4511,-1.4918,-1.5433,-1.5841,-1.6011,-1.6262,-1.6452,-1.6623,-1.6882,-1.7109,-1.7305,-1.7472,-1.7612,-1.7635,-1.7704,-1.7789,-1.7789,-1.7789,-1.7772,-1.7591,-1.705,-1.6347,-1.5654,-1.4877,-1.411,-1.3848,-1.3733,-1.3793,-1.3824,-1.3871,-1.39,-1.388,-1.3883,-1.3853,-1.3856,-1.3826,-1.3748,-1.3684,-1.3671,-1.283,-1.1692,-1.109,-1.0205,-0.9085,-0.8375,-0.7982,-0.7562,-0.7101,-0.6528,-0.5886,-0.502,-0.3862,-0.2889,-0.1815,-0.0553,0.0353,0.122,0.2025,0.2741,0.339,0.4017,0.4461,0.4747,0.503,0.5344,0.5727,0.6153,0.6536,0.6934,0.7301,0.7665,0.8009,0.8316,0.8646,0.896,0.9275,0.953,0.9784,0.9887,1.0015,1.0093,1.0285,1.0615,1.0955,1.1447,1.1672,1.1934,1.2272,-1.0851,-1.0751,-1.0447,-1.0314,-1.0274,-1.0193,-1.0115,-0.9972,-1.0034,-1.0199,-1.0264,-1.0198,-1.0151,-1.0141,-1.0135,-1.0088,-1.0166,-1.0428,-1.0687,-1.0954,-1.1303,-1.1712,-1.215,-1.2649,-1.3126,-1.3535,-1.4046,-1.4606,-1.5117,-1.5566,-1.5885,-1.6039,-1.6262,-1.6463,-1.6607,-1.6866,-1.7109,-1.7297,-1.7512,-1.7612,-1.7612,-1.7704,-1.7789,-1.7789,-1.7789,-1.7811,-1.7422,-1.6618,-1.6095,-1.5554,-1.4401,-1.3881,-1.3748,-1.3841,-1.3873,-1.3888,-1.3883,-1.3897,-1.3868,-1.3856,-1.3809,-1.3746,-1.3684,-1.3624,-1.3576,-1.361,-1.3031,-1.1814,-1.0759,-0.9804,-0.8907,-0.8305,-0.7767,-0.7289,-0.6779,-0.6136,-0.5457,-0.4215,-0.2983,-0.1937,-0.0904,0.0044,0.0972,0.1785,0.2564,0.3286,0.3968,0.458,0.5088,0.544,0.5642,0.5934,0.6183,0.657,0.695,0.7301,0.765,0.798,0.8303,0.8603,0.8891,0.921,0.9497,0.9677,0.9875,1.0041,1.0182,1.0187,1.0431,1.1008,1.162,1.2204,1.292,1.3296,1.3513,-1.0385,-1.0199,-0.9895,-0.9744,-0.9686,-0.9607,-0.9576,-0.9576,-0.9594,-0.9674,-0.9793,-0.9832,-0.9881,-0.9911,-0.9971,-1.0049,-1.0127,-1.0428,-1.0697,-1.0964,-1.133,-1.1712,-1.2186,-1.265,-1.3091,-1.3547,-1.4208,-1.4825,-1.5268,-1.5624,-1.5885,-1.6067,-1.6274,-1.649,-1.6659,-1.6892,-1.7109,-1.7273,-1.7512,-1.7589,-1.7612,-1.7721,-1.7789,-1.7789,-1.7789,-1.7794,-1.7364,-1.6537,-1.5931,-1.5374,-1.4417,-1.3891,-1.3809,-1.3868,-1.388,-1.388,-1.3894,-1.388,-1.3838,-1.3793,-1.3715,-1.3653,-1.3542,-1.3495,-1.3177,-1.3076,-1.2335,-1.1224,-1.0825,-0.9964,-0.8671,-0.7898,-0.7413,-0.6929,-0.6251,-0.5536,-0.4451,-0.3179,-0.2109,-0.1158,-0.011,0.0924,0.1785,0.2521,0.3277,0.3872,0.4552,0.5088,0.5609,0.6082,0.63,0.6511,0.6763,0.7005,0.7334,0.7651,0.8009,0.8319,0.8595,0.8912,0.9218,0.9481,0.9728,0.9857,1.0058,1.034,1.0429,1.0615,1.1191,1.1918,1.2489,1.3034,1.3766,1.4394,1.4491,-0.9944,-0.9652,-0.9515,-0.9426,-0.9328,-0.9328,-0.9328,-0.9328,-0.9426,-0.9484,-0.9524,-0.9634,-0.9674,-0.9753,-0.9862,-0.9941,-1.0088,-1.039,-1.0659,-1.0954,-1.133,-1.17,-1.2174,-1.265,-1.3173,-1.3782,-1.4415,-1.4856,-1.5298,-1.5624,-1.5913,-1.6095,-1.6301,-1.6517,-1.6696,-1.6917,-1.7109,-1.7289,-1.7482,-1.7566,-1.7635,-1.7743,-1.7789,-1.7789,-1.7789,-1.7783,-1.7335,-1.6663,-1.5867,-1.5156,-1.4416,-1.4007,-1.3836,-1.3894,-1.3909,-1.3906,-1.3923,-1.388,-1.3806,-1.3731,-1.3638,-1.356,-1.3429,-1.321,-1.2921,-1.2288,-1.1548,-1.0897,-1.0511,-0.9703,-0.8424,-0.7547,-0.7071,-0.6381,-0.5632,-0.4752,-0.3434,-0.2198,-0.1267,-0.0352,0.0658,0.1742,0.2521,0.3241,0.3894,0.4503,0.5049,0.5579,0.6064,0.6511,0.6845,0.7089,0.7338,0.7562,0.7738,0.8007,0.8303,0.8567,0.8863,0.9199,0.9508,0.9681,0.9844,0.9971,1.0197,1.0694,1.1134,1.1408,1.207,1.2795,1.315,1.3631,1.4277,1.4839,1.5145,-0.943,-0.9359,-0.9368,-0.9328,-0.9288,-0.9306,-0.9306,-0.9297,-0.9332,-0.9381,-0.9475,-0.9496,-0.9576,-0.9723,-0.9783,-0.9902,-1.0059,-1.0361,-1.0621,-1.0916,-1.1303,-1.17,-1.2174,-1.2756,-1.3412,-1.4013,-1.4574,-1.4932,-1.5313,-1.5624,-1.5883,-1.6019,-1.6254,-1.6454,-1.6632,-1.6779,-1.6881,-1.7027,-1.7186,-1.7292,-1.7467,-1.7586,-1.7772,-1.7789,-1.7789,-1.7444,-1.691,-1.6149,-1.5475,-1.4813,-1.4224,-1.3898,-1.3848,-1.3923,-1.3938,-1.3923,-1.3938,-1.3897,-1.3791,-1.3669,-1.3576,-1.3412,-1.3261,-1.3002,-1.2526,-1.1859,-1.1034,-1.0105,-0.9584,-0.8785,-0.7734,-0.7157,-0.663,-0.5646,-0.479,-0.363,-0.2407,-0.1397,-0.0462,0.0439,0.1378,0.2293,0.3084,0.3818,0.4503,0.5087,0.5639,0.6124,0.6433,0.6891,0.7408,0.7651,0.7895,0.7979,0.8119,0.831,0.8603,0.8852,0.9099,0.9403,0.9643,0.9806,0.9965,1.0307,1.0791,1.1334,1.174,1.2314,1.2941,1.36,1.3768,1.4178,1.4798,1.5161,1.5325]},{"header":{"parameterUnit":"m.s-1","parameterCategory":1,"la1":31.0,"la2":29.5877,"lo1":-88.7671,"lo2":-86.6584,"dy":0.0162,"dx":0.0185,"nx":115,"ny":88,"refTime":"2023-05-19T18:00:00:Z","depth":0,"parameterNumber":3,"parameterNumberName":"V-component_of_WINDS"},"data":[0.0,0.0,0.0,0.0,0.0,0.0,0.0,0.0,0.0,0.0,0.0,0.0,0.0,0.0,0.0,0.0,0.0,0.0,0.0,0.0,0.0,0.0,0.0,0.0,0.0,0.0,0.0,0.0,0.0,0.0,0.0,0.0,0.0,0.0,0.0,0.0,0.0,0.0,0.0,0.0,0.0,0.0,0.0,0.0,0.0,0.0,0.0,0.0,0.0,0.0,0.0,0.0,0.0,0.0,0.0,0.0,0.0,0.0,0.0,0.0,0.0,0.0,0.0,0.0,0.0,0.0,0.0,0.0,0.0,0.0,0.0,0.0,0.0,0.0,0.0,0.0,0.0,0.0,0.0,0.0,0.0,0.0,0.0,0.0,0.0,0.0,0.0,0.0,0.0,0.0,0.0,0.0,0.0,0.0,0.0,0.0,0.0,0.0,0.0,0.0,0.0,0.0,0.0,0.0,0.0,0.0,0.0,0.0,0.0,0.0,0.0,0.0,0.0,0.0,0.0,0.0,0.0,0.0,0.0,0.0,0.0,0.0,0.0,0.0,0.0,0.0,0.0,0.0,0.0,0.0,0.0,0.0,0.0,0.0,0.0,0.0,0.0,0.0,0.0,0.0,0.0,0.0,0.0,0.0,0.0,0.0,0.0,0.0,0.0,0.0,0.0,0.0,0.0,0.0,0.0,0.0,0.0,0.0,0.0,0.0,0.0,0.0,0.0,0.0,0.0,0.0,0.0,0.0,0.0,0.0,0.0,0.0,0.0,0.0,0.0,0.0,0.0,0.0,0.0,0.0,0.0,0.0,0.0,0.0,0.0,0.0,0.0,0.0,0.0,0.0,0.0,0.0,0.0,0.0,0.0,0.0,0.0,0.0,0.0,0.0,0.0,0.0,0.0,0.0,0.0,0.0,0.0,0.0,0.0,0.0,0.0,0.0,0.0,0.0,0.0,0.0,0.0,0.0,0.0,0.0,0.0,0.0,0.0,0.0,0.0,0.0,0.0,0.0,0.0,0.0,0.0,0.0,0.0,0.0,0.0,0.0,0.0,0.0,0.0,0.0,0.0,0.0,0.0,0.0,0.0,0.0,0.0,0.0,0.0,0.0,0.0,0.0,0.0,0.0,0.0,0.0,0.0,0.0,0.0,0.0,0.0,0.0,0.0,0.0,0.0,0.0,0.0,0.0,0.0,0.0,0.0,0.0,0.0,0.0,0.0,0.0,0.0,0.0,0.0,0.0,0.0,0.0,0.0,0.0,0.0,0.0,0.0,0.0,0.0,0.0,0.0,0.0,0.0,0.0,0.0,0.0,0.0,0.0,0.0,0.0,0.0,0.0,0.0,0.0,0.0,0.0,0.0,0.0,0.0,0.0,0.0,0.0,0.0,0.0,0.0,0.0,0.0,0.0,0.0,0.0,0.0,0.0,0.0,0.0,0.0,0.0,0.0,0.0,0.0,0.0,0.0,0.0,0.0,0.0,0.0,0.0,0.0,0.0,0.0,0.0,0.0,0.0,0.0,0.0,0.0,0.0,0.0,0.0,0.0,0.0,0.0,0.0,0.0,0.0,0.0,0.0,0.0,0.0,0.0,0.0,0.0,0.0,0.0,0.0,0.0,0.0,0.0,0.0,0.0,0.0,0.0,0.0,0.0,0.0,0.0,0.0,0.0,0.0,0.0,0.0,0.0,0.0,0.0,0.0,0.0,0.0,0.0,0.0,0.0,0.0,0.0,0.0,0.0,0.0,0.0,0.0,0.0,0.0,0.0,0.0,0.0,0.0,0.0,0.0,0.0,0.0,0.0,0.0,0.0,0.0,0.0,0.0,0.0,0.0,0.0,0.0,0.0,0.0,0.0,0.0,0.0,0.0,0.0,0.0,0.0,0.0,0.0,0.0,0.0,0.0,0.0,0.0,0.0,0.0,0.0,0.0,0.0,0.0,0.0,0.0,0.0,0.0,0.0,0.0,0.0,0.0,0.0,0.0,0.0,0.0,0.0,0.0,0.0,0.0,0.0,0.0,0.0,0.0,0.0,0.0,0.0,0.0,0.0,0.0,0.0,0.0,0.0,0.0,0.0,0.0,0.0,0.0,0.0,0.0,0.0,0.0,0.0,0.0,0.0,0.0,0.0,0.0,0.0,0.0,0.0,0.0,0.0,0.0,0.0,0.0,0.0,0.0,0.0,0.0,0.0,0.0,0.0,0.0,0.0,0.0,0.0,0.0,0.0,0.0,0.0,0.0,0.0,0.0,0.0,0.0,0.0,0.0,0.0,0.0,0.0,0.0,0.0,0.0,0.0,0.0,0.0,0.0,0.0,0.0,0.0,0.0,0.0,0.0,0.0,0.0,0.0,0.0,0.0,0.0,0.0,0.0,0.0,0.0,0.0,0.0,0.0,0.0,0.0,0.0,0.0,0.0,0.0,0.0,0.0,0.0,0.0,0.0,0.0,0.0,0.0,0.0,0.0,0.0,0.0,0.0,0.0,0.0,0.0,0.0,0.0,0.0,0.0,0.0,0.0,0.0,0.0,0.0,0.0,0.0,0.0,0.0,0.0,0.0,0.0,0.0,0.0,0.0,0.0,0.0,0.0,0.0,0.0,0.0,0.0,0.0,0.0,0.0,0.0,0.0,0.0,0.0,0.0,0.0,0.0,0.0,0.0,0.0,0.0,0.0,0.0,0.0,0.0,0.0,0.0,0.0,0.0,0.0,0.0,0.0,0.0,0.0,0.0,0.0,0.0,0.0,0.0,0.0,0.0,0.0,0.0,0.0,0.0,0.0,0.0,0.0,0.0,0.0,0.0,0.0,0.0,0.0,0.0,0.0,0.0,0.0,0.0,0.0,0.0,0.0,0.0,0.0,0.0,0.0,0.0,0.0,0.0,0.0,0.0,0.0,0.0,0.0,0.0,0.0,0.0,0.0,0.0,0.0,0.0,0.0,0.0,0.0,0.0,0.0,0.0,0.0,0.0,0.0,0.0,0.0,0.0,0.0,0.0,0.0,0.0,0.0,0.0,0.0,0.0,0.0,0.0,0.0,0.0,0.0,0.0,0.0,0.0,0.0,0.0,0.0,0.0,0.0,0.0,0.0,0.0,0.0,0.0,0.0,0.0,0.0,0.0,0.0,0.0,0.0,0.0,0.0,0.0,0.0,0.0,0.0,0.0,0.0,0.0,0.0,0.0,0.0,0.0,0.0,0.0,0.0,0.0,0.0,0.0,0.0,0.0,0.0,0.0,0.0,0.0,0.0,0.0,0.0,0.0,0.0,0.0,0.0,0.0,0.0,0.0,0.0,0.0,0.0,0.0,0.0,0.0,0.0,0.0,0.0,0.0,0.0,0.0,0.0,0.0,0.0,0.0,0.0,0.0,0.0,0.0,0.0,0.0,0.0,0.0,0.0,0.0,0.0,0.0,0.0,0.0,0.0,0.0,0.0,0.0,0.0,0.0,0.0,0.0,0.0,0.0,0.0,0.0,0.0,0.0,0.0,0.0,0.0,0.0,0.0,0.0,0.0,0.0,0.0,0.0,0.0,0.0,0.0,0.0,0.0,0.0,0.0,0.0,0.0,0.0,0.0,0.0,0.0,0.0,0.0,0.0,0.0,0.0,0.0,0.0,0.0,0.0,0.0,0.0,0.0,0.0,0.0,0.0,0.0,0.0,0.0,0.0,0.0,0.0,0.0,0.0,0.0,0.0,0.0,0.0,0.0,0.0,0.0,0.0,0.0,0.0,0.0,0.0,0.0,0.0,0.0,0.0,0.0,0.0,0.0,0.0,0.0,0.0,0.0,0.0,0.0,0.0,0.0,0.0,0.0,0.0,0.0,0.0,0.0,0.0,0.0,0.0,0.0,0.0,0.0,0.0,0.0,0.0,0.0,0.0,0.0,0.0,0.0,0.0,0.0,0.0,0.0,0.0,0.0,0.0,0.0,0.0,0.0,0.0,0.0,0.0,0.0,0.0,0.0,0.0,0.0,0.0,0.0,0.0,0.0,0.0,0.0,0.0,0.0,0.0,0.0,0.0,0.0,0.0,0.0,0.0,0.0,0.0,0.0,0.0,0.0,0.0,0.0,0.0,0.0,0.0,0.0,0.0,0.0,0.0,0.0,0.0,0.0,0.0,0.0,0.0,0.0,0.0,0.0,0.0,0.0,0.0,0.0,0.0,0.0,0.0,0.0,0.0,0.0,0.0,0.0,0.0,0.0,0.0,0.0,0.0,0.0,0.0,0.0,0.0,0.0,0.0,0.0,0.0,0.0,0.0,0.0,0.0,0.0,0.5737,0.0,0.0,0.0,0.0,0.0,0.0,0.0,0.0,0.0,0.0,0.0,0.0,0.0,0.0,0.0,0.0,0.0,0.0,0.0,0.0,0.0,0.0,0.0,0.0,0.0,0.0,0.0,0.0,0.0,0.0,0.0,0.0,0.0,0.0,0.0,0.0,0.0,0.0,0.0,0.0,0.0,0.0,0.0,0.0,0.0,0.0,0.0,0.0,0.0,0.0,0.0,0.0,0.0,0.0,0.0,0.0,0.0,0.0,0.0,0.0,0.0,0.0,0.0,0.0,0.0,0.0,0.0,0.0,0.0,0.0,0.0,0.0,0.0,0.0,0.0,0.0,0.0,0.0,0.0,0.0,0.0,0.0,0.0,0.0,0.0,0.0,0.0,0.0,0.0,0.0,0.0,0.0,0.0,0.0,0.0,0.0,0.0,0.0,0.0,0.0,0.0,0.0,0.0,0.0,0.0,0.0,0.0,0.0,0.0,0.0,0.6318,0.6707,0.7271,0.7298,0.6764,0.0,0.0,0.0,0.0,0.0,0.0,0.0,0.0,0.0,0.0,0.0,0.0,0.0,0.0,0.0,0.0,0.0,0.0,0.0,0.0,0.0,0.0,0.0,0.0,0.0,0.0,0.0,0.0,0.0,0.0,0.0,0.0,0.0,0.0,0.0,0.0,0.0,0.0,0.0,0.0,0.0,0.0,0.0,0.0,0.0,0.0,0.0,0.0,0.0,0.0,0.0,0.0,0.0,0.0,0.0,0.0,0.0,0.0,0.0,0.0,0.0,0.0,0.0,0.0,0.0,0.0,0.0,0.0,0.0,0.0,0.0,0.0,0.0,0.0,0.0,0.0,0.0,0.0,0.0,0.0,0.0,0.0,0.0,0.0,0.0,0.0,0.0,0.0,0.0,0.0,0.0,0.0,0.0,0.0,0.0,0.0,0.0,0.0,0.0,0.0,0.0,0.0,0.0,0.0,0.0,0.0,0.0,0.0,0.0,0.0,0.0,0.0,0.7748,0.7897,0.7598,0.0,0.0,0.0,0.0,0.0,0.0,0.0,0.0,0.0,0.0,0.0,0.0,0.0,0.0,0.0,0.0,0.0,0.0,0.0,0.0,0.0,0.0,0.0,0.0,0.0,0.0,0.0,0.0,0.0,0.0,0.0,0.0,0.0,0.0,0.0,0.0,0.0,0.0,0.0,0.0,0.0,0.0,0.0,0.0,0.0,0.0,0.0,0.0,0.0,0.0,0.0,0.0,0.0,0.0,0.0,0.0,0.0,0.0,0.0,0.0,0.0,0.0,0.0,0.0,0.0,0.0,0.0,0.0,0.0,0.0,0.0,0.0,0.0,0.0,0.0,0.0,0.0,0.0,0.0,0.0,0.0,0.0,0.0,0.0,0.0,0.0,0.0,0.0,0.0,0.0,0.0,0.0,0.0,0.0,0.0,0.0,0.0,0.0,0.0,0.0,0.0,0.0,0.0,0.0,0.0,0.0,0.0,0.0,0.0,0.0,0.6819,0.6844,0.7884,0.0,0.787,0.0,0.0,0.0,0.0,0.0,0.0,0.0,0.0,0.0,0.0,0.0,0.0,0.0,0.0,0.0,0.0,0.0,0.0,0.0,0.0,0.0,0.0,0.0,0.0,0.0,0.0,0.0,0.0,0.0,0.0,0.0,0.0,0.0,0.0,0.0,0.0,0.0,0.0,0.0,0.0,0.0,0.0,0.0,0.0,0.0,0.0,0.0,0.0,0.0,0.0,0.0,0.0,0.0,0.0,0.0,0.0,0.0,0.0,0.0,0.0,0.0,0.0,0.0,0.0,0.0,0.0,0.0,0.0,0.0,0.0,0.0,0.0,0.0,0.0,0.0,0.0,0.0,0.0,0.0,0.0,0.0,0.0,0.0,0.0,0.0,0.0,0.0,0.0,0.0,0.0,0.0,0.0,0.0,0.0,0.0,0.0,0.0,0.0,0.0,0.0,0.0,0.0,0.0,0.0,0.0,0.0,0.0,0.0,0.0,0.0,0.6645,0.7373,0.7976,0.8383,0.0,0.0,0.0,0.0,0.0,0.0,0.0,0.0,0.0,0.0,0.0,0.0,0.0,0.0,0.0,0.0,0.0,0.0,0.0,0.0,0.0,0.0,0.0,0.0,0.0,0.0,0.0,0.0,0.0,0.0,0.0,0.0,0.0,0.0,0.0,0.0,0.0,0.0,0.0,0.0,0.0,0.0,0.0,0.0,0.0,0.0,0.0,0.0,0.0,0.0,0.0,0.0,0.0,0.0,0.0,0.0,0.0,0.0,0.0,0.0,0.0,0.0,0.0,0.0,0.0,0.0,0.0,0.0,0.0,0.0,0.0,0.0,0.0,0.0,0.0,0.0,0.0,0.0,0.0,0.0,0.0,0.0,0.0,0.0,0.0,0.0,0.0,0.0,0.0,0.0,0.0,0.0,0.0,0.0,0.0,0.0,0.0,0.0,0.0,0.0,0.0,0.0,0.0,0.0,0.0,0.0,0.0,0.0,0.0,0.0,0.5549,0.6449,0.7773,0.8003,0.8342,0.8846,0.0,0.0,0.0,0.0,0.0,0.0,0.0,0.0,0.0,0.0,0.0,0.0,0.0,0.0,0.0,0.0,0.0,0.0,0.0,0.0,0.0,0.0,0.0,0.0,0.0,0.0,0.0,0.0,0.0,0.0,0.0,0.0,0.0,0.0,0.0,0.0,0.0,0.0,0.0,0.0,0.0,0.0,0.0,0.0,0.0,0.0,0.0,0.0,0.0,0.0,0.0,0.0,0.0,0.0,0.0,0.0,0.0,0.0,0.0,0.0,0.0,0.0,0.0,0.0,0.0,0.0,0.0,0.0,0.0,0.0,0.0,0.0,0.0,0.0,0.0,0.0,0.0,0.0,0.0,0.0,0.0,0.0,0.0,0.0,0.0,0.0,0.0,0.0,0.0,0.0,0.0,0.0,0.0,0.0,0.0,0.0,0.0,0.0,0.0,0.0,0.0,0.0,0.0,0.0,0.0,0.0,0.0,0.0,0.4548,0.5176,0.6309,0.79,0.7865,0.8112,0.0,0.0,0.0,0.0,0.0,0.0,0.0,0.0,0.0,0.0,0.0,0.0,0.0,0.0,0.0,0.0,0.0,0.0,0.0,0.0,0.0,0.0,0.0,0.0,0.0,0.0,0.0,0.0,0.0,0.0,0.0,0.0,0.0,0.0,0.0,0.0,0.0,0.0,0.0,0.0,0.0,0.0,0.0,0.0,0.0,0.0,0.0,0.0,0.0,0.0,0.0,0.0,0.0,0.0,0.0,0.0,0.0,0.0,0.0,0.0,0.0,0.0,0.0,0.0,0.0,0.0,0.0,0.0,0.0,0.0,0.0,0.0,0.0,0.0,0.0,0.0,0.0,0.0,0.0,0.0,0.0,0.0,0.0,0.0,0.0,0.0,0.0,0.0,0.0,0.0,0.0,0.0,0.0,0.0,0.0,0.0,0.0,0.0,0.0,0.0,0.0,0.0,0.0,0.0,0.0,0.0,0.0,0.0,0.0,0.4205,0.502,0.5961,0.7059,0.7091,0.7371,0.0,0.0,0.0,0.0,0.0,0.0,0.0,0.0,0.0,0.0,0.0,0.0,0.0,0.0,0.0,0.0,0.0,0.0,0.0,0.0,0.0,0.0,0.0,0.0,0.0,0.0,0.0,0.0,0.0,0.0,0.0,0.0,0.0,0.0,0.0,0.0,0.0,0.0,0.0,0.0,0.0,0.0,0.0,0.0,0.0,0.0,0.0,0.0,0.0,0.0,0.0,0.0,0.0,0.0,0.0,0.0,0.0,0.0,0.0,0.0,0.0,0.0,0.0,0.0,0.0,0.0,0.0,0.0,0.0,0.0,0.0,0.0,0.0,0.0,0.0,0.0,0.0,0.0,0.0,0.0,0.0,0.0,0.0,0.0,0.0,0.0,0.0,0.0,0.0,0.0,0.0,0.0,0.0,0.0,0.0,0.0,0.0,0.0,0.0,0.0,0.0,0.0,0.0,0.0,0.0,0.0,0.0,0.0,0.0,0.3798,0.0,0.5387,0.6129,0.6329,0.6762,0.0,0.0,0.0,0.0,0.0,0.0,0.0,0.0,0.0,0.0,0.0,0.0,0.0,0.0,0.0,0.0,0.0,0.0,0.0,0.0,0.0,0.0,0.0,0.0,0.0,0.0,0.0,0.0,0.0,0.0,0.0,0.0,0.0,0.0,0.0,0.0,0.0,0.0,0.0,0.0,0.0,0.0,0.0,0.0,0.0,0.0,0.0,0.0,0.0,0.0,0.0,0.0,0.0,0.0,0.0,0.0,0.0,0.0,0.0,0.0,0.0,0.0,0.0,0.0,0.0,0.0,0.0,0.0,0.0,0.0,0.0,0.0,0.0,0.0,0.0,0.0,0.0,0.0,0.0,0.0,0.0,0.0,0.0,0.0,0.0,0.0,0.0,0.0,0.0,0.0,0.0,0.0,0.0,0.0,0.0,0.0,0.0,0.0,0.0,0.0,0.0,0.0,0.0,0.0,0.0,0.0,0.0,0.0,0.3014,0.3302,0.3871,0.4526,0.5281,0.5638,0.6243,0.0,0.0,0.0,0.0,0.0,0.0,0.0,0.0,0.0,0.0,0.0,0.0,0.0,0.0,0.0,0.0,0.0,0.0,0.0,0.0,0.0,0.0,0.0,0.0,0.0,0.0,0.0,0.0,0.0,0.0,0.0,0.0,0.0,0.0,0.0,0.0,0.0,0.0,0.0,0.0,0.0,0.0,0.0,0.0,0.0,0.0,0.0,0.0,0.0,0.0,0.0,0.0,0.0,0.0,0.0,0.0,0.0,0.0,0.0,0.0,0.0,0.0,0.0,0.0,0.0,0.0,0.0,0.0,0.0,0.0,0.0,0.0,0.0,0.0,0.0,0.0,0.0,0.0,0.0,0.0,0.0,0.0,0.0,0.0,0.0,0.0,0.0,0.0,0.0,0.0,0.0,0.0,0.0,0.0,0.0,0.0,0.0,0.0,0.0,0.0,0.0,0.0,0.0,0.0,0.0,0.0,0.0,0.0,0.0,0.273,0.2973,0.3409,0.403,0.4623,0.5264,0.0,0.0,0.0,0.0,0.0,0.0,0.0,0.0,0.0,0.0,0.0,0.0,0.0,0.0,0.0,0.0,0.0,0.0,0.0,0.0,0.0,0.0,0.0,0.0,0.0,0.0,0.0,0.0,0.0,0.0,0.0,0.0,0.0,0.0,0.0,0.0,0.0,0.0,0.0,0.0,0.0,0.0,0.0,0.0,0.0,0.0,0.0,0.0,0.0,0.0,0.0,0.0,0.0,0.0,0.0,0.0,0.0,0.0,0.0,0.0,0.0,0.0,0.0,0.0,0.0,0.0,0.0,0.0,0.0,0.0,0.0,0.0,0.0,0.0,0.0,0.0,0.0,0.0,0.0,0.0,0.0,0.0,0.0,0.0,0.0,0.0,0.0,0.0,0.0,0.0,0.0,0.0,0.0,0.0,0.0,0.0,0.0,0.0,0.0,0.0,0.0,0.0,0.0,0.0,0.0,0.0,0.0,0.0,0.0,0.1698,0.2076,0.2536,0.3108,0.3818,0.4615,0.5502,0.0,0.0,0.0,0.0,0.0,0.0,0.0,0.0,0.0,0.0,0.0,0.0,0.0,0.0,0.0,0.0,0.0,0.0,0.0,0.0,0.0,0.0,0.0,0.0,0.0,0.0,0.0,0.0,0.0,0.0,0.0,0.0,0.0,0.0,0.0,0.0,0.0,0.0,0.0,0.0,0.0,0.0,0.0,0.0,0.0,0.0,0.0,0.0,0.0,0.0,0.0,0.0,0.0,0.0,0.0,0.0,0.0,0.0,0.0,0.0,0.0,0.0,0.0,0.0,0.0,0.0,0.0,0.0,0.0,0.0,0.0,0.0,0.0,0.0,0.0,0.0,0.0,0.0,0.0,0.0,0.0,0.0,0.0,0.0,0.0,0.0,0.0,0.0,0.0,0.0,0.0,0.0,0.0,0.0,0.0,0.0,0.0,0.0,0.0,0.0,0.0,0.0,0.0,0.0,0.0,0.0,0.0,0.0,0.0334,0.1178,0.1883,0.245,0.3252,0.4245,0.0,0.0,0.0,0.0,0.0,0.0,0.0,0.0,0.0,0.0,0.0,0.0,0.0,0.0,0.0,0.0,0.0,0.0,0.0,0.0,0.0,0.0,0.0,0.0,0.0,0.0,0.0,0.0,0.0,0.0,0.0,0.0,0.0,0.0,0.0,0.0,0.0,0.0,0.0,0.0,0.0,0.0,0.0,0.0,0.0,0.0,0.0,0.0,0.0,0.0,0.0,0.0,0.0,0.0,0.0,0.0,0.0,0.0,0.0,0.0,0.0,0.0,0.0,0.0,0.0,0.0,0.0,0.0,0.0,0.0,0.0,0.0,0.0,0.0,0.0,0.0,0.0,0.0,0.0,0.0,0.0,0.0,0.0,0.0,0.0,0.0,0.0,0.0,0.0,0.0,0.0,0.0,0.0,0.0,0.0,0.0,0.0,0.0,0.0,0.0,0.0,0.0,0.0,0.0,0.0,0.0,0.0,0.0,0.0,-0.0245,0.0244,0.0995,0.1963,0.2815,0.3901,0.0,0.0,0.0,0.0,0.0,0.0,0.0,0.0,0.0,0.0,0.0,0.0,0.0,0.0,0.0,0.0,0.0,0.0,0.0,0.0,0.0,0.0,0.0,0.0,0.0,0.0,0.0,0.0,0.0,0.0,0.0,0.0,0.0,0.0,0.0,0.0,0.0,0.0,0.0,0.0,0.0,0.0,0.0,0.0,0.0,0.0,0.0,0.0,0.0,0.0,0.0,0.0,0.0,0.0,0.0,0.0,0.0,0.0,0.0,0.0,0.0,0.0,0.0,0.0,0.0,0.0,0.0,0.0,0.0,0.0,0.0,0.0,0.0,0.0,0.0,0.0,0.0,0.0,0.0,0.0,0.0,0.0,0.0,0.0,0.0,0.0,0.0,0.0,0.0,0.0,0.0,0.0,0.0,0.0,0.0,0.0,0.0,0.0,0.0,0.0,0.0,0.0,0.0,0.0,0.0,0.0,0.0,0.0,-0.1001,-0.0825,-0.0356,0.0332,0.1277,0.2297,0.361,0.0,0.0,0.0,0.0,0.0,0.0,0.0,0.0,0.0,0.0,0.0,0.0,0.0,0.0,0.0,0.0,0.0,0.0,0.0,0.0,0.0,0.0,0.0,0.0,0.0,0.0,0.0,0.0,0.0,0.0,0.0,0.0,0.0,0.0,0.0,0.0,0.0,0.0,0.0,0.0,0.0,0.0,0.0,0.0,0.0,0.0,0.0,0.0,0.0,0.0,0.0,0.0,0.0,0.0,0.0,0.0,0.0,0.0,0.0,0.0,0.0,0.0,0.0,0.0,0.0,0.0,0.0,0.0,0.0,0.0,0.0,0.0,0.0,0.0,0.0,0.0,0.0,0.0,0.0,0.0,0.0,0.0,0.0,0.0,0.0,0.0,0.0,0.0,0.0,0.0,0.0,0.0,0.0,0.0,0.0,0.0,0.0,0.0,0.0,0.0,0.0,0.0,0.0,0.0,0.0,0.0,0.0,0.0,-0.156,-0.1319,-0.0757,-0.0111,0.0596,0.1793,0.335,0.0,0.0,0.0,0.0,0.0,0.0,0.0,0.0,0.0,0.0,0.0,0.0,0.0,0.0,0.0,0.0,0.0,0.0,0.0,0.0,0.0,0.0,0.0,0.0,0.0,0.0,0.0,0.0,0.0,0.0,0.0,0.0,0.0,0.0,0.0,0.0,0.0,0.0,0.0,0.0,0.0,0.0,0.0,0.0,0.0,0.0,0.0,0.0,0.0,0.0,0.0,0.0,0.0,0.0,0.0,0.0,0.0,0.0,0.0,0.0,0.0,0.0,0.0,0.0,0.0,0.0,0.0,0.0,0.0,0.0,0.0,0.0,0.0,0.0,0.0,0.0,0.0,0.0,0.0,0.0,0.0,0.0,0.0,0.0,0.0,0.0,0.0,0.0,0.0,0.0,0.0,0.0,0.0,0.0,0.0,0.0,0.0,0.0,0.0,0.0,0.0,0.0,0.0,0.0,0.0,0.0,0.0,0.0,-0.1803,-0.1538,-0.1003,-0.0356,0.0445,0.1626,0.3029,0.0,0.0,0.0,0.0,0.0,0.0,0.0,0.0,0.0,0.0,0.0,0.0,0.0,0.0,0.0,0.0,0.0,0.0,0.0,0.0,0.0,0.0,0.0,0.0,0.0,0.0,0.0,0.0,0.0,0.0,0.0,0.0,0.0,0.0,0.0,0.0,0.0,0.0,0.0,0.0,0.0,0.0,0.0,0.0,0.0,0.0,0.0,0.0,0.5112,0.0,0.0,0.0,0.0,0.0,0.0,0.0,0.0,0.0,0.0,0.0,0.0,0.0,0.0,0.0,0.0,0.0,0.0,0.0,0.0,0.0,0.0,0.0,0.0,0.0,0.0,0.0,0.0,0.0,0.0,0.0,0.0,0.0,0.0,0.0,0.0,0.0,0.0,0.0,0.0,0.0,0.0,0.0,0.0,0.0,0.0,0.0,0.0,0.0,0.0,0.0,0.0,0.0,0.0,0.0,0.0,0.0,0.0,0.0,-0.2096,-0.1781,-0.12,-0.047,0.0377,0.1441,0.2741,0.0,0.0,0.0,0.0,0.0,0.0,0.0,0.0,0.0,0.0,0.0,0.0,0.0,0.0,0.0,0.0,0.0,0.0,0.0,0.0,0.0,0.0,0.0,0.0,0.0,0.0,0.0,0.0,0.0,0.0,0.0,0.0,0.0,0.0,0.0,0.0,0.0,0.0,0.0,0.0,0.0,0.0,0.0,0.0,0.0,0.0,0.0,0.0,0.0,0.0,0.0,0.0,0.0,0.0,0.0,0.0,0.0,0.0,0.0,0.0,0.0,0.0,0.0,0.0,0.0,0.0,0.0,0.0,0.0,0.0,0.0,0.0,0.0,0.0,0.0,0.0,0.0,0.0,0.0,0.0,0.0,0.0,0.0,0.0,0.0,0.0,0.0,0.0,0.0,0.0,0.0,0.0,0.0,0.0,0.0,0.0,0.0,0.0,0.0,0.0,0.0,0.0,0.0,0.0,0.0,0.0,0.0,-0.2567,-0.2302,-0.1945,-0.1299,-0.0523,0.0363,0.1317,0.2502,0.3994,0.0,0.0,0.0,0.0,0.0,0.0,0.0,0.0,0.0,0.0,0.0,0.0,0.0,0.0,0.0,0.0,0.0,0.0,0.0,0.0,0.0,0.0,0.0,0.0,0.0,0.0,0.0,0.0,0.0,0.0,0.0,0.0,0.0,0.0,0.0,0.0,0.0,0.0,0.3774,0.3709,0.0,0.0,0.0,0.0,0.0,0.0,0.0,0.0,0.6159,0.0,0.0,0.0,0.0,0.0,0.0,0.0,0.0,0.0,0.0,0.0,0.0,0.0,0.0,0.0,0.0,0.0,0.0,0.0,0.0,0.0,0.0,0.0,0.0,0.0,0.0,0.0,0.0,0.0,0.0,0.0,0.0,0.0,0.0,0.0,0.0,0.0,0.0,0.0,0.0,0.0,0.0,0.0,0.0,0.0,0.0,0.0,0.0,0.0,0.0,0.0,0.0,0.0,0.0,0.0,0.0,-0.288,-0.2572,-0.2169,-0.1657,-0.1117,-0.0452,0.0388,0.1378,0.2335,0.3297,0.0,0.0,0.0,0.0,0.0,0.0,0.0,0.0,0.0,0.0,0.0,0.0,0.0,0.0,0.0,0.0,0.0,0.0,0.0,0.0,0.0,0.0,0.0,0.0,0.0,0.0,0.0,0.0,0.0,0.0,0.0,0.0,0.0,0.0,0.0,0.0,0.0,0.0,0.0,0.3953,0.4154,0.0,0.0,0.0,0.0,0.0,0.0,0.0,0.0,0.671,0.0,0.0,0.0,0.0,0.0,0.0,0.0,0.0,0.0,0.0,0.0,0.0,0.0,0.0,0.0,0.0,0.0,0.0,0.0,0.0,0.0,0.0,0.0,0.0,0.0,0.0,0.0,0.0,0.0,0.0,0.0,0.0,0.0,0.0,0.0,0.0,0.0,0.0,0.0,0.0,0.0,0.0,0.0,0.0,0.0,0.0,0.0,0.0,0.0,0.0,0.0,0.0,0.0,0.0,0.0,-0.2975,-0.2512,-0.2029,-0.1489,-0.0896,-0.0249,0.0498,0.1442,0.2296,0.0,0.0,0.0,0.0,0.0,0.0,0.0,0.0,0.0,0.0,0.0,0.0,0.0,0.0,0.0,0.0,0.0,0.0,0.0,0.0,0.0,0.0,0.0,0.0,0.0,0.0,0.0,0.0,0.0,0.0,0.0,0.0,0.0,0.0,0.0,0.0,0.0,0.0,0.0,0.0,0.3971,0.4098,0.4292,0.0,0.0,0.0,0.0,0.0,0.0,0.6297,0.6662,0.0,0.0,0.0,0.0,0.0,0.0,0.0,0.0,0.0,0.0,0.0,0.0,0.0,0.0,0.0,0.0,0.0,0.0,0.0,0.0,0.0,0.0,0.0,0.0,0.0,0.0,0.0,0.0,0.0,0.0,0.0,0.0,0.0,0.0,0.0,0.0,0.0,0.0,0.0,0.0,0.0,0.0,0.0,0.0,0.0,0.0,0.0,0.0,0.0,0.0,0.0,0.0,0.0,0.0,0.0,-0.3063,-0.2512,-0.1939,-0.139,-0.0745,-0.0078,0.0581,0.15,0.2324,0.0,0.0,0.0,0.0,0.0,0.0,0.0,0.0,0.0,0.0,0.0,0.0,0.0,0.0,0.0,0.0,0.0,0.0,0.0,0.0,0.0,0.0,0.0,0.0,0.0,0.0,0.0,0.0,0.0,0.0,0.0,0.0,0.0,0.0,0.0,0.0,0.0,0.0,0.0,0.0,0.0,0.4032,0.4459,0.4579,0.0,0.0,0.0,0.0,0.5347,0.6017,0.0,0.0,0.0,0.0,0.0,0.0,0.0,0.0,0.0,0.0,0.0,0.0,0.0,0.0,0.0,0.0,0.0,0.0,0.0,0.0,0.0,0.0,0.0,0.0,0.0,0.0,0.0,0.0,0.0,0.0,0.0,0.0,0.0,0.0,0.0,0.0,0.0,0.0,0.0,0.0,0.0,0.0,0.0,0.0,0.0,0.0,0.0,0.0,0.0,0.0,0.0,0.0,0.0,0.0,0.0,0.0,-0.3189,-0.2597,-0.1964,-0.1314,-0.0723,-0.009,0.0601,0.1448,0.2205,0.0,0.0,0.0,0.0,0.0,0.0,0.0,0.0,0.0,0.0,0.0,0.0,0.0,0.0,0.0,0.0,0.0,0.0,0.0,0.0,0.0,0.0,0.0,0.0,0.0,0.0,0.0,0.0,0.0,0.0,0.0,0.0,0.0,0.0,0.0,0.0,0.0,0.0,0.0,0.0,0.0,0.4102,0.424,0.4737,0.5086,0.0,0.0,0.5531,0.5477,0.6155,0.0,0.0,0.0,0.0,0.0,0.0,0.0,0.0,0.0,0.0,0.0,0.0,0.0,0.0,0.0,0.0,0.0,0.0,0.0,0.0,0.0,0.0,0.0,0.0,0.0,0.0,0.0,0.0,0.0,0.0,0.0,0.0,0.0,0.0,0.0,0.0,0.0,0.0,0.0,0.0,0.0,0.0,0.0,0.0,0.0,0.0,0.0,0.0,0.0,0.0,0.0,0.0,0.0,0.0,0.0,-0.4432,-0.3446,-0.2614,-0.1885,-0.1311,-0.0704,-0.014,0.0415,0.1192,0.1909,0.0,0.0,0.0,0.0,0.0,0.0,0.0,0.0,0.0,0.0,0.0,0.0,0.0,0.0,0.0,0.0,0.0,0.0,0.0,0.0,0.0,0.0,0.0,0.0,0.0,0.0,0.0,0.0,0.0,0.0,0.0,0.0,0.0,0.0,0.0,0.0,0.0,0.0,0.0,0.0,0.0,0.0,0.4327,0.4661,0.0,0.0,0.0,0.4599,0.4496,0.0,0.0,0.0,0.0,0.0,0.0,0.0,0.0,0.0,0.0,0.0,0.0,0.0,0.0,0.0,0.0,0.0,0.0,0.0,0.0,0.0,0.0,0.0,0.0,0.0,0.0,0.0,0.0,0.0,0.0,0.0,0.0,0.0,0.0,0.0,0.0,0.0,0.0,0.0,0.0,0.0,0.0,0.0,0.0,0.0,0.0,0.0,0.0,0.0,0.0,0.0,0.0,0.0,0.0,0.0,0.0,0.0,-0.3688,-0.2738,-0.1988,-0.1471,-0.0925,-0.038,0.0144,0.0811,0.0,0.0,0.0,0.0,0.0,0.0,0.0,0.0,0.0,0.0,0.0,0.0,0.0,0.0,0.0,0.0,0.0,0.0,0.0,0.0,0.0,0.0,0.0,0.0,0.0,0.0,0.0,0.3064,0.0,0.0,0.0,0.0,0.0,0.0,0.0,0.0,0.0,0.0,0.0,0.0,0.0,0.0,0.4056,0.4339,0.4394,0.4362,0.0,0.0,0.3774,0.3644,0.419,0.4944,0.0,0.0,0.0,0.0,0.0,0.0,0.0,0.0,0.0,0.0,0.0,0.0,0.0,0.0,0.0,0.0,0.0,0.0,0.0,0.0,0.0,0.0,0.0,0.0,0.0,0.0,0.0,0.0,0.0,0.0,0.0,0.0,0.0,0.0,0.0,0.0,0.0,0.0,0.0,0.0,0.0,0.0,0.0,0.0,0.0,0.0,0.0,0.0,0.0,0.0,0.0,0.0,0.0,0.0,0.0,-0.3902,-0.3075,-0.2392,-0.188,-0.1468,-0.0939,-0.0284,0.0262,0.096,0.0,0.0,0.0,0.0,0.0,0.0,0.0,0.0,0.0,0.0,0.0,0.0,0.0,0.0,0.0,0.0,0.0,0.0,0.0,0.0,0.0,0.0,0.0,0.0,0.0,0.0,0.0,0.0,0.0,0.0,0.0,0.0,0.0,0.0,0.0,0.0,0.0,0.0,0.0,0.0,0.0,0.3665,0.3984,0.3987,0.402,0.0,0.0,0.3579,0.3437,0.3984,0.4749,0.575,0.0,0.0,0.0,0.0,0.0,0.0,0.0,0.0,0.0,0.0,0.0,0.0,0.0,0.0,0.0,0.0,0.0,0.0,0.0,0.0,0.0,0.0,0.0,0.0,0.0,0.0,0.0,0.0,0.0,0.0,0.0,0.0,0.0,0.0,0.0,0.0,0.0,0.0,0.0,0.0,0.0,0.0,0.0,0.0,0.0,0.0,0.0,0.0,0.0,0.0,0.0,0.0,0.0,-0.572,-0.4086,-0.3256,-0.2606,-0.2158,-0.1799,-0.1353,-0.0865,-0.0289,0.031,0.0,0.0,0.0,0.0,0.0,0.0,0.0,0.0,0.0,0.0,0.0,0.0,0.0,0.0,0.0,0.0,0.0,0.0,0.0,0.0,0.0,0.0,0.0,0.0,0.0,0.0,0.0,0.0,0.3109,0.4453,0.6004,0.0,0.0,0.0,0.0,0.0,0.0,0.0,0.0,0.0,0.0,0.2135,0.2579,0.2833,0.0,0.0,0.3282,0.3246,0.3427,0.3546,0.4054,0.5369,0.5849,0.0,0.0,0.0,0.0,0.0,0.0,0.0,0.0,0.0,0.0,0.0,0.0,0.0,0.0,0.0,0.0,0.0,0.0,0.0,0.0,0.0,0.0,0.0,0.0,0.0,0.0,0.0,0.0,0.0,0.0,0.0,0.0,0.0,0.0,0.0,0.0,0.0,0.0,0.0,0.0,0.0,0.0,0.0,0.0,0.0,0.0,0.0,0.0,0.0,0.0,0.0,0.0,-0.6158,-0.4516,-0.3527,-0.2842,-0.2464,-0.218,-0.1843,-0.1397,-0.0887,-0.0333,0.0,0.0,0.0,0.0,0.0,0.0,0.0,0.0,0.0,0.0,0.0,0.0,0.0,0.0,0.0,0.0,0.0,0.0,0.0,0.0,0.0,0.0,0.0,0.0,0.0,0.0,0.0,0.0,0.3504,0.5378,0.7127,0.0,0.0,0.0,0.0,0.0,0.0,0.0,0.0,0.0,0.0,0.0865,0.1239,0.1751,0.225,0.2694,0.2836,0.3031,0.3386,0.321,0.3444,0.4711,0.0,0.0,0.0,0.0,0.0,0.0,0.0,0.0,0.0,0.0,0.0,0.0,0.0,0.0,0.0,0.0,0.0,0.0,0.0,0.0,0.0,0.0,0.0,0.0,0.0,0.0,0.0,-1.0083,0.0,0.0,-0.8144,0.0,0.0,0.0,0.0,0.0,0.0,0.0,0.0,0.0,0.0,0.0,0.0,0.0,0.0,0.0,0.0,0.0,0.0,0.0,0.0,0.0,0.0,-0.6448,-0.5187,-0.393,-0.3126,-0.2794,-0.2669,-0.2342,-0.1894,-0.1488,-0.0953,-0.0289,0.0,0.0,0.0,0.0,0.0,0.0,0.0,0.0,0.0,0.0,0.0,0.0,0.0,0.0,0.0,0.0,0.0,0.0,0.0,0.0,0.0,0.0,0.0,0.0,0.0,0.0,0.1497,0.4175,0.6284,0.0,0.0,0.0,0.0,0.0,0.0,0.0,0.0,0.0,0.0,-0.0136,0.0123,0.0138,0.0868,0.1656,0.2318,0.2695,0.2996,0.3275,0.3027,0.3039,0.0,0.0,0.0,0.0,0.0,0.0,0.0,0.0,0.0,0.0,0.0,0.0,0.0,0.0,0.0,0.0,0.0,0.0,0.0,0.0,0.0,0.0,0.0,0.0,0.0,0.0,0.0,-1.1818,-1.1965,0.0,0.0,0.0,0.0,0.0,0.0,0.0,0.0,0.0,0.0,0.0,-1.0072,-1.0173,0.0,0.0,0.0,0.0,0.0,0.0,0.0,0.0,0.0,0.0,0.0,0.0,-0.6512,-0.5227,-0.4066,-0.3359,-0.308,-0.2794,-0.2555,-0.2294,-0.1865,-0.1176,-0.02,0.0,0.0,0.0,0.0,0.0,0.0,0.0,0.0,0.0,0.0,0.0,0.0,0.0,0.0,0.0,0.0,0.0,0.0,0.0,0.0,0.0,0.0,0.0,0.0,0.0,0.1268,0.0,0.0,0.0,0.0,0.0,0.0,0.0,0.0,0.0,0.0,0.0,0.0046,-0.0911,-0.1273,-0.1292,-0.0886,-0.001,0.0982,0.0,0.0,0.0,0.0,0.0,0.0,0.0,0.0,0.0,0.0,0.0,0.0,0.0,0.0,0.3358,0.4162,0.3879,0.3425,0.3048,0.0,0.0,0.0,0.0,0.0,0.0,0.0,0.0,0.0,0.0,0.0,0.0,0.0,0.0,-1.3808,0.0,-1.2837,0.0,0.0,0.0,0.0,0.0,0.0,0.0,0.0,-1.0161,-1.0173,-1.0122,-1.0173,-1.0135,0.0,-1.0085,-1.0249,0.0,0.0,0.0,0.0,0.0,0.0,0.0,0.0,-0.6794,-0.5538,-0.4476,-0.3707,-0.3321,-0.3117,-0.2873,-0.2582,-0.2066,-0.1355,-0.0445,0.0155,0.0861,0.0,0.0,0.0,0.0,0.0,0.0,0.0,0.0,0.0,0.0,0.0,0.0,0.0,0.0,0.0,0.0,0.0,0.0,0.0,0.0,0.0,0.0,0.0,0.1904,0.0,0.0,0.0,0.0,0.0,0.0,0.0,0.0,0.0,0.1803,0.0506,-0.0656,-0.1588,-0.1995,-0.1984,-0.141,0.0,0.0,0.0,0.0,0.0,0.0,0.0,0.32,0.3506,0.3196,0.2954,0.2954,0.2359,0.1843,0.1821,0.0,0.0,0.323,0.32,0.2806,0.247,0.2307,0.22,0.2042,0.2132,0.2267,0.0,0.0,0.0,0.0,0.0,0.0,0.0,0.0,-1.6034,-1.5173,0.0,-1.4154,0.0,0.0,0.0,0.0,0.0,-1.1003,0.0,0.0,-1.0263,-1.0237,-1.025,-1.0148,-1.0072,-0.9995,-0.9944,-0.9919,-0.9919,-1.0211,0.0,0.0,0.0,0.0,0.0,0.0,-0.7223,-0.6129,-0.5053,-0.4207,-0.3587,-0.358,-0.3319,-0.2723,-0.2132,-0.156,-0.1027,-0.04,0.0311,0.104,0.177,0.0,0.0,0.0,0.0,0.0,0.0,0.0,0.0,0.0,0.0,0.0,0.0,0.0,0.0,0.0,0.0,0.0,0.0,0.0,0.0,0.1565,0.0,0.0,0.0,0.0,0.0,0.0,0.0,0.0,0.0,0.0,0.0023,-0.0479,-0.1127,-0.2309,0.0,0.0,0.0,0.0,0.047,0.1777,0.2558,0.3171,0.3713,0.3365,0.2944,0.268,0.0,0.0,0.0183,-0.0353,-0.0641,-0.0669,-0.059,0.0044,0.1858,0.1938,0.1714,0.1604,0.1563,0.1557,0.151,0.1692,0.1872,-2.0339,0.0,0.0,0.0,0.0,-1.7535,-1.6825,-1.6394,-1.6113,-1.5579,-1.4844,-1.4699,0.0,0.0,0.0,0.0,0.0,0.0,-1.2232,-1.1666,-1.1202,-1.0965,-1.0899,-1.0418,-1.011,-1.0021,-0.997,-0.9944,-0.988,-0.9918,-0.9918,-0.9957,0.0,0.0,0.0,0.0,-0.7246,-0.6524,-0.5541,-0.4813,-0.4438,-0.4127,-0.361,-0.293,-0.2426,-0.1953,-0.1516,-0.0935,-0.0311,0.0444,0.1218,0.0,0.0,0.0,0.0,0.0,0.0,0.0,0.0,0.0,0.0,0.0,0.0,0.0,0.0,0.0,0.0,0.0,0.0,0.0,0.1332,0.1798,0.2364,0.0,0.0,0.0,0.0,0.0,0.0,0.0,0.0,0.0,-0.0624,-0.0627,-0.0864,0.0,0.0,-0.1754,-0.131,-0.0502,0.0437,0.1417,0.222,0.0,0.3507,0.274,0.1971,0.1566,-0.0,-0.1389,-0.1886,-0.2197,-0.2386,-0.2387,-0.2205,-0.1773,-0.0986,0.0022,0.0618,0.0732,0.089,0.1025,0.1092,0.1205,0.1361,-2.1848,-2.1793,-2.0647,-1.9908,-1.948,-1.8419,-1.7603,-1.6921,-1.6363,-1.5817,-1.5328,-1.5037,-1.476,-1.4543,-1.4351,0.0,0.0,0.0,-1.2947,-1.2327,-1.1923,-1.168,-1.1556,-1.1147,-1.087,-1.0749,-1.0695,-1.0653,-1.0571,-1.0405,-1.0199,-0.9936,0.0,0.0,-0.8778,-0.8127,-0.7409,-0.6719,-0.602,-0.542,-0.4918,-0.4395,-0.382,-0.3256,-0.2817,-0.2398,-0.1981,-0.1379,-0.0756,-0.0111,0.0666,0.1419,0.0,0.0,0.0,0.0,0.0,0.0,0.0,0.0,0.0,0.0,0.0,0.3875,0.3515,0.0,0.0,0.0,0.1543,0.1378,0.1543,0.1738,0.0,0.0,0.0,0.0,0.0,0.0,0.0,0.0884,0.0514,-0.0047,-0.1123,-0.1025,-0.1059,-0.154,-0.1651,-0.1554,-0.1218,0.0,0.0199,0.1034,0.1774,0.2379,0.2751,0.1736,0.044,-0.1047,-0.3088,-0.4414,-0.4346,-0.4497,-0.4553,-0.441,-0.4076,-0.3609,-0.3001,-0.1886,-0.0828,-0.0243,0.0111,0.0356,0.0513,0.0717,0.0897,-2.308,-2.2943,-2.1558,-2.0715,-2.0301,-1.9588,-1.8707,-1.7697,-1.6637,-1.5905,-1.5462,-1.516,-1.493,-1.4777,-1.4543,0.0,-1.3698,-1.3536,-1.3177,-1.2561,-1.2505,-1.2406,-1.2287,-1.215,-1.205,-1.189,-1.1755,-1.1678,-1.1605,-1.1412,-1.0973,-1.0283,-0.965,-0.9067,-0.8606,-0.8311,-0.7712,-0.6757,-0.6536,-0.5984,-0.5166,-0.4469,-0.3981,-0.3667,-0.3267,-0.287,-0.2445,-0.175,-0.1139,-0.0579,0.0133,0.0866,0.1601,0.0,0.0,0.0,0.0,0.0,0.0,0.0,0.0,0.0,0.0,0.0,0.0,0.0,0.0,0.0,0.1446,0.0,0.1468,0.1472,0.0,0.0,0.0,0.1608,0.1623,0.1049,0.0402,-0.0252,0.0,0.0,-0.1532,-0.1587,-0.1548,-0.1356,-0.1432,-0.1405,-0.1134,-0.0737,-0.0161,0.0581,0.1217,0.1597,0.1619,0.0363,-0.1579,-0.4207,-0.6643,-0.7517,-0.6961,-0.6882,-0.6884,-0.6529,-0.6041,-0.5318,-0.4397,-0.357,-0.2662,-0.1337,-0.0708,-0.0357,-0.0067,0.0225,0.0495,-2.2928,-2.2894,-2.2341,-2.1635,-2.0814,-1.9657,-1.8872,-1.8261,-1.6713,-1.6095,-1.6184,-1.5365,-1.4949,-1.4808,-1.4732,-1.4599,-1.4429,-1.4294,-1.4132,-1.3901,-1.3344,-1.3038,-1.2947,-1.242,-1.2092,-1.1919,-1.1873,-1.1784,-1.1665,-1.1575,-1.1302,-1.0894,-1.0508,-0.9738,-0.8577,-0.815,-0.7739,-0.7224,-0.6766,-0.6199,-0.5419,-0.4836,-0.4445,-0.4129,-0.3645,-0.3226,-0.2856,-0.2283,-0.1678,-0.1068,-0.0422,0.0244,0.0973,0.1282,0.0,0.0,0.0,0.0,0.0,0.0,0.0,0.0,0.0,0.2848,0.2665,0.0,0.2231,0.0,0.1547,0.1314,0.1275,0.1226,0.0,0.0,0.0783,0.0564,0.0154,-0.0332,-0.0878,-0.1442,-0.1665,-0.1873,-0.2153,-0.1926,-0.1715,-0.1605,-0.1505,-0.1367,-0.1188,-0.0918,-0.0546,-0.0086,0.0383,0.0697,0.0438,-0.1443,-0.3784,-0.6004,-0.7503,-0.8362,-0.8379,-0.8322,-0.8144,-0.7742,-0.7156,-0.6389,-0.5476,-0.4598,-0.3653,-0.263,-0.1629,-0.0825,-0.0469,-0.0179,0.0067,-2.272,-2.2664,-2.2388,-2.1911,-2.1249,-2.0404,-1.9633,-1.8921,-1.8141,-1.7309,-1.6436,-1.5453,-1.4921,-1.4808,-1.4808,-1.4763,-1.4746,-1.4655,-1.4529,-1.442,-1.3979,-1.3749,-1.3641,-1.3214,-1.2944,-1.279,-1.2683,-1.262,-1.2494,-1.238,-1.2044,-1.1447,-1.1178,-1.0389,-0.9113,-0.855,-0.8049,-0.7614,-0.6863,-0.6206,-0.5648,-0.5226,-0.4873,-0.4606,-0.4124,-0.3733,-0.3435,-0.279,-0.2174,-0.164,-0.1043,-0.0399,0.0242,0.0531,0.0863,0.0,0.0,0.0,0.0,0.0,0.0,0.0,0.0,0.0,0.0,0.0,0.1847,0.1574,0.1263,0.1037,0.0946,0.0831,0.0636,0.0351,0.0151,-0.0133,-0.0579,-0.0981,-0.1427,-0.1894,-0.2072,-0.2222,-0.2365,-0.2273,-0.2108,-0.2026,-0.1775,-0.1528,-0.1288,-0.1097,-0.0871,-0.0603,-0.0424,-0.0725,-0.1636,-0.3509,-0.5487,-0.7309,-0.8418,-0.9056,-0.926,-0.9188,-0.8982,-0.8592,-0.7995,-0.7198,-0.6244,-0.5262,-0.4259,-0.3294,-0.2311,-0.1444,-0.0846,-0.0493,-0.018,-2.2487,-2.2332,-2.2073,-2.1811,-2.1542,-2.1261,-2.0544,-1.9623,-1.9891,-1.8728,-1.6505,-1.5538,-1.5049,-1.4921,-1.4836,-1.4808,-1.4777,-1.47,-1.4592,-1.4483,-1.4401,-1.4332,-1.4189,-1.4078,-1.398,-1.3888,-1.3728,-1.3594,-1.348,-1.3323,-1.2824,-1.2001,-1.1741,-1.1081,-1.0011,-0.9274,-0.8528,-0.7913,-0.6905,-0.6238,-0.5877,-0.561,-0.5336,-0.5017,-0.4606,-0.4293,-0.4046,-0.3307,-0.2724,-0.2346,-0.1746,-0.1152,-0.0627,-0.0312,0.0022,0.0,0.0577,0.0,0.0,0.0,0.0,0.0,0.0,0.0,0.0,0.1601,0.1381,0.1059,0.0812,0.0618,0.0551,0.0359,0.0186,0.0044,-0.0267,-0.0601,-0.0914,-0.1252,-0.1607,-0.1986,-0.2272,-0.2436,-0.245,-0.256,-0.2572,-0.2456,-0.2191,-0.1909,-0.1561,-0.1387,-0.1247,-0.1105,-0.1332,-0.219,-0.3921,-0.528,-0.6582,-0.8214,-0.9039,-0.9588,-0.9727,-0.9681,-0.9532,-0.9157,-0.8515,-0.7707,-0.6738,-0.5678,-0.4645,-0.3612,-0.2741,-0.1949,-0.1225,-0.0717,-0.0337,-2.2276,-2.2141,-2.1869,-2.1587,-2.1325,-2.1023,-2.0634,-2.0224,-2.0073,-1.8801,-1.6814,-1.6117,-1.5702,-1.5511,-1.5019,-1.4777,-1.4714,-1.4592,-1.4483,-1.4415,-1.4351,-1.43,-1.4203,-1.4065,-1.3993,-1.3908,-1.3808,-1.3674,-1.348,-1.3391,-1.3101,-1.2565,-1.2224,-1.1786,-1.1155,0.0,0.0,0.0,-0.7402,-0.6804,-0.6216,-0.596,-0.5603,-0.5182,-0.4903,0.0,-0.4405,-0.4095,-0.3694,-0.3192,-0.2686,0.0,0.0,0.0,0.0,0.0,0.0,0.0,0.0,0.0,0.0,0.0,0.065,0.083,0.1139,0.1025,0.0885,0.0698,0.056,0.0388,0.0197,0.0022,-0.0177,-0.038,-0.0626,-0.0936,-0.1208,-0.1516,-0.1847,-0.2132,-0.2459,-0.2665,-0.272,-0.273,-0.2776,-0.2788,-0.2611,-0.2471,-0.2449,-0.2054,-0.1871,-0.2097,-0.2627,-0.3458,-0.4569,-0.5709,-0.6829,-0.8,-0.8811,-0.9382,-0.971,-0.9824,-0.9751,-0.9445,-0.8827,-0.7995,-0.7,-0.5942,-0.4867,-0.3769,-0.2906,-0.2141,-0.1383,-0.0916,-0.0537,-2.2512,-2.1998,-2.1738,-2.1481,0.0,-2.0794,-2.0512,-2.0239,-1.9954,-1.8862,-1.7171,-1.665,-1.6355,-1.6171,-1.5539,-1.5193,-1.5147,-1.4717,-1.4452,-1.4397,-1.4319,-1.4268,-1.4235,-1.417,-1.4072,-1.396,-1.3874,-1.3754,-1.3493,-1.3412,-1.3151,-1.2709,-1.2365,-1.1968,-1.1474,-1.0484,-0.9309,-0.8009,-0.761,-0.7202,-0.6749,-0.637,-0.6042,-0.5728,-0.5408,0.0,0.0,0.0,0.0,0.0,0.0,0.0,0.0,-0.2042,0.0,-0.1139,-0.0846,-0.058,-0.0313,-0.0157,-0.0045,0.0045,0.009,0.0269,0.0627,0.056,0.0448,0.0313,0.0157,0.0,-0.018,-0.0359,-0.0582,-0.083,-0.1029,-0.1252,-0.1519,-0.1784,-0.2052,-0.2311,-0.2551,-0.2767,-0.2945,-0.3016,-0.3094,-0.3188,-0.3015,-0.2996,-0.3164,-0.2734,-0.2503,-0.2942,-0.3478,-0.4167,-0.5016,-0.5926,-0.6899,-0.7782,-0.8599,-0.9237,-0.9679,-0.9828,-0.9824,-0.955,-0.8938,-0.8145,-0.7181,-0.6088,-0.4944,-0.3885,-0.3006,-0.2228,-0.1516,-0.1003,-0.0625,-2.2862,-2.2023,-2.1699,-2.134,-2.1023,-2.0628,-2.0323,-1.9995,0.0,0.0,0.0,-1.7277,-1.6993,-1.6803,-1.6171,-1.5823,-1.5714,-1.5114,-1.4727,-1.4561,-1.4528,-1.4455,-1.43,-1.4295,-1.4216,-1.4046,-1.3941,-1.3762,-1.3527,-1.3438,-1.3151,-1.2697,-1.2354,-1.1895,-1.1314,-1.038,-0.9392,-0.8432,-0.7954,-0.7593,-0.7295,-0.6784,-0.6443,-0.6304,-0.582,-0.5522,-0.5477,-0.505,-0.4739,-0.4596,-0.4092,-0.3643,-0.32,-0.2765,-0.2307,-0.1805,-0.1435,-0.1094,-0.0825,-0.069,-0.0558,-0.0404,-0.0359,-0.018,0.018,0.0135,0.0045,-0.009,-0.0269,-0.0449,-0.0584,-0.0761,-0.0981,-0.123,-0.1388,-0.1566,-0.1828,-0.203,-0.225,-0.249,-0.2659,-0.2848,-0.3117,-0.326,-0.3406,-0.3494,-0.3418,-0.3477,-0.3817,-0.3468,-0.3253,-0.3714,-0.4149,-0.4673,-0.5425,-0.6182,-0.6937,-0.7705,-0.8479,-0.9144,-0.9576,-0.9812,-0.9796,-0.9594,-0.8982,-0.8141,-0.721,-0.607,-0.4934,-0.3905,-0.3006,-0.2233,-0.1563,-0.105,-0.0669,-2.3012,-2.2615,-2.171,-2.1183,-2.0893,-2.0577,-2.0131,-1.9683,-1.9523,-1.9103,-1.8503,-1.797,-1.7669,-1.7436,-1.6831,-1.6501,-1.6355,-1.6194,-1.5772,-1.5175,-1.5278,-1.497,-1.4314,-1.4295,-1.4276,-1.423,-1.402,-1.3795,-1.3594,-1.3369,-1.306,-1.2709,-1.2294,-1.1689,-1.0829,-1.0196,-0.9778,-0.947,-0.8949,-0.8395,-0.7723,-0.7274,-0.6772,-0.6304,-0.5956,-0.5749,-0.5749,-0.5619,-0.5473,-0.5359,-0.4871,-0.4521,-0.4277,-0.3511,-0.2895,-0.2467,-0.1985,-0.1563,-0.1252,-0.1094,-0.0959,-0.0827,-0.0803,-0.0648,-0.027,-0.0292,-0.0359,-0.0491,-0.0603,-0.0736,-0.0983,-0.1096,-0.123,-0.1455,-0.1629,-0.1828,-0.2056,-0.225,-0.2442,-0.2659,-0.2848,-0.3025,-0.3245,-0.3436,-0.3598,-0.3731,-0.3803,-0.3973,-0.42,-0.4199,-0.4213,-0.451,-0.4829,-0.5247,-0.5789,-0.6409,-0.7107,-0.7763,-0.8467,-0.9117,-0.9613,-0.9807,-0.9776,-0.95,-0.8824,-0.8007,-0.703,-0.5919,-0.481,-0.3775,-0.2911,-0.2154,-0.1519,-0.105,-0.0715,-2.3764,-2.2781,-2.2134,-2.1504,-2.0827,-2.0373,-1.9935,-1.9501,-1.9413,-1.9176,-1.8779,-1.8469,-1.8257,-1.8054,-1.745,-1.7146,-1.7046,-1.6625,-1.6249,-1.5854,-1.5192,-1.4862,-1.4808,-1.4493,-1.4266,-1.423,-1.404,-1.3848,-1.3581,-1.3335,-1.3037,-1.2674,-1.2077,-1.1479,-1.084,-1.036,-0.9991,-0.9753,-0.9226,-0.8778,-0.8467,-0.7735,-0.7237,-0.7009,-0.6433,-0.6122,-0.606,-0.5943,-0.5819,-0.5725,-0.5366,-0.5027,-0.4707,-0.4016,-0.3417,-0.2939,-0.2389,-0.1957,-0.1699,-0.141,-0.123,-0.1116,-0.1116,-0.1052,-0.0852,-0.0761,-0.076,-0.0847,-0.0959,-0.1094,-0.1296,-0.1388,-0.1499,-0.1743,-0.1854,-0.2008,-0.2228,-0.2442,-0.2637,-0.2826,-0.3046,-0.3223,-0.3436,-0.3605,-0.3772,-0.3884,-0.4112,-0.4354,-0.4573,-0.4715,-0.4805,-0.4932,-0.5223,-0.5646,-0.6112,-0.6693,-0.7324,-0.7942,-0.8588,-0.9152,-0.96,-0.9771,-0.9697,-0.9361,-0.8523,-0.7588,-0.6751,-0.5506,-0.441,-0.3673,-0.2832,-0.2084,-0.1493,-0.0985,-0.0538,-2.453,-2.3227,-2.2768,-2.1951,-2.0897,-2.0262,-1.9777,-1.9428,-1.9428,-1.9191,-1.8874,-1.8822,-1.8683,-1.8461,-1.8012,-1.7763,-1.767,-1.7171,-1.6828,-1.6554,-1.5613,-1.5358,-1.5572,-1.4782,-1.4406,-1.4484,-1.4224,-1.3947,-1.3661,-1.3404,-1.3012,-1.2544,-1.1884,-1.133,-1.0926,-1.0524,-1.0186,-0.9862,-0.9386,-0.9096,-0.8999,-0.8244,-0.7765,-0.7596,-0.6942,-0.648,-0.6353,-0.6176,-0.606,-0.5974,-0.5749,-0.5441,-0.507,-0.4531,-0.3968,-0.3398,-0.2828,-0.2355,-0.2008,-0.1699,-0.1496,-0.1408,-0.141,-0.1405,-0.1388,-0.1272,-0.1183,-0.123,-0.1296,-0.141,-0.1544,-0.1655,-0.1769,-0.1986,-0.2074,-0.2184,-0.2403,-0.2594,-0.2789,-0.2998,-0.3187,-0.3372,-0.3577,-0.3751,-0.3918,-0.4145,-0.4382,-0.4635,-0.4873,-0.5117,-0.5233,-0.5366,-0.5593,-0.5979,-0.6458,-0.7005,-0.7577,-0.8198,-0.8757,-0.9255,-0.9591,-0.9657,-0.938,-0.8941,-0.7875,-0.6841,-0.6187,-0.5007,-0.3922,-0.3286,-0.2579,-0.1904,-0.1292,-0.083,-0.0404,-2.4943,-2.4433,-2.3573,-2.248,-2.1188,-2.037,-1.9792,-1.9413,-1.9428,-1.9242,-1.8979,-1.8874,-1.8683,-1.8517,-1.8408,-1.8352,-1.8366,-1.8218,-1.7845,-1.7465,-1.7693,-1.7529,-1.6789,-1.5305,-1.4863,-1.5365,-1.4678,-1.4165,-1.3861,-1.356,-1.3057,-1.227,-1.1799,-1.1415,-1.1071,-1.0621,-1.0283,-1.0087,-0.9802,-0.9475,-0.9159,-0.869,-0.8191,-0.778,-0.7273,-0.6843,-0.6515,-0.6421,-0.6329,-0.6253,-0.606,-0.5859,-0.56,-0.5114,-0.4538,-0.3974,-0.3403,-0.2806,-0.2094,-0.1964,-0.1898,-0.1781,-0.1762,-0.174,-0.174,-0.1736,-0.1673,-0.1588,-0.1569,-0.1655,-0.1832,-0.192,-0.1968,-0.203,-0.2228,-0.2403,-0.249,-0.2664,-0.2853,-0.3068,-0.3217,-0.3402,-0.3661,-0.3877,-0.4145,-0.4472,-0.4664,-0.4873,-0.5098,-0.5339,-0.5614,-0.5845,-0.6063,-0.6336,-0.6772,-0.7259,-0.7821,-0.8449,-0.892,-0.9312,-0.9483,-0.9135,-0.8598,-0.8137,-0.7037,-0.5908,-0.5151,-0.4184,-0.3408,-0.2888,-0.2244,-0.1554,-0.1008,-0.0674,-0.0382,-2.5388,-2.4642,-2.4068,-2.2781,-2.1249,-2.0761,-2.0137,-1.9443,-1.9428,-1.9242,-1.9017,-1.8941,-1.8827,-1.8634,-1.8517,-1.8478,-1.8478,-1.8464,-1.8299,-1.8128,-1.8278,-1.8021,-1.7315,-1.7062,-1.6473,-1.5599,-1.5052,-1.4526,-1.3967,-1.3412,-1.2861,-1.233,-1.192,-1.1564,-1.1212,-1.0812,-1.0467,-1.0225,-0.999,-0.9793,-0.95,-0.9003,-0.8464,-0.8035,-0.7627,-0.7158,-0.6732,-0.6651,-0.6582,-0.6437,-0.6276,-0.6091,-0.589,-0.5318,-0.4833,-0.4407,-0.3617,-0.2891,-0.2329,-0.2202,-0.2114,-0.2008,-0.1986,-0.1986,-0.1964,-0.1986,-0.1964,-0.196,-0.1832,-0.1832,-0.1986,-0.2056,-0.21,-0.2224,-0.2359,-0.2468,-0.2594,-0.2724,-0.2902,-0.3138,-0.333,-0.3514,-0.3814,-0.4097,-0.4403,-0.4684,-0.4863,-0.5069,-0.5339,-0.5595,-0.5863,-0.6177,-0.6441,-0.6718,-0.705,-0.7548,-0.8093,-0.8566,-0.8713,-0.885,-0.898,-0.8418,-0.7719,-0.7348,-0.6166,-0.5213,-0.4758,-0.3685,-0.2787,-0.2375,-0.1861,-0.1204,-0.0849,-0.0607,-0.0337,-2.5749,-2.4915,-2.4287,-2.312,-2.1659,-2.1181,-2.0497,-1.9693,-1.9487,-1.9265,-1.9031,-1.9031,-1.8917,-1.8788,-1.8673,-1.8595,-1.8581,-1.8581,-1.8581,-1.8581,-1.8567,-1.8275,-1.7923,-1.8058,-1.7483,-1.6187,-1.5524,-1.4823,-1.3967,-1.331,-1.2803,-1.2437,-1.2029,-1.1675,-1.1266,-1.0878,-1.0572,-1.0322,-1.0127,-0.9971,-0.9776,-0.9342,-0.8846,-0.8406,-0.7988,-0.754,-0.7045,-0.6902,-0.6772,-0.659,-0.646,-0.6307,-0.6083,-0.5613,-0.5117,-0.457,-0.3718,-0.3009,-0.257,-0.2464,-0.2355,-0.2232,-0.2188,-0.2184,-0.2184,-0.2162,-0.218,-0.2198,-0.2066,-0.2026,-0.2118,-0.2122,-0.2206,-0.2381,-0.2403,-0.2485,-0.2659,-0.2767,-0.2929,-0.3165,-0.3379,-0.3626,-0.398,-0.4321,-0.4633,-0.4863,-0.5059,-0.5291,-0.5576,-0.5837,-0.6099,-0.6441,-0.6765,-0.7048,-0.7303,-0.7765,-0.8293,-0.8432,-0.8409,-0.839,-0.8336,-0.7556,-0.6858,-0.6434,-0.5312,-0.4468,-0.3939,-0.303,-0.2278,-0.1973,-0.1502,-0.0998,-0.0805,-0.0539,-0.027,-2.5957,-2.5384,-2.4137,-2.3429,-2.3014,-2.1622,-2.0753,-2.0239,-1.9708,-1.9332,-1.9116,-1.9017,-1.8993,-1.8993,-1.8851,-1.8784,-1.8798,-1.8784,-1.8745,-1.8784,-1.8717,-1.8688,-1.8698,-1.795,-1.7565,-1.7275,-1.6201,-1.5012,-1.392,-1.3404,-1.2943,-1.2508,-1.209,-1.17,-1.1314,-1.0916,-1.0572,-1.0312,-1.0166,-1.0049,-0.998,-0.9834,-0.9456,-0.892,-0.8415,-0.7997,-0.7581,-0.7147,-0.6872,-0.679,-0.6643,-0.6474,-0.6307,-0.606,-0.5443,-0.4462,-0.3817,-0.3272,-0.2798,-0.2707,-0.2611,-0.249,-0.2425,-0.2381,-0.2381,-0.2311,-0.2311,-0.2311,-0.2219,-0.2176,-0.2176,-0.2176,-0.2241,-0.2359,-0.2451,-0.2529,-0.2659,-0.2794,-0.2972,-0.3159,-0.3393,-0.371,-0.4194,-0.45,-0.4773,-0.502,-0.5243,-0.5503,-0.5819,-0.6057,-0.6331,-0.6634,-0.6927,-0.7259,-0.7548,-0.7822,-0.8041,-0.8113,-0.8131,-0.806,-0.7477,-0.6859,-0.6229,-0.555,-0.4563,-0.3749,-0.3106,-0.25,-0.1907,-0.1507,-0.1188,-0.081,-0.0732,-0.0427,-0.0157,-2.5844,-2.523,-2.4524,-2.3823,-2.3167,-2.2543,-2.1564,-2.0425,-2.033,-1.9832,-1.9197,-1.9078,-1.9078,-1.9093,-1.9026,-1.8898,-1.8822,-1.8822,-1.8822,-1.8822,-1.8836,-1.8836,-1.8755,-1.8503,-1.8101,-1.763,-1.7084,-1.5992,-1.4496,-1.3706,-1.3082,-1.2627,-1.2222,-1.1822,-1.1452,-1.1115,-1.0812,-1.0457,-1.0312,-1.0157,-1.0088,-0.998,-0.9826,-0.959,-0.9078,-0.854,-0.8049,-0.7646,-0.7346,-0.7251,-0.6932,-0.6621,-0.636,-0.6021,-0.5485,-0.4787,-0.4231,-0.3749,-0.3266,-0.3018,-0.2805,-0.2659,-0.2594,-0.2572,-0.2538,-0.2495,-0.2473,-0.2425,-0.2333,-0.2263,-0.2219,-0.2198,-0.2241,-0.2311,-0.2355,-0.2425,-0.2555,-0.2681,-0.2853,-0.3089,-0.3402,-0.3862,-0.4219,-0.4552,-0.4872,-0.5146,-0.5427,-0.5681,-0.5948,-0.6201,-0.65,-0.6717,-0.6797,-0.6857,-0.7167,-0.752,-0.7741,-0.77,-0.7623,-0.7072,-0.6492,-0.5903,-0.5284,-0.4968,-0.4009,-0.3413,-0.2887,-0.221,-0.1618,-0.1313,-0.0964,-0.0752,-0.0707,-0.0403,-0.0135,-2.5659,-2.5091,-2.4751,-2.4178,-2.3463,-2.3082,-2.2209,-2.1015,-2.0548,-1.9991,-1.9473,-1.9217,-1.9116,-1.9116,-1.9139,-1.9101,-1.8974,-1.8974,-1.8974,-1.8988,-1.9017,-1.904,-1.8988,-1.8965,-1.8674,-1.809,-1.7495,-1.6357,-1.4905,-1.3887,-1.3198,-1.2733,-1.2365,-1.1968,-1.1564,-1.1266,-1.0954,-1.0639,-1.0467,-1.0351,-1.0196,-1.0127,-1.0098,-0.9981,-0.962,-0.9134,-0.862,-0.8024,-0.767,-0.7528,-0.7094,-0.6712,-0.6382,-0.6044,-0.5589,-0.5132,-0.4624,-0.4102,-0.3651,-0.3269,-0.3019,-0.2848,-0.2789,-0.2756,-0.2691,-0.2626,-0.2587,-0.2495,-0.2381,-0.2263,-0.2176,-0.2154,-0.2158,-0.2224,-0.2224,-0.2289,-0.2425,-0.2551,-0.2762,-0.3083,-0.35,-0.3917,-0.4273,-0.4584,-0.4931,-0.5234,-0.5541,-0.5811,-0.6093,-0.6366,-0.6554,-0.6648,-0.6644,-0.6617,-0.6638,-0.674,-0.6823,-0.6804,-0.6944,-0.6324,-0.576,-0.5108,-0.4643,-0.4274,-0.3801,-0.3248,-0.2636,-0.1954,-0.1532,-0.1225,-0.0928,-0.0662,-0.0541,-0.0382,-0.0135,-2.5416,-2.5052,-2.4735,-2.441,-2.3952,-2.3238,-2.2649,-2.1904,-2.0429,-1.9997,-1.9802,-1.9353,-1.9145,-1.9139,-1.9213,-1.9302,-1.9265,-1.9265,-1.9265,-1.9265,-1.9339,-1.9339,-1.9354,-1.9191,-1.9101,-1.8867,-1.7261,-1.5984,-1.498,-1.4007,-1.3242,-1.2838,-1.252,-1.2125,-1.1682,-1.1389,-1.1105,-1.0878,-1.0697,-1.0534,-1.0428,-1.0312,-1.0235,-1.0127,-1.0021,-0.9705,-0.9189,-0.8282,-0.7801,-0.7678,-0.7182,-0.6742,-0.6452,-0.6221,-0.5861,-0.537,-0.4876,-0.4378,-0.3868,-0.3551,-0.3297,-0.3089,-0.2988,-0.2864,-0.2794,-0.2669,-0.2587,-0.2495,-0.2359,-0.2245,-0.2118,-0.203,-0.2008,-0.2078,-0.2078,-0.214,-0.2267,-0.2425,-0.2707,-0.319,-0.3584,-0.3937,-0.4264,-0.4604,-0.497,-0.532,-0.5625,-0.5893,-0.6165,-0.6418,-0.6471,-0.6346,-0.6224,-0.617,-0.6005,-0.5848,-0.5798,-0.5782,-0.5993,-0.583,-0.541,-0.4853,-0.4601,-0.4235,-0.3614,-0.3058,-0.2386,-0.1758,-0.1458,-0.117,-0.0867,-0.063,-0.052,-0.0382,-0.0135,-2.5454,-2.5201,-2.4791,-2.4467,-2.4188,-2.3808,-2.3095,-2.2241,-2.2017,-2.1076,-1.9656,-1.9353,-1.9295,-1.9272,-1.9339,-1.9376,-1.9376,-1.945,-1.945,-1.9376,-1.9347,-1.9362,-1.9376,-1.9406,-1.9257,-1.8815,-1.734,-1.6247,-1.5524,-1.4267,-1.331,-1.2896,-1.2544,-1.2197,-1.1796,-1.1549,-1.1239,-1.0916,-1.084,-1.0725,-1.0544,-1.0428,-1.0351,-1.0302,-1.0157,-0.9934,-0.9724,-0.905,-0.8502,-0.811,-0.7419,-0.6861,-0.6585,-0.6413,-0.6174,-0.5868,-0.5491,-0.5004,-0.4429,-0.4046,-0.3641,-0.3331,-0.3165,-0.3037,-0.288,-0.2724,-0.2621,-0.2517,-0.2333,-0.218,-0.2052,-0.1872,-0.185,-0.1942,-0.1916,-0.1916,-0.207,-0.2311,-0.2686,-0.3111,-0.3486,-0.3862,-0.4264,-0.4664,-0.5039,-0.5327,-0.5664,-0.5975,-0.6118,-0.617,-0.621,-0.6092,-0.5871,-0.5611,-0.5445,-0.5341,-0.5278,-0.531,-0.5442,-0.5565,-0.515,-0.482,-0.4559,-0.4072,-0.3444,-0.2828,-0.2161,-0.1698,-0.1404,-0.1153,-0.0902,-0.0721,-0.0584,-0.0406,-0.0157,-2.5492,-2.5256,-2.4846,-2.4523,-2.4261,-2.4036,-2.3453,-2.271,-2.3158,-2.2334,-2.0805,-2.0138,-1.9841,-1.9677,-1.9531,-1.9465,-1.9501,-1.9611,-1.9647,-1.956,-1.9457,-1.9457,-1.9523,-1.9479,-1.9309,-1.8806,-1.7638,-1.6659,-1.5973,-1.4699,-1.3663,-1.305,-1.2662,-1.2294,-1.1932,-1.166,-1.14,-1.1164,-1.1023,-1.0899,-1.0736,-1.0621,-1.0505,-1.0418,-1.0264,-1.0157,-0.9991,-0.961,-0.9152,-0.8549,-0.778,-0.7147,-0.6707,-0.6604,-0.6452,-0.6188,-0.5855,-0.5446,-0.4975,-0.4467,-0.4044,-0.3656,-0.338,-0.3159,-0.2988,-0.281,-0.2659,-0.2512,-0.2333,-0.2132,-0.196,-0.1765,-0.1696,-0.167,-0.1651,-0.1718,-0.1865,-0.2096,-0.2492,-0.2904,-0.329,-0.3739,-0.4232,-0.4675,-0.5001,-0.5211,-0.5496,-0.5745,-0.5807,-0.5767,-0.5741,-0.5619,-0.5399,-0.5154,-0.4946,-0.4846,-0.4773,-0.4897,-0.5042,-0.5146,-0.5021,-0.4811,-0.4572,-0.3865,-0.3231,-0.2714,-0.2076,-0.1681,-0.1347,-0.114,-0.0947,-0.0758,-0.0613,-0.0446,-0.0225,-2.553,-2.5256,-2.4942,-2.4605,-2.4261,-2.4021,-2.3679,-2.3434,-2.3543,-2.3333,-2.2742,-2.1342,-2.0581,-2.0315,-1.9805,-1.9611,-1.9611,-1.9741,-1.9812,-1.9777,-1.9741,-1.9741,-1.9669,-1.9487,-1.928,-1.8916,-1.8001,-1.7065,-1.6123,-1.5083,-1.4162,-1.3213,-1.2838,-1.252,-1.2161,-1.1844,-1.1645,-1.1448,-1.1233,-1.1061,-1.0926,-1.0802,-1.0659,-1.0457,-1.038,-1.0235,-1.0,-0.9836,-0.9562,-0.8968,-0.8072,-0.7363,-0.6941,-0.6811,-0.6673,-0.6435,-0.6075,-0.5844,-0.5514,-0.498,-0.4412,-0.4095,-0.3656,-0.3287,-0.3138,-0.2896,-0.2702,-0.2555,-0.2328,-0.2128,-0.1938,-0.1724,-0.1524,-0.1341,-0.1385,-0.1519,-0.1735,-0.1852,-0.2173,-0.2635,-0.3013,-0.3406,-0.405,-0.4497,-0.4721,-0.4861,-0.5065,-0.527,-0.5311,-0.5279,-0.5165,-0.501,-0.4865,-0.4828,-0.4667,-0.4768,-0.4727,-0.4873,-0.4964,-0.496,-0.4896,-0.4722,-0.4403,-0.37,-0.3087,-0.2576,-0.2106,-0.1712,-0.1423,-0.1258,-0.1045,-0.0814,-0.0634,-0.0504,-0.0292,-2.553,-2.5256,-2.4942,-2.462,-2.4317,-2.4036,-2.3839,-2.3551,-2.3595,-2.3546,-2.3137,-2.1698,-2.0818,-2.0466,-1.993,-1.9705,-1.9741,-1.9797,-1.9884,-1.9919,-1.9985,-1.9914,-1.9807,-1.9538,-1.9354,-1.9103,-1.8264,-1.7267,-1.6316,-1.534,-1.4371,-1.3404,-1.3012,-1.2697,-1.233,-1.2089,-1.1844,-1.156,-1.1448,-1.1271,-1.1071,-1.0937,-1.0774,-1.0582,-1.0457,-1.0283,-1.0019,-0.9823,-0.926,-0.8273,-0.7905,-0.7458,-0.6989,-0.6936,-0.6885,-0.6738,-0.6618,-0.6344,-0.5916,-0.5534,-0.5081,-0.4468,-0.4067,-0.3696,-0.3266,-0.3041,-0.2848,-0.2659,-0.2394,-0.2132,-0.1913,-0.1632,-0.1366,-0.1161,-0.1208,-0.1313,-0.1444,-0.1584,-0.1863,-0.2237,-0.258,-0.2997,-0.3483,-0.3907,-0.4215,-0.441,-0.4647,-0.4841,-0.4819,-0.4773,-0.4659,-0.4518,-0.4402,-0.4453,-0.4499,-0.4629,-0.4761,-0.4929,-0.497,-0.494,-0.4791,-0.4523,-0.4111,-0.3563,-0.3085,-0.2577,-0.2166,-0.1764,-0.1561,-0.1376,-0.1109,-0.0874,-0.0746,-0.0605,-0.0337,-2.5621,-2.531,-2.5021,-2.4645,-2.4317,-2.4109,-2.3839,-2.3653,-2.3581,-2.358,-2.3245,-2.1988,-2.1208,-2.0929,-2.0124,-1.9777,-1.9797,-1.9869,-1.9975,-2.001,-2.0076,-2.0021,-1.9858,-1.9626,-1.945,-1.9236,-1.8553,-1.7551,-1.6484,-1.5613,-1.4638,-1.3608,-1.3104,-1.2756,-1.2449,-1.2222,-1.1943,-1.166,-1.156,-1.1384,-1.1158,-1.1023,-1.085,-1.0659,-1.0505,-1.0361,-1.0019,-0.9832,-0.9241,-0.8397,-0.8054,-0.7743,-0.7127,-0.7026,-0.6996,-0.6975,-0.6885,-0.6661,-0.6357,-0.601,-0.5534,-0.5001,-0.4512,-0.3981,-0.3551,-0.3203,-0.2934,-0.2697,-0.2415,-0.2154,-0.1938,-0.1588,-0.1296,-0.1161,-0.1139,-0.1185,-0.1205,-0.1335,-0.1626,-0.1974,-0.2275,-0.2655,-0.3173,-0.3565,-0.3801,-0.3997,-0.4214,-0.4268,-0.4238,-0.4223,-0.4265,-0.426,-0.429,-0.4403,-0.4522,-0.4665,-0.4899,-0.507,-0.5117,-0.5062,-0.4884,-0.4557,-0.3994,-0.354,-0.3071,-0.2636,-0.2257,-0.1904,-0.168,-0.1452,-0.1166,-0.0996,-0.0885,-0.0648,-0.0404,-2.5659,-2.531,-2.506,-2.471,-2.4317,-2.4067,-2.3839,-2.3638,-2.3595,-2.352,-2.3176,-2.2218,-2.1605,-2.1539,-2.0272,-1.9797,-1.9833,-1.9995,-2.0065,-2.01,-2.0115,-2.0061,-1.9929,-1.9756,-1.9545,-1.9288,-1.8988,-1.7879,-1.6709,-1.6023,-1.4999,-1.3818,-1.3151,-1.2826,-1.2579,-1.2294,-1.2016,-1.1808,-1.1634,-1.1448,-1.1223,-1.1109,-1.0947,-1.0621,-1.0505,-1.0322,-1.0059,-0.9815,-0.9365,-0.8535,-0.8507,-0.799,-0.726,-0.7134,-0.7125,-0.7086,-0.6996,-0.6897,-0.6751,-0.6332,-0.5888,-0.5518,-0.4791,-0.4179,-0.3841,-0.3386,-0.2977,-0.2783,-0.2481,-0.2241,-0.1938,-0.1588,-0.1341,-0.123,-0.1183,-0.1159,-0.1144,-0.1198,-0.1412,-0.1889,-0.2074,-0.2503,-0.3016,-0.3448,-0.3635,-0.3595,-0.3806,-0.3917,-0.3941,-0.4004,-0.416,-0.4307,-0.438,-0.4459,-0.4593,-0.473,-0.4998,-0.5217,-0.5274,-0.5248,-0.5175,-0.4793,-0.4091,-0.3532,-0.3088,-0.2715,-0.2395,-0.2093,-0.1852,-0.1664,-0.1463,-0.1255,-0.1043,-0.0733,-0.045,-2.5584,-2.5294,-2.4982,-2.4645,-2.4302,-2.4109,-2.3839,-2.3595,-2.3595,-2.3266,-2.264,-2.2254,-2.1717,-2.1001,-2.0219,-1.9884,-2.001,-2.0065,-2.015,-2.027,-2.027,-2.0131,-1.997,-1.9812,-1.9596,-1.9339,-1.9093,-1.8127,-1.688,-1.6072,-1.5256,-1.3864,-1.3335,-1.299,-1.2733,-1.2473,-1.2174,-1.192,-1.1771,-1.1522,-1.126,-1.1185,-1.0985,-1.0621,-1.0351,-1.0166,-1.001,-0.9862,-0.9384,-0.8755,-0.8452,-0.813,-0.7507,-0.7322,-0.7351,-0.7333,-0.7205,-0.7086,-0.6987,-0.6721,-0.6353,-0.5864,-0.5262,-0.4669,-0.4127,-0.359,-0.3193,-0.2955,-0.2692,-0.2346,-0.1935,-0.1632,-0.1455,-0.1385,-0.1383,-0.1451,-0.1457,-0.136,-0.1495,-0.1721,-0.189,-0.2063,-0.2506,-0.2842,-0.3043,-0.3172,-0.3402,-0.3602,-0.3727,-0.3855,-0.4085,-0.435,-0.4459,-0.462,-0.5072,-0.531,-0.5693,-0.5818,-0.5783,-0.5662,-0.5594,-0.5121,-0.4463,-0.3773,-0.3111,-0.2836,-0.2737,-0.2348,-0.2123,-0.1949,-0.1741,-0.1461,-0.1175,-0.0843,-0.0516,-2.553,-2.5256,-2.4942,-2.4661,-2.4374,-2.4109,-2.3867,-2.3621,-2.3573,-2.314,-2.2413,-2.2013,-2.1432,-2.0857,-2.0258,-1.9995,-2.01,-2.0185,-2.027,-2.0354,-2.0339,-2.0235,-2.0061,-1.9884,-1.9705,-1.9384,-1.8855,-1.7906,-1.6853,-1.595,-1.4996,-1.39,-1.3472,-1.3116,-1.285,-1.2639,-1.2305,-1.1957,-1.1785,-1.1586,-1.126,-1.1185,-1.1023,-1.0659,-1.0351,-1.0127,-1.001,-0.9941,-0.9413,-0.879,-0.8539,-0.8196,-0.7558,-0.7411,-0.747,-0.746,-0.7401,-0.7235,-0.7116,-0.6936,-0.6648,-0.6203,-0.5672,-0.5068,-0.4488,-0.3888,-0.3406,-0.3097,-0.2805,-0.2454,-0.204,-0.185,-0.1699,-0.1673,-0.1696,-0.1826,-0.1961,-0.1865,-0.1793,-0.2004,-0.2152,-0.2351,-0.2558,-0.2776,-0.2919,-0.325,-0.3507,-0.3687,-0.3831,-0.3976,-0.4179,-0.4392,-0.4532,-0.4845,-0.5468,-0.598,-0.6543,-0.6651,-0.6618,-0.644,-0.625,-0.5611,-0.4869,-0.4275,-0.3735,-0.3432,-0.326,-0.2846,-0.2433,-0.2214,-0.1983,-0.1661,-0.131,-0.0955,-0.065,-2.553,-2.5256,-2.4942,-2.4661,-2.4457,-2.4135,-2.3776,-2.351,-2.3588,-2.3035,-2.2234,-2.1394,-2.0948,-2.0755,-2.0355,-2.015,-2.022,-2.0304,-2.0423,-2.0423,-2.0388,-2.0304,-2.0166,-1.999,-1.9777,-1.9376,-1.8644,-1.7697,-1.6719,-1.5689,-1.4782,-1.39,-1.3527,-1.3185,-1.2873,-1.2733,-1.2437,-1.1993,-1.1785,-1.1538,-1.126,-1.1185,-1.0985,-1.0669,-1.039,-1.0205,-1.0059,-0.9962,-0.9592,-0.8693,-0.8608,-0.8178,-0.7675,-0.749,-0.7539,-0.7549,-0.746,-0.7342,-0.7214,-0.7026,-0.6777,-0.6513,-0.5971,-0.538,-0.4777,-0.4179,-0.3657,-0.3237,-0.2896,-0.2632,-0.2328,-0.2202,-0.214,-0.2114,-0.2128,-0.2341,-0.2571,-0.2532,-0.2612,-0.2578,-0.2706,-0.2898,-0.3006,-0.3149,-0.322,-0.3319,-0.3568,-0.378,-0.3941,-0.4171,-0.4424,-0.4831,-0.5078,-0.5631,-0.6278,-0.6571,-0.7167,-0.7435,-0.7412,-0.7229,-0.6995,-0.6567,-0.5926,-0.5067,-0.4559,-0.4158,-0.3698,-0.3248,-0.2878,-0.2574,-0.2216,-0.1883,-0.1501,-0.1092,-0.0782,-2.547,-2.5249,-2.4822,-2.458,-2.4441,-2.4151,-2.3618,-2.3223,-2.3381,-2.2696,-2.1334,-2.0707,-2.0419,-2.0309,-2.0343,-2.0339,-2.0392,-2.0475,-2.0509,-2.0475,-2.0457,-2.0354,-2.0235,-2.0061,-1.9833,-1.9396,-1.8599,-1.7597,-1.6691,-1.571,-1.4647,-1.3913,-1.3527,-1.322,-1.292,-1.2733,-1.2484,-1.2066,-1.1822,-1.1511,-1.126,-1.1147,-1.0947,-1.0582,-1.039,-1.0244,-1.0127,-1.005,-0.9648,-0.8816,-0.873,-0.8322,-0.7749,-0.7559,-0.7598,-0.7608,-0.7549,-0.7431,-0.7351,-0.7116,-0.6876,-0.655,-0.6091,-0.5542,-0.4963,-0.4413,-0.3861,-0.3418,-0.3074,-0.2837,-0.2729,-0.2637,-0.2594,-0.2611,-0.2735,-0.2923,-0.3187,-0.3407,-0.35,-0.3427,-0.3453,-0.3448,-0.3525,-0.3551,-0.3565,-0.3601,-0.372,-0.3934,-0.4113,-0.4448,-0.4817,-0.5302,-0.5808,-0.6486,-0.7193,-0.7376,-0.7705,-0.8106,-0.8152,-0.804,-0.7837,-0.7656,-0.7065,-0.5915,-0.5052,-0.4472,-0.4045,-0.3632,-0.3254,-0.2901,-0.2515,-0.211,-0.1645,-0.1203,-0.0873,-2.5486,-2.5249,-2.4766,-2.4387,-2.4027,-2.3657,-2.3153,-2.2644,-2.2701,-2.2126,-2.121,-2.0609,-2.036,-2.03,-2.0357,-2.046,-2.0577,-2.061,-2.061,-2.0577,-2.0509,-2.0407,-2.0304,-2.0096,-1.9642,-1.9036,-1.8179,-1.7415,-1.6634,-1.5332,-1.446,-1.39,-1.3527,-1.322,-1.2943,-1.2769,-1.2472,-1.2113,-1.1774,-1.1463,-1.1185,-1.1023,-1.0746,-1.0544,-1.04,-1.0244,-1.0127,-1.0088,-0.9676,-0.8971,-0.8789,-0.8345,-0.7898,-0.7656,-0.7656,-0.7666,-0.7578,-0.749,-0.7411,-0.7175,-0.6906,-0.6686,-0.6272,-0.5711,-0.5113,-0.4571,-0.408,-0.3553,-0.3302,-0.3138,-0.3062,-0.3068,-0.3083,-0.3163,-0.3311,-0.3521,-0.3806,-0.4187,-0.4313,-0.4328,-0.4328,-0.4248,-0.4045,-0.4031,-0.3947,-0.3925,-0.3914,-0.4109,-0.4335,-0.4823,-0.5301,-0.6143,-0.6775,-0.7577,-0.8164,-0.8314,-0.8329,-0.8631,-0.868,-0.8554,-0.8258,-0.7894,-0.7257,-0.6345,-0.56,-0.4861,-0.4453,-0.4075,-0.3664,-0.3189,-0.2677,-0.2176,-0.1755,-0.1361,-0.1005,-2.5427,-2.5064,-2.4626,-2.4076,-2.3421,-2.3086,-2.2585,-2.2018,-2.1969,-2.1563,-2.0952,-2.0628,-2.05,-2.0457,-2.0543,-2.0644,-2.076,-2.076,-2.0744,-2.0695,-2.0577,-2.0475,-2.0357,-1.9917,-1.9401,-1.8743,-1.7562,-1.691,-1.6253,-1.5057,-1.4232,-1.3808,-1.3539,-1.322,-1.292,-1.2769,-1.2461,-1.2077,-1.1689,-1.1415,-1.1088,-1.0784,-1.0544,-1.038,-1.0351,-1.0235,-1.0157,-1.0166,-0.9713,-0.9118,-0.8781,-0.8483,-0.7841,-0.7695,-0.7695,-0.7666,-0.7578,-0.7519,-0.7392,-0.7175,-0.6906,-0.6703,-0.646,-0.5868,-0.5254,-0.4715,-0.4217,-0.3647,-0.3472,-0.3472,-0.345,-0.3514,-0.3591,-0.3737,-0.3896,-0.4094,-0.4438,-0.4806,-0.5222,-0.5232,-0.5207,-0.5005,-0.4751,-0.4593,-0.4545,-0.4065,-0.4044,-0.4557,-0.4846,-0.5383,-0.603,-0.704,-0.7868,-0.8688,-0.9161,-0.9311,-0.9235,-0.9173,-0.8984,-0.8719,-0.8307,-0.7863,-0.7182,-0.6523,-0.5982,-0.5319,-0.4924,-0.4406,-0.384,-0.3277,-0.2751,-0.2263,-0.1847,-0.1449,-0.1072,-2.5163,-2.4324,-2.4094,-2.3488,-2.2758,-2.2485,-2.2009,-2.1439,-2.1543,-2.1224,-2.0555,-2.0584,-2.059,-2.0577,-2.0711,-2.0892,-2.0957,-2.0941,-2.0893,-2.0811,-2.0662,-2.0496,-2.0286,-1.9489,-1.8997,-1.831,-1.7093,-1.6272,-1.5684,-1.4782,-1.4151,-1.3821,-1.3506,-1.322,-1.2873,-1.2686,-1.2437,-1.1993,-1.1653,-1.1292,-1.0964,-1.0687,-1.0534,-1.0428,-1.0351,-1.0273,-1.0273,-1.0215,-0.9816,-0.9096,-0.897,-0.8542,-0.787,-0.7695,-0.7695,-0.7666,-0.7578,-0.746,-0.7372,-0.7145,-0.6867,-0.6665,-0.6429,-0.5994,-0.538,-0.4743,-0.4211,-0.383,-0.3744,-0.38,-0.3869,-0.3986,-0.4109,-0.4264,-0.4446,-0.4717,-0.5049,-0.5355,-0.5764,-0.6171,-0.6146,-0.5742,-0.5383,-0.5268,-0.5085,-0.4561,-0.4281,-0.4834,-0.5483,-0.6126,-0.7016,-0.8101,-0.8642,-0.9388,-0.9538,-0.9765,-0.9655,-0.9554,-0.9168,-0.874,-0.8252,-0.7752,-0.7228,-0.6591,-0.6082,-0.5545,-0.5001,-0.4446,-0.3896,-0.3374,-0.2864,-0.2394,-0.1982,-0.1563,-0.1161,-2.4405,-2.4147,-2.357,-2.2849,-2.2128,-2.1952,-2.1476,-2.0949,-2.0872,-2.0752,-2.0571,-2.074,-2.084,-2.0826,-2.0957,-2.1006,-2.107,-2.1054,-2.0958,-2.0893,-2.0714,-2.0391,-1.9884,-1.9313,-1.8712,-1.761,-1.6755,-1.5926,-1.5262,-1.4672,-1.4138,-1.3775,-1.3459,-1.3116,-1.2803,-1.252,-1.2222,-1.1872,-1.1505,-1.1105,-1.0774,-1.0582,-1.0428,-1.0351,-1.0322,-1.0322,-1.0322,-1.0302,-0.9891,-0.9224,-0.9062,-0.8649,-0.7979,-0.7744,-0.7744,-0.7656,-0.7569,-0.746,-0.7381,-0.7086,-0.6846,-0.6626,-0.638,-0.5963,-0.5323,-0.4766,-0.4313,-0.399,-0.3994,-0.4076,-0.4219,-0.4354,-0.4575,-0.4774,-0.4942,-0.5251,-0.5571,-0.5909,-0.6265,-0.6693,-0.703,-0.6645,-0.626,-0.6007,-0.5766,-0.5271,-0.5086,-0.5465,-0.6293,-0.7197,-0.8212,-0.9367,-0.9668,-0.9939,-0.984,-0.9835,-0.9557,-0.9375,-0.8984,-0.8566,-0.81,-0.7591,-0.7082,-0.6553,-0.6016,-0.5499,-0.4991,-0.4446,-0.3888,-0.341,-0.2971,-0.2502,-0.2026,-0.1632,-0.1185,-2.36,-2.3674,-2.2992,-2.2213,-2.1513,-2.1408,-2.1042,-2.054,-2.0561,-2.0545,-2.0628,-2.089,-2.1037,-2.1119,-2.1103,-2.1119,-2.1151,-2.1135,-2.1054,-2.0942,-2.0606,-2.0144,-1.9497,-1.8946,-1.7911,-1.6773,-1.627,-1.5607,-1.4977,-1.4447,-1.4138,-1.3775,-1.3404,-1.3047,-1.2768,-1.2437,-1.2102,-1.1712,-1.1341,-1.0964,-1.0659,-1.0505,-1.039,-1.0322,-1.0322,-1.0322,-1.0322,-1.0322,-0.9938,-0.9284,-0.912,-0.8723,-0.797,-0.7802,-0.7744,-0.7627,-0.7539,-0.7431,-0.7283,-0.7065,-0.6816,-0.6573,-0.635,-0.5956,-0.5308,-0.4848,-0.4587,-0.4342,-0.4293,-0.4387,-0.4512,-0.4684,-0.4893,-0.5146,-0.5377,-0.5694,-0.6011,-0.6335,-0.6696,-0.7132,-0.7474,-0.7696,-0.73,-0.6869,-0.6465,-0.5976,-0.5965,-0.62,-0.7126,-0.8215,-0.8961,-0.996,-0.996,-1.0032,-0.9906,-0.9749,-0.9484,-0.9194,-0.8796,-0.8354,-0.7908,-0.7441,-0.6937,-0.6428,-0.5918,-0.5404,-0.4883,-0.4377,-0.3868,-0.341,-0.2971,-0.2524,-0.2088,-0.1651,-0.121,-2.272,-2.249,-2.2241,-2.1657,-2.0905,-2.0789,-2.0673,-2.0577,-2.0695,-2.0794,-2.0827,-2.099,-2.1135,-2.1199,-2.1263,-2.1247,-2.1277,-2.1215,-2.1087,-2.0783,-2.0273,-1.9815,-1.9077,-1.8115,-1.7212,-1.6638,-1.5962,-1.5274,-1.4822,-1.4461,-1.4151,-1.3788,-1.3404,-1.306,-1.2662,-1.2294,-1.1895,-1.1538,-1.1164,-1.0916,-1.0649,-1.0457,-1.0341,-1.0322,-1.0322,-1.0322,-1.0322,-1.0351,-0.9995,-0.9165,-0.9197,-0.8778,-0.8049,-0.7841,-0.7734,-0.7598,-0.749,-0.7342,-0.7154,-0.6984,-0.6764,-0.6521,-0.6305,-0.6027,-0.5489,-0.5257,-0.5012,-0.4753,-0.4608,-0.4601,-0.4764,-0.4961,-0.5175,-0.5463,-0.5726,-0.6052,-0.6364,-0.6743,-0.713,-0.7576,-0.7878,-0.81,-0.8143,-0.767,-0.7355,-0.6911,-0.69,-0.7129,-0.8196,-0.9195,-0.959,-1.0103,-1.0022,-0.9961,-0.9804,-0.9581,-0.9332,-0.8998,-0.863,-0.8177,-0.7724,-0.7256,-0.6789,-0.6289,-0.5771,-0.528,-0.4776,-0.4256,-0.3792,-0.3395,-0.2971,-0.2498,-0.2,-0.1516,-0.1118,-2.2075,-2.1873,-2.1698,-2.1359,-2.1006,-2.0973,-2.0892,-2.0892,-2.0957,-2.1038,-2.1119,-2.1199,-2.131,-2.1404,-2.1435,-2.1466,-2.145,-2.1371,-2.1035,-2.0826,-2.0476,-1.97,-1.8728,-1.7726,-1.7042,-1.6248,-1.5536,-1.5117,-1.4808,-1.4461,-1.4138,-1.3788,-1.3369,-1.3072,-1.2709,-1.215,-1.1649,-1.1325,-1.1012,-1.0764,-1.0621,-1.0428,-1.0312,-1.0322,-1.0322,-1.0322,-1.0322,-1.0351,-0.9866,-0.9412,-0.9339,-0.8731,-0.8049,-0.788,-0.7734,-0.7569,-0.744,-0.7253,-0.7056,-0.6924,-0.6681,-0.6437,-0.6299,-0.6119,-0.575,-0.545,-0.5208,-0.498,-0.4824,-0.4805,-0.4961,-0.5166,-0.5397,-0.5718,-0.6039,-0.6348,-0.6702,-0.7064,-0.7457,-0.7868,-0.8235,-0.8509,-0.8503,-0.8426,-0.815,-0.7902,-0.7946,-0.8179,-0.9136,-0.9785,-1.0026,-1.0093,-0.999,-0.9844,-0.9671,-0.9435,-0.9156,-0.8824,-0.8468,-0.8005,-0.7546,-0.7098,-0.6621,-0.613,-0.5611,-0.5107,-0.4626,-0.415,-0.3716,-0.3338,-0.2907,-0.2454,-0.1931,-0.1405,-0.1052,-2.1738,-2.1603,-2.145,-2.1278,-2.1135,-2.1103,-2.107,-2.1103,-2.1135,-2.1247,-2.1388,-2.1388,-2.1466,-2.1589,-2.1589,-2.1393,-2.1248,-2.104,-2.0606,-2.0254,-1.9884,-1.927,-1.814,-1.7241,-1.6585,-1.583,-1.5418,-1.5086,-1.4777,-1.4415,-1.4059,-1.3728,-1.3404,-1.3072,-1.2651,-1.1979,-1.1378,-1.1174,-1.0888,-1.0687,-1.0582,-1.039,-1.0322,-1.0322,-1.0322,-1.0322,-1.0361,-1.0379,-1.0046,-0.9576,-0.9251,-0.8845,-0.8269,-0.784,-0.7705,-0.7539,-0.7372,-0.7214,-0.7026,-0.6794,-0.659,-0.6345,-0.6284,-0.6209,-0.6026,-0.5729,-0.5523,-0.5308,-0.5094,-0.4999,-0.5166,-0.532,-0.5587,-0.5893,-0.623,-0.6535,-0.6934,-0.7318,-0.7738,-0.8158,-0.8485,-0.8835,-0.9064,-0.9045,-0.8815,-0.8722,-0.8938,-0.9078,-0.957,-1.0008,-1.0016,-1.0006,-0.9889,-0.973,-0.9555,-0.9268,-0.8974,-0.8625,-0.8261,-0.7839,-0.7379,-0.6921,-0.6433,-0.5925,-0.5404,-0.4923,-0.4446,-0.3965,-0.3612,-0.3302,-0.2805,-0.2241,-0.1843,-0.1319,-0.1052,-2.1811,-2.1694,-2.1603,-2.1435,-2.1215,-2.1135,-2.1103,-2.1183,-2.1262,-2.1402,-2.1589,-2.1589,-2.1603,-2.1617,-2.1582,-2.122,-2.078,-2.0586,-2.0074,-1.9406,-1.9211,-1.8483,-1.7709,-1.6915,-1.6222,-1.58,-1.5403,-1.5056,-1.47,-1.4337,-1.398,-1.3615,-1.3288,-1.299,-1.2698,-1.1932,-1.1415,-1.1174,-1.0888,-1.0687,-1.0582,-1.039,-1.0322,-1.0322,-1.0322,-1.0322,-1.0351,-1.0505,-1.014,-0.9456,-0.9386,-0.8908,-0.8038,-0.7822,-0.7666,-0.7499,-0.7253,-0.7086,-0.6987,-0.6695,-0.649,-0.6337,-0.6276,-0.6289,-0.6315,-0.6141,-0.5879,-0.5563,-0.5451,-0.5315,-0.5372,-0.5454,-0.5726,-0.6057,-0.639,-0.6744,-0.7128,-0.7562,-0.7965,-0.839,-0.8762,-0.9114,-0.9479,-0.9648,-0.9448,-0.948,-0.9817,-1.0038,-1.0146,-1.0098,-1.0033,-0.9896,-0.9769,-0.9554,-0.935,-0.9084,-0.8785,-0.844,-0.8061,-0.7636,-0.7176,-0.6702,-0.6201,-0.5697,-0.5214,-0.4735,-0.4264,-0.38,-0.3359,-0.2896,-0.2464,-0.196,-0.1585,-0.1296,-0.1029,-2.1877,-2.1768,-2.1694,-2.1573,-2.1466,-2.1435,-2.1435,-2.1435,-2.1497,-2.1573,-2.1724,-2.1738,-2.1781,-2.174,-2.1309,-2.0931,-2.0626,-1.9976,-1.9433,-1.8675,-1.8692,-1.8103,-1.7325,-1.6533,-1.5909,-1.5653,-1.5314,-1.4949,-1.4547,-1.4241,-1.3947,-1.3581,-1.3116,-1.2697,-1.2258,-1.1689,-1.1308,-1.1164,-1.086,-1.0611,-1.0572,-1.0428,-1.0322,-1.0322,-1.0322,-1.0322,-1.0351,-1.0505,-1.013,-0.9416,-0.9332,-0.8876,-0.8059,-0.7725,-0.7617,-0.744,-0.7193,-0.6966,-0.6807,-0.6573,-0.6468,-0.6337,-0.6307,-0.6368,-0.6419,-0.6211,-0.5991,-0.5812,-0.5651,-0.5483,-0.5353,-0.5532,-0.5811,-0.6201,-0.6535,-0.6914,-0.7303,-0.7738,-0.8169,-0.857,-0.8949,-0.9358,-0.9755,-0.9908,-0.979,-0.9759,-1.0,-1.0047,-1.0122,-1.0017,-0.991,-0.975,-0.9585,-0.9367,-0.9134,-0.8874,-0.8575,-0.8238,-0.7854,-0.7439,-0.695,-0.6463,-0.5968,-0.5472,-0.501,-0.4535,-0.3978,-0.3416,-0.2891,-0.2398,-0.207,-0.1809,-0.1544,-0.1274,-0.1029,-2.1978,-2.1869,-2.1811,-2.1797,-2.1708,-2.1634,-2.162,-2.1664,-2.1694,-2.1751,-2.179,-2.1637,-2.1499,-2.1368,-2.0883,-2.0237,-2.005,-1.9531,-1.8798,-1.8093,-1.8303,-1.771,-1.6886,-1.6227,-1.5823,-1.5536,-1.5224,-1.4856,-1.4465,-1.4144,-1.3749,-1.3357,-1.2908,-1.2567,-1.2113,-1.1689,-1.126,-1.1126,-1.0822,-1.0582,-1.0544,-1.0438,-1.0322,-1.0322,-1.0322,-1.0322,-1.0351,-1.029,-1.0133,-0.9502,-0.9101,-0.8822,-0.8089,-0.7656,-0.7519,-0.7342,-0.7125,-0.6906,-0.6695,-0.6595,-0.6482,-0.636,-0.6329,-0.6399,-0.6504,-0.6441,-0.6147,-0.5942,-0.5771,-0.5564,-0.5412,-0.5632,-0.5922,-0.629,-0.6664,-0.7031,-0.7472,-0.7909,-0.8348,-0.8745,-0.9157,-0.957,-0.9933,-1.005,-1.0074,-1.0093,-1.0118,-1.0094,-1.0059,-0.9901,-0.9744,-0.9592,-0.9401,-0.9183,-0.8917,-0.863,-0.8326,-0.8023,-0.7621,-0.7189,-0.6718,-0.6218,-0.5741,-0.5243,-0.4755,-0.4232,-0.3577,-0.3008,-0.2546,-0.2158,-0.185,-0.1629,-0.1455,-0.1237,-0.0973,-2.2096,-2.1994,-2.1965,-2.1898,-2.184,-2.1523,-2.1543,-2.1744,-2.1803,-2.1824,-2.1814,-2.1067,-2.0893,-2.0743,-2.0097,-1.9478,-1.896,-1.871,-1.812,-1.7593,-1.7608,-1.7036,-1.6644,-1.6099,-1.5721,-1.5404,-1.509,-1.4777,-1.4397,-1.3993,-1.3573,-1.3163,-1.2733,-1.2461,-1.2125,-1.17,-1.1319,-1.1078,-1.0822,-1.0621,-1.0544,-1.0438,-1.0322,-1.0322,-1.0322,-1.0322,-1.0331,-1.0299,-0.989,-0.9477,-0.9137,-0.8533,-0.7987,-0.7588,-0.7392,-0.7205,-0.6996,-0.6816,-0.6656,-0.6595,-0.6535,-0.6421,-0.6452,-0.6452,-0.6535,-0.661,-0.6386,-0.6153,-0.5953,-0.5684,-0.5512,-0.574,-0.5966,-0.6354,-0.6752,-0.7178,-0.7651,-0.8086,-0.8506,-0.8919,-0.9313,-0.9707,-0.9993,-1.0145,-1.017,-1.0072,-1.0013,-0.992,-0.9868,-0.9757,-0.9592,-0.9393,-0.9193,-0.8977,-0.8698,-0.839,-0.803,-0.7709,-0.7318,-0.6885,-0.6428,-0.5968,-0.548,-0.4991,-0.4475,-0.3896,-0.322,-0.2708,-0.2263,-0.1935,-0.1651,-0.1496,-0.1341,-0.1125,-0.088,-2.19,-2.1284,-2.1228,-2.0916,-2.0465,-2.0458,-2.0715,-2.1139,-2.1156,-2.0994,-2.0495,-2.0293,-2.0219,-2.0187,-1.9479,-1.9033,-1.8632,-1.8191,-1.773,-1.7387,-1.7199,-1.6914,-1.6538,-1.6099,-1.5677,-1.533,-1.5029,-1.4714,-1.43,-1.3828,-1.3391,-1.2943,-1.2662,-1.2425,-1.2136,-1.1712,-1.1404,-1.1078,-1.0774,-1.0621,-1.0544,-1.04,-1.0361,-1.0322,-1.0322,-1.0322,-1.0331,-1.0093,-0.9675,-0.92,-0.8787,-0.8242,-0.7724,-0.7412,-0.7205,-0.7005,-0.6885,-0.6742,-0.6626,-0.6587,-0.6565,-0.6543,-0.6582,-0.6604,-0.6665,-0.67,-0.6604,-0.6285,-0.6138,-0.5937,-0.5674,-0.577,-0.6081,-0.6475,-0.6885,-0.7351,-0.7809,-0.8268,-0.8694,-0.916,-0.9559,-0.983,-1.0105,-1.0156,-1.0133,-1.0025,-0.9901,-0.9775,-0.9668,-0.9547,-0.9383,-0.9202,-0.896,-0.8721,-0.8427,-0.8115,-0.7766,-0.7396,-0.7002,-0.6587,-0.6088,-0.5627,-0.5194,-0.4646,-0.4027,-0.3437,-0.2842,-0.2389,-0.2,-0.1765,-0.1502,-0.1366,-0.1214,-0.1003,-0.0822,-2.146,-2.0711,-2.0625,-2.0355,-2.0018,-2.0027,-2.0179,-2.028,-2.049,-2.0364,-2.0002,-1.9697,-1.9612,-1.9517,-1.8873,-1.842,-1.8363,-1.792,-1.7512,-1.7386,-1.7166,-1.6914,-1.6554,-1.6071,-1.5664,-1.5345,-1.4998,-1.4669,-1.4222,-1.3661,-1.3151,-1.2908,-1.2615,-1.2377,-1.21,-1.1748,-1.1367,-1.1067,-1.0812,-1.0659,-1.0505,-1.04,-1.0361,-1.0322,-1.0322,-1.0322,-1.0263,-0.9928,-0.9469,-0.898,-0.8561,-0.8062,-0.7556,-0.7235,-0.7056,-0.6915,-0.6842,-0.6734,-0.6626,-0.6665,-0.6643,-0.6651,-0.6742,-0.6794,-0.6876,-0.6913,-0.6574,-0.6235,-0.6265,-0.6202,-0.5951,-0.5797,-0.6195,-0.6591,-0.705,-0.7517,-0.7974,-0.8441,-0.8916,-0.9399,-0.9748,-0.9992,-1.0134,-1.0157,-1.0093,-0.992,-0.9731,-0.9554,-0.9435,-0.9323,-0.9138,-0.8953,-0.8688,-0.8443,-0.8158,-0.7824,-0.7457,-0.7082,-0.6718,-0.6271,-0.5775,-0.526,-0.4756,-0.4163,-0.3507,-0.2977,-0.2524,-0.215,-0.1781,-0.1552,-0.1338,-0.1159,-0.1004,-0.0898,-0.073,-2.0847,-2.0091,-2.0057,-1.9921,-2.0006,-1.9921,-1.9604,-1.9132,-1.9706,-2.0013,-1.9784,-1.928,-1.9007,-1.8864,-1.8348,-1.8053,-1.7986,-1.7715,-1.7502,-1.7401,-1.7175,-1.6898,-1.6512,-1.6028,-1.5722,-1.5389,-1.5027,-1.4574,-1.4157,-1.3594,-1.3116,-1.2908,-1.2591,-1.2341,-1.2077,-1.1712,-1.1378,-1.1078,-1.0812,-1.0582,-1.0544,-1.0428,-1.0322,-1.0322,-1.0322,-1.0312,-1.0156,-0.9844,-0.9343,-0.8902,-0.8331,-0.7781,-0.7363,-0.7035,-0.6915,-0.6855,-0.6803,-0.6742,-0.6695,-0.6734,-0.6794,-0.6833,-0.6893,-0.7005,-0.7086,-0.7154,-0.6822,-0.6381,-0.6338,-0.6223,-0.5985,-0.6084,-0.6406,-0.6838,-0.7289,-0.778,-0.8252,-0.8739,-0.9266,-0.9676,-0.9913,-1.0122,-1.0111,-1.0122,-0.9952,-0.98,-0.9574,-0.9349,-0.9146,-0.9023,-0.8846,-0.8636,-0.8411,-0.8129,-0.7824,-0.7501,-0.7144,-0.6781,-0.6371,-0.5932,-0.5403,-0.4865,-0.4325,-0.373,-0.3132,-0.2719,-0.2289,-0.1916,-0.1606,-0.1374,-0.1151,-0.0926,-0.0791,-0.0678,-0.0563,-2.0089,-1.9297,-1.8751,-1.8512,-1.8534,-1.8579,-1.8533,-1.8366,-1.8577,-1.8687,-1.8517,-1.8398,-1.8312,-1.8295,-1.8097,-1.7922,-1.7878,-1.7704,-1.7526,-1.7361,-1.7158,-1.6882,-1.657,-1.6117,-1.5782,-1.5433,-1.4996,-1.4479,-1.3974,-1.3472,-1.3094,-1.2873,-1.2591,-1.2294,-1.2066,-1.17,-1.1378,-1.1126,-1.0784,-1.0582,-1.0582,-1.0428,-1.0322,-1.0322,-1.0322,-1.0283,-1.0059,-0.9498,-0.9153,-0.88,-0.7901,-0.7342,-0.7005,-0.6863,-0.6842,-0.6811,-0.6734,-0.6703,-0.6764,-0.6833,-0.6885,-0.6966,-0.7086,-0.7244,-0.7333,-0.7351,-0.7149,-0.6684,-0.6401,-0.6276,-0.6179,-0.6373,-0.6634,-0.7101,-0.7562,-0.8069,-0.8566,-0.909,-0.9606,-0.985,-1.0077,-1.0117,-1.009,-0.9998,-0.9827,-0.961,-0.9349,-0.9087,-0.8812,-0.8622,-0.8445,-0.8243,-0.8057,-0.7796,-0.7486,-0.7144,-0.6769,-0.6376,-0.595,-0.5507,-0.503,-0.4418,-0.3813,-0.3332,-0.2832,-0.2434,-0.2072,-0.1728,-0.142,-0.1206,-0.0966,-0.0746,-0.0508,-0.0348,-0.0265,-1.943,-1.8687,-1.8319,-1.8134,-1.8121,-1.8163,-1.8201,-1.8201,-1.8236,-1.8194,-1.813,-1.8108,-1.8104,-1.8065,-1.7988,-1.7944,-1.79,-1.7704,-1.7542,-1.7377,-1.7117,-1.6882,-1.6543,-1.6191,-1.5811,-1.5448,-1.4842,-1.4254,-1.3808,-1.3404,-1.3094,-1.2838,-1.2544,-1.2258,-1.1993,-1.1664,-1.1378,-1.1164,-1.0784,-1.0621,-1.0582,-1.0438,-1.0322,-1.0322,-1.0322,-1.0273,-0.9924,-0.9404,-0.8967,-0.8522,-0.7706,-0.7154,-0.6885,-0.6764,-0.6695,-0.6695,-0.6665,-0.6695,-0.6824,-0.6915,-0.7026,-0.7145,-0.7314,-0.748,-0.7685,-0.7664,-0.7266,-0.6878,-0.6963,-0.6848,-0.6505,-0.654,-0.6943,-0.7398,-0.793,-0.8445,-0.8977,-0.9502,-0.9815,-0.9972,-1.0097,-1.0055,-0.9998,-0.9838,-0.9654,-0.9347,-0.9079,-0.8812,-0.8514,-0.8182,-0.7991,-0.7794,-0.7577,-0.7381,-0.7082,-0.6739,-0.6371,-0.5961,-0.5555,-0.4991,-0.4446,-0.3855,-0.3302,-0.2896,-0.2531,-0.2174,-0.1815,-0.1515,-0.1325,-0.1148,-0.0873,-0.0569,-0.03,-0.0,0.0158,-1.8802,-1.8249,-1.8277,-1.8301,-1.8307,-1.8307,-1.8307,-1.8307,-1.8301,-1.8315,-1.8295,-1.8215,-1.8194,-1.8151,-1.807,-1.8027,-1.7922,-1.7726,-1.7566,-1.7361,-1.7117,-1.6866,-1.6528,-1.6191,-1.5769,-1.5239,-1.4669,-1.4222,-1.3775,-1.3404,-1.306,-1.2803,-1.2508,-1.2222,-1.1909,-1.1627,-1.1378,-1.1174,-1.0871,-1.0659,-1.0544,-1.04,-1.0322,-1.0322,-1.0322,-1.0215,-0.9857,-0.9379,-0.8841,-0.8229,-0.7584,-0.7099,-0.6786,-0.6665,-0.6634,-0.6595,-0.6604,-0.6695,-0.6846,-0.6996,-0.7175,-0.7362,-0.7559,-0.7782,-0.7996,-0.7866,-0.7464,-0.7316,-0.7394,-0.7212,-0.6852,-0.6855,-0.729,-0.7775,-0.831,-0.8843,-0.9371,-0.9815,-0.9959,-1.0091,-1.0037,-1.0006,-0.9838,-0.9687,-0.9401,-0.9082,-0.879,-0.851,-0.8196,-0.7794,-0.7503,-0.7245,-0.6994,-0.6809,-0.6638,-0.6312,-0.595,-0.5563,-0.5117,-0.4486,-0.389,-0.3381,-0.2939,-0.2555,-0.2191,-0.1886,-0.1614,-0.1325,-0.1189,-0.0979,-0.0603,-0.0208,0.0062,0.0356,0.0595,-1.8409,-1.827,-1.8287,-1.8307,-1.8328,-1.8363,-1.8363,-1.8345,-1.8415,-1.8412,-1.8298,-1.8243,-1.8201,-1.819,-1.8113,-1.8048,-1.7961,-1.7766,-1.7589,-1.7384,-1.7158,-1.6866,-1.6528,-1.6108,-1.5566,-1.5027,-1.4511,-1.417,-1.3788,-1.3404,-1.3035,-1.2742,-1.2472,-1.2175,-1.1864,-1.1586,-1.1226,-1.1005,-1.0791,-1.0545,-1.0444,-1.0359,-1.0312,-1.0322,-1.0322,-1.0021,-0.9616,-0.9137,-0.8622,-0.8043,-0.7444,-0.6967,-0.6717,-0.6604,-0.6573,-0.6604,-0.6573,-0.6703,-0.6876,-0.7116,-0.7333,-0.7588,-0.7811,-0.8125,-0.8252,-0.8227,-0.7907,-0.7684,-0.7623,-0.7306,-0.7056,-0.7315,-0.7694,-0.8254,-0.8822,-0.9276,-0.9746,-0.9941,-1.0068,-1.0049,-0.9964,-0.9834,-0.9636,-0.939,-0.9082,-0.8768,-0.84,-0.8127,-0.7909,-0.7487,-0.7061,-0.6739,-0.6451,-0.6347,-0.623,-0.5873,-0.5507,-0.5136,-0.4686,-0.404,-0.3486,-0.2998,-0.2577,-0.2238,-0.1903,-0.1593,-0.1338,-0.1104,-0.0848,-0.0594,-0.018,0.0186,0.0452,0.0662,0.0904]}]]